[[{"header":{"parameterUnit":"m.s-1","parameterCategory":1,"la1":30.6,"la2":29.2853,"lo1":-89.7004,"lo2":-87.6739,"dy":0.0162,"dx":0.0183,"nx":112,"ny":82,"refTime":"2024-02-26T18:00:00:Z","depth":0,"parameterNumber":2,"parameterNumberName":"U-component_of_WINDS"},"data":[0.0,0.0,0.0,0.0,0.0,0.0,0.0,0.0,0.0,0.0,0.0,0.0,0.0,0.0,0.0,0.0,0.0,0.0,0.0,0.0,0.0,0.0,0.0,0.0,0.0,0.0,0.0,0.0,0.0,0.0,0.0,0.0,0.0,0.0,0.0,0.0,0.0,0.0,0.0,0.0,0.0,0.0,0.0,0.0,0.0,0.0,0.0,0.0,0.0,0.0,0.0,0.0,0.0,0.0,0.0,0.0,0.0,0.0,0.0,0.0,0.0,0.0,0.0,0.0,0.0,0.0,0.0,0.0,0.0,0.0,0.0,0.0,0.0,0.0,0.0,0.0,0.0,0.0,0.0,0.0,0.0,0.0,0.0,0.0,0.0,0.0,0.0,0.0,0.0,0.0,-4.721,-4.9531,-5.3971,-5.7077,-5.774,-5.7809,-5.6326,-5.2907,0.0,0.0,0.0,0.0,0.0,0.0,0.0,0.0,0.0,0.0,0.0,0.0,0.0,0.0,0.0,0.0,0.0,0.0,0.0,0.0,0.0,0.0,0.0,0.0,0.0,0.0,0.0,0.0,0.0,0.0,0.0,0.0,0.0,0.0,0.0,0.0,0.0,0.0,0.0,0.0,0.0,0.0,0.0,0.0,0.0,0.0,0.0,0.0,0.0,0.0,0.0,0.0,0.0,0.0,0.0,0.0,0.0,0.0,0.0,0.0,0.0,0.0,0.0,0.0,0.0,0.0,0.0,0.0,0.0,0.0,0.0,0.0,0.0,0.0,0.0,0.0,0.0,0.0,0.0,0.0,0.0,0.0,0.0,0.0,0.0,0.0,0.0,0.0,0.0,0.0,0.0,0.0,0.0,0.0,0.0,0.0,0.0,0.0,0.0,0.0,0.0,0.0,0.0,0.0,-4.8343,-5.3748,-5.6283,-5.7674,-5.7791,-5.7781,-5.6328,-5.2928,0.0,0.0,0.0,0.0,0.0,0.0,0.0,0.0,0.0,0.0,0.0,0.0,0.0,0.0,0.0,0.0,0.0,0.0,0.0,0.0,0.0,0.0,0.0,0.0,0.0,0.0,0.0,0.0,0.0,0.0,0.0,0.0,0.0,0.0,0.0,0.0,0.0,0.0,0.0,0.0,0.0,0.0,0.0,0.0,0.0,0.0,0.0,0.0,0.0,0.0,0.0,0.0,0.0,0.0,0.0,0.0,0.0,0.0,0.0,0.0,0.0,0.0,0.0,0.0,0.0,0.0,0.0,0.0,0.0,0.0,0.0,0.0,0.0,0.0,0.0,0.0,0.0,0.0,0.0,0.0,0.0,0.0,0.0,0.0,0.0,0.0,0.0,0.0,0.0,0.0,0.0,0.0,0.0,0.0,0.0,0.0,0.0,0.0,0.0,0.0,0.0,0.0,0.0,-4.7991,-5.101,-5.6092,-5.7768,-5.8691,-5.9159,-5.8799,-5.7267,-5.4298,-5.2399,0.0,0.0,0.0,0.0,0.0,0.0,0.0,0.0,0.0,0.0,0.0,0.0,0.0,0.0,0.0,0.0,0.0,0.0,0.0,0.0,0.0,0.0,0.0,0.0,0.0,0.0,0.0,0.0,0.0,0.0,0.0,0.0,0.0,0.0,0.0,0.0,0.0,0.0,0.0,0.0,0.0,0.0,0.0,0.0,0.0,0.0,0.0,0.0,0.0,0.0,0.0,0.0,0.0,0.0,0.0,0.0,0.0,0.0,0.0,0.0,0.0,0.0,0.0,0.0,0.0,0.0,0.0,0.0,0.0,0.0,0.0,0.0,0.0,0.0,0.0,0.0,0.0,0.0,0.0,0.0,0.0,0.0,0.0,0.0,0.0,0.0,0.0,0.0,0.0,0.0,0.0,0.0,0.0,0.0,0.0,0.0,0.0,0.0,0.0,0.0,0.0,0.0,-5.0691,-5.3514,-5.7421,-5.8589,-5.9434,-6.0331,-5.9423,-5.7697,-5.5159,-5.2553,0.0,0.0,0.0,0.0,0.0,0.0,0.0,0.0,0.0,0.0,0.0,0.0,0.0,0.0,0.0,0.0,0.0,0.0,0.0,0.0,0.0,0.0,0.0,0.0,0.0,0.0,0.0,0.0,0.0,0.0,0.0,0.0,0.0,0.0,0.0,0.0,0.0,0.0,0.0,0.0,0.0,0.0,0.0,0.0,0.0,0.0,0.0,0.0,0.0,0.0,0.0,0.0,0.0,0.0,0.0,0.0,0.0,0.0,0.0,0.0,0.0,0.0,0.0,0.0,0.0,0.0,0.0,0.0,0.0,0.0,0.0,0.0,0.0,0.0,0.0,0.0,0.0,0.0,0.0,0.0,0.0,0.0,0.0,0.0,0.0,0.0,0.0,0.0,0.0,0.0,0.0,0.0,0.0,0.0,0.0,0.0,0.0,0.0,0.0,0.0,0.0,0.0,-5.174,-5.4878,-5.7615,-5.863,-5.944,-6.0331,-5.8877,-5.6797,-5.425,-5.1652,0.0,0.0,0.0,0.0,0.0,0.0,0.0,0.0,0.0,0.0,0.0,0.0,0.0,0.0,0.0,0.0,0.0,0.0,0.0,0.0,0.0,0.0,0.0,0.0,0.0,0.0,0.0,0.0,0.0,0.0,0.0,0.0,0.0,0.0,0.0,0.0,0.0,0.0,0.0,0.0,0.0,0.0,0.0,0.0,0.0,0.0,0.0,0.0,0.0,0.0,0.0,0.0,0.0,0.0,0.0,0.0,0.0,0.0,0.0,0.0,0.0,0.0,0.0,0.0,0.0,0.0,0.0,0.0,0.0,0.0,0.0,0.0,0.0,0.0,0.0,0.0,0.0,0.0,0.0,0.0,0.0,0.0,0.0,0.0,0.0,0.0,0.0,0.0,0.0,0.0,0.0,0.0,0.0,0.0,0.0,0.0,0.0,0.0,0.0,0.0,0.0,0.0,-5.2168,-5.519,0.0,-5.9412,-6.026,-6.1151,-5.9618,-5.7734,-5.5692,0.0,0.0,0.0,0.0,0.0,0.0,0.0,0.0,0.0,0.0,0.0,0.0,0.0,0.0,0.0,0.0,0.0,0.0,0.0,0.0,0.0,0.0,0.0,0.0,0.0,0.0,0.0,0.0,0.0,0.0,0.0,0.0,0.0,0.0,0.0,0.0,0.0,0.0,0.0,0.0,0.0,0.0,0.0,0.0,0.0,0.0,0.0,0.0,0.0,0.0,0.0,0.0,0.0,0.0,0.0,0.0,0.0,0.0,0.0,0.0,0.0,0.0,0.0,0.0,0.0,0.0,0.0,0.0,0.0,0.0,0.0,0.0,0.0,0.0,0.0,0.0,0.0,0.0,0.0,0.0,0.0,0.0,0.0,0.0,0.0,0.0,0.0,0.0,0.0,0.0,0.0,0.0,0.0,0.0,0.0,0.0,0.0,0.0,0.0,0.0,0.0,0.0,-5.0296,-5.3022,-5.5891,0.0,-5.9646,-6.0456,-6.1582,-5.9853,-5.8046,-5.6589,0.0,0.0,0.0,0.0,0.0,0.0,0.0,0.0,0.0,0.0,0.0,0.0,0.0,0.0,0.0,0.0,0.0,0.0,0.0,0.0,0.0,0.0,0.0,0.0,0.0,0.0,0.0,0.0,0.0,0.0,0.0,0.0,0.0,0.0,0.0,0.0,0.0,0.0,0.0,0.0,0.0,0.0,0.0,0.0,0.0,0.0,0.0,0.0,0.0,0.0,0.0,0.0,0.0,0.0,0.0,0.0,0.0,0.0,0.0,0.0,0.0,0.0,0.0,0.0,0.0,0.0,0.0,0.0,0.0,0.0,0.0,0.0,0.0,0.0,0.0,0.0,0.0,0.0,0.0,0.0,0.0,0.0,0.0,0.0,0.0,0.0,0.0,0.0,0.0,0.0,0.0,0.0,0.0,0.0,0.0,0.0,0.0,0.0,0.0,0.0,0.0,0.0,-5.1417,-5.4418,-5.7175,-5.8904,-5.9138,-5.9831,-6.1543,-5.9306,-5.7421,0.0,0.0,0.0,0.0,0.0,0.0,0.0,0.0,0.0,0.0,0.0,0.0,0.0,0.0,0.0,0.0,0.0,0.0,0.0,0.0,0.0,0.0,0.0,0.0,0.0,0.0,0.0,0.0,0.0,0.0,0.0,0.0,0.0,0.0,0.0,0.0,0.0,0.0,0.0,0.0,0.0,0.0,0.0,0.0,0.0,0.0,0.0,0.0,0.0,0.0,0.0,0.0,0.0,0.0,0.0,0.0,0.0,0.0,0.0,0.0,0.0,0.0,0.0,0.0,0.0,0.0,0.0,0.0,0.0,0.0,0.0,0.0,0.0,0.0,0.0,0.0,0.0,0.0,0.0,0.0,0.0,0.0,0.0,0.0,0.0,0.0,0.0,0.0,0.0,0.0,0.0,0.0,0.0,0.0,0.0,0.0,0.0,0.0,0.0,0.0,0.0,0.0,0.0,-5.2158,-5.5324,-5.7884,-5.8983,-6.0193,-6.1159,-6.166,-5.9853,-5.8358,-5.7487,0.0,0.0,0.0,0.0,0.0,0.0,0.0,0.0,0.0,0.0,0.0,0.0,0.0,0.0,0.0,0.0,0.0,0.0,0.0,0.0,0.0,0.0,0.0,0.0,0.0,0.0,0.0,0.0,0.0,0.0,0.0,0.0,0.0,0.0,0.0,0.0,0.0,0.0,0.0,0.0,0.0,0.0,0.0,0.0,0.0,0.0,0.0,0.0,0.0,0.0,0.0,0.0,0.0,0.0,0.0,0.0,0.0,0.0,0.0,0.0,0.0,0.0,0.0,0.0,0.0,0.0,0.0,0.0,0.0,0.0,0.0,0.0,0.0,0.0,0.0,0.0,0.0,0.0,0.0,0.0,0.0,0.0,0.0,0.0,0.0,0.0,0.0,0.0,0.0,0.0,0.0,0.0,0.0,0.0,0.0,0.0,0.0,0.0,0.0,0.0,0.0,0.0,-5.2509,-5.5714,-5.8194,-5.902,-6.035,-6.1316,-6.1663,-6.0089,-5.8746,-5.7877,0.0,0.0,0.0,0.0,0.0,0.0,0.0,0.0,0.0,0.0,0.0,0.0,0.0,0.0,0.0,0.0,0.0,0.0,0.0,0.0,0.0,0.0,0.0,0.0,0.0,0.0,0.0,0.0,0.0,0.0,0.0,0.0,0.0,0.0,0.0,0.0,0.0,0.0,0.0,0.0,0.0,0.0,0.0,0.0,0.0,0.0,0.0,0.0,0.0,0.0,0.0,0.0,0.0,0.0,0.0,0.0,0.0,0.0,0.0,0.0,0.0,0.0,0.0,0.0,0.0,0.0,0.0,0.0,0.0,0.0,0.0,0.0,0.0,0.0,0.0,0.0,0.0,0.0,0.0,0.0,0.0,0.0,0.0,0.0,0.0,0.0,0.0,0.0,0.0,0.0,0.0,0.0,0.0,0.0,0.0,0.0,0.0,0.0,0.0,0.0,0.0,0.0,-5.2665,-5.5786,-5.8227,-5.9015,-5.996,-6.0811,-6.1514,-6.0054,-5.8748,-5.7877,0.0,0.0,0.0,0.0,0.0,0.0,0.0,0.0,0.0,0.0,0.0,0.0,0.0,0.0,0.0,0.0,0.0,0.0,0.0,0.0,0.0,0.0,0.0,0.0,0.0,0.0,0.0,0.0,0.0,0.0,0.0,0.0,0.0,0.0,0.0,0.0,0.0,0.0,0.0,0.0,0.0,0.0,0.0,0.0,0.0,0.0,0.0,0.0,0.0,0.0,0.0,0.0,0.0,0.0,0.0,0.0,0.0,0.0,0.0,0.0,-4.6276,0.0,0.0,0.0,0.0,0.0,0.0,0.0,0.0,0.0,0.0,0.0,0.0,0.0,0.0,0.0,0.0,0.0,0.0,0.0,0.0,0.0,0.0,0.0,0.0,0.0,0.0,0.0,0.0,0.0,0.0,0.0,0.0,0.0,0.0,0.0,0.0,0.0,0.0,0.0,0.0,0.0,-5.3462,-5.6696,-5.8898,-5.9137,-6.0508,-6.1206,-6.0734,-5.9711,-5.8722,-5.7853,-5.5423,0.0,0.0,0.0,0.0,0.0,0.0,0.0,0.0,0.0,0.0,0.0,0.0,0.0,0.0,0.0,0.0,0.0,0.0,0.0,0.0,0.0,0.0,0.0,0.0,0.0,0.0,0.0,0.0,0.0,0.0,0.0,0.0,0.0,0.0,0.0,0.0,0.0,0.0,0.0,0.0,0.0,0.0,0.0,0.0,0.0,0.0,0.0,0.0,0.0,0.0,0.0,0.0,0.0,0.0,0.0,0.0,0.0,0.0,0.0,0.0,-4.7021,0.0,0.0,0.0,0.0,0.0,0.0,0.0,0.0,0.0,0.0,0.0,0.0,0.0,0.0,0.0,0.0,0.0,0.0,0.0,0.0,0.0,0.0,0.0,0.0,0.0,0.0,0.0,0.0,0.0,0.0,0.0,0.0,0.0,0.0,0.0,0.0,0.0,0.0,0.0,0.0,-5.3777,-5.6971,-5.9095,-5.9135,-6.0664,-6.1364,-6.0461,-5.9986,-5.9156,-5.7896,-5.6563,0.0,0.0,0.0,0.0,0.0,0.0,0.0,0.0,0.0,0.0,0.0,0.0,0.0,0.0,0.0,0.0,0.0,0.0,0.0,0.0,0.0,0.0,0.0,0.0,0.0,0.0,0.0,0.0,0.0,0.0,0.0,0.0,0.0,0.0,0.0,0.0,0.0,0.0,0.0,0.0,0.0,0.0,0.0,0.0,0.0,0.0,0.0,0.0,0.0,0.0,0.0,0.0,0.0,-5.019,-5.0558,-5.052,-5.1294,-5.118,-5.034,-4.8808,-4.8111,-4.8043,-4.7914,0.0,0.0,0.0,0.0,0.0,0.0,0.0,0.0,0.0,0.0,0.0,0.0,0.0,0.0,0.0,0.0,0.0,0.0,0.0,0.0,0.0,0.0,-4.6964,-4.8761,-4.9187,-4.9059,-4.8593,0.0,0.0,0.0,0.0,0.0,0.0,0.0,0.0,0.0,0.0,0.0,-5.4094,-5.7207,-5.9328,-5.9329,-6.0742,-6.1365,-6.0463,-6.0417,-5.9704,-5.8133,-5.7896,-5.684,0.0,0.0,0.0,0.0,0.0,0.0,0.0,0.0,0.0,0.0,0.0,0.0,0.0,0.0,0.0,0.0,0.0,0.0,0.0,0.0,0.0,0.0,0.0,0.0,0.0,0.0,0.0,0.0,0.0,0.0,0.0,0.0,-4.2181,-4.3373,0.0,0.0,0.0,0.0,0.0,0.0,0.0,0.0,0.0,0.0,0.0,0.0,0.0,-4.9446,-4.9517,-5.1036,-5.1871,-5.1999,-5.2246,-5.2284,-5.2164,-5.2476,-5.2144,-5.1306,-5.12,0.0,-4.9889,-4.9237,0.0,0.0,0.0,0.0,0.0,0.0,0.0,0.0,0.0,0.0,0.0,0.0,0.0,0.0,0.0,0.0,0.0,0.0,0.0,0.0,0.0,0.0,-4.9692,-5.1418,-5.1852,-5.2069,-5.2791,-5.0664,-4.8637,-4.8764,-4.874,-4.8702,0.0,0.0,0.0,0.0,0.0,0.0,-5.5003,-5.8108,-6.0227,-6.0231,-6.1093,-6.1367,-6.0466,-6.0384,-5.9987,-5.9003,-5.8213,-5.766,-5.7309,-5.602,0.0,0.0,0.0,0.0,0.0,0.0,0.0,0.0,0.0,0.0,0.0,0.0,0.0,0.0,0.0,0.0,0.0,0.0,0.0,0.0,0.0,0.0,0.0,0.0,0.0,0.0,0.0,0.0,0.0,-4.0956,-4.3339,-4.3847,-4.4368,-4.4829,0.0,0.0,0.0,0.0,0.0,0.0,0.0,0.0,0.0,-4.9538,-5.0605,-5.1263,-5.1361,-5.2123,-5.2493,-5.2493,-5.3135,-5.3123,-5.2614,-5.3289,-5.3121,-5.2256,-5.1924,-5.1535,-5.1092,-5.027,-4.9935,-4.982,0.0,0.0,0.0,0.0,-4.5903,-4.5722,-4.601,-4.65,-4.6952,-4.6866,0.0,0.0,0.0,0.0,0.0,0.0,0.0,-4.697,0.0,-5.0116,-5.085,-5.2605,-5.3081,-5.3267,-5.3706,-5.2621,-5.1536,-5.1639,-5.1658,-5.1629,-5.1668,-5.1681,0.0,0.0,0.0,-5.5543,-5.5989,-5.858,-6.0384,-6.0388,-6.1171,-6.1367,-6.0467,-6.0853,-6.034,-5.8497,-5.8486,-5.8128,-5.7153,-5.6411,-5.4962,0.0,0.0,0.0,0.0,0.0,0.0,0.0,0.0,0.0,0.0,0.0,0.0,0.0,0.0,0.0,0.0,0.0,0.0,0.0,0.0,0.0,0.0,0.0,0.0,0.0,0.0,0.0,0.0,-4.1868,-4.4285,-4.4821,-4.5951,-4.6754,0.0,0.0,0.0,0.0,0.0,0.0,-4.8628,-4.9824,-5.0795,-5.1495,-5.2247,-5.2679,-5.2779,-5.3011,-5.3166,-5.3207,-5.3949,-5.3963,-5.3353,-5.4141,-5.4049,-5.318,-5.2691,-5.2351,-5.2082,-5.1205,-5.087,-5.0863,-5.0141,-4.9705,-4.9346,-4.8109,-4.7764,-4.7918,-4.7716,-4.8332,-4.9151,-4.8805,-4.8951,-4.9086,-4.7741,0.0,0.0,0.0,0.0,-4.8394,-5.0626,-5.1556,-5.2276,-5.3591,-5.4121,-5.4394,-5.4417,-5.4489,-5.4355,-5.3962,-5.3907,-5.3916,-5.3913,-5.3919,0.0,0.0,0.0,-5.6836,-5.6894,-5.9168,-6.0736,-6.074,-6.1328,-6.1445,-6.078,-6.1324,-6.0772,-5.8617,-5.8842,-5.8443,-5.6957,-5.6723,-5.5587,-5.3396,0.0,0.0,0.0,0.0,0.0,0.0,0.0,0.0,0.0,0.0,0.0,0.0,0.0,0.0,0.0,0.0,0.0,0.0,0.0,0.0,0.0,0.0,0.0,0.0,0.0,0.0,0.0,0.0,0.0,-4.7304,-4.7548,0.0,0.0,0.0,0.0,-4.9476,-4.9703,-5.041,-5.2077,-5.2215,-5.2291,-5.2329,-5.3177,-5.3704,-5.3819,-5.451,-5.4919,-5.5069,-5.5107,-5.5121,-5.5082,-5.525,-5.4891,-5.4137,-5.4215,-5.381,-5.2976,-5.2172,-5.1846,-5.1846,-5.1769,-5.1278,-5.0517,-5.049,-4.9441,-4.822,-4.9894,-4.9971,-4.9431,-5.0189,-4.9961,-4.9385,-4.9201,-4.8654,0.0,0.0,-4.9967,-5.0829,-5.1799,-5.3375,-5.4691,-5.4739,-5.5468,-5.6152,-5.6186,-5.6251,-5.5872,-5.4219,-5.3964,-5.3969,-5.3913,0.0,-5.3986,-5.4016,-5.6131,-5.7742,-5.7754,-6.0026,-6.1633,-6.1638,-6.1679,-6.168,-6.164,-6.1679,-6.1285,-6.0343,-5.9515,-5.8687,-5.7777,-5.6996,-5.6138,-5.5201,-5.4351,0.0,0.0,0.0,0.0,0.0,0.0,0.0,0.0,0.0,0.0,0.0,0.0,0.0,0.0,0.0,0.0,0.0,0.0,0.0,0.0,0.0,0.0,0.0,0.0,0.0,0.0,0.0,0.0,-4.8334,-4.8907,0.0,-5.1063,-5.0176,-5.006,-5.1395,-5.1509,-5.2002,-5.3177,-5.3252,-5.348,-5.401,-5.4358,-5.4539,-5.4553,-5.489,-5.5085,-5.5085,-5.5143,-5.521,-5.5249,-5.5389,-5.532,-5.5098,-5.4639,-5.4287,-5.399,-5.3692,-5.3241,-5.2741,-5.2741,-5.2518,-5.2207,-5.2186,-5.1792,-5.1369,-5.1984,-5.167,-5.0942,-5.0711,-5.0798,-5.0923,-5.0375,-5.0394,-5.0654,-5.1,-5.1308,-5.1857,-5.3365,-5.4263,-5.4917,-5.5529,-5.6012,-5.629,-5.6297,-5.6359,-5.6254,-5.5698,-5.5647,-5.5662,-5.5658,-5.5662,-5.5667,-5.5665,-5.6877,-5.802,-5.8541,-5.995,-6.1088,-6.164,-6.1719,-6.1719,-6.1719,-6.1718,-6.0855,-5.8854,-5.8967,-5.8217,-5.6207,-5.6445,-5.5938,-5.4489,-5.4147,-5.2858,0.0,0.0,0.0,0.0,0.0,0.0,0.0,0.0,0.0,0.0,0.0,0.0,0.0,0.0,0.0,0.0,0.0,0.0,0.0,0.0,0.0,0.0,0.0,0.0,0.0,0.0,-4.8224,-4.8843,-5.0114,-5.1229,-5.2009,-5.1858,-5.2034,-5.2798,-5.2836,-5.3215,-5.4048,-5.4116,-5.4381,-5.4882,-5.4985,-5.5014,-5.4956,-5.5071,-5.5113,-5.5151,-5.5208,-5.5262,-5.5351,-5.5461,-5.5593,-5.561,-5.5115,-5.4895,-5.4895,-5.4895,-5.4549,-5.401,-5.3741,-5.3413,-5.3112,-5.2762,-5.2504,-5.2267,-5.2246,-5.2075,-5.1779,-5.0981,-5.1289,-5.1857,-5.1318,-5.1732,-5.2386,-5.2425,-5.2598,-5.307,-5.436,-5.4951,-5.5318,-5.5994,-5.6231,-5.631,-5.6297,-5.6354,-5.6402,-5.6485,-5.655,-5.6606,-5.6606,-5.6606,-5.6606,-5.6606,-5.7274,-5.8101,-5.8974,-5.9876,-6.0739,-6.1601,-6.1719,-6.1719,-6.1719,-6.1444,-6.0385,-5.8381,-5.8539,-5.7631,-5.5293,-5.5816,-5.5467,-5.4006,-5.3982,-5.2852,-5.0533,0.0,0.0,0.0,0.0,0.0,0.0,0.0,0.0,0.0,0.0,0.0,0.0,0.0,0.0,0.0,0.0,0.0,0.0,0.0,0.0,0.0,0.0,0.0,-4.6614,-4.7919,-4.891,-4.9049,-5.1154,-5.2281,-5.1409,-5.2072,-5.2921,-5.3669,-5.3745,-5.4086,-5.4882,-5.4956,-5.4956,-5.492,-5.5028,-5.5113,-5.5113,-5.5127,-5.5195,-5.5403,-5.5326,-5.5351,-5.5523,-5.5593,-5.5649,-5.5703,-5.5703,-5.5703,-5.5703,-5.5703,-5.5703,-5.5626,-5.4857,-5.401,-5.3203,-5.2346,-5.151,-5.0866,-5.0798,-5.1318,-5.1866,-5.1085,-5.1429,-5.2144,-5.2059,-5.2666,-5.3321,-5.3282,-5.386,-5.4535,-5.4678,-5.5384,-5.6109,-5.6117,-5.6209,-5.631,-5.6297,-5.6354,-5.6406,-5.6497,-5.6558,-5.6606,-5.6606,-5.6606,-5.6606,-5.6606,-5.728,0.0,-5.8975,-5.9839,-6.0702,-6.1562,-6.164,-6.164,-6.164,-6.0898,-6.0034,-5.9163,-5.8387,-5.7127,-5.5321,-5.5306,-5.4918,-5.3952,-5.3979,-5.316,-5.1497,0.0,0.0,0.0,0.0,0.0,0.0,0.0,0.0,0.0,0.0,0.0,0.0,0.0,0.0,0.0,0.0,0.0,0.0,0.0,0.0,0.0,0.0,-4.8426,-4.9009,-5.005,-5.1167,-5.2306,-5.3052,-5.3594,-5.3859,-5.4101,-5.4328,-5.4541,-5.4579,-5.4663,-5.4829,-5.4905,-5.4905,-5.4829,-5.5,-5.5085,-5.5028,-5.5233,-5.5326,-5.5313,-5.5365,-5.5425,-5.5554,-5.5604,-5.5649,-5.5703,-5.5703,-5.5703,-5.5703,-5.5703,-5.5703,-5.5665,-5.5472,-5.5203,-5.4972,-5.4688,-5.4446,-5.4073,-5.2933,-5.3059,-5.3549,-5.2078,-5.2627,-5.3705,-5.3069,-5.3492,-5.4031,-5.3415,-5.3839,-5.4524,-5.4593,-5.5275,-5.6003,-5.6141,-5.6209,-5.6233,-5.6302,-5.6339,-5.6437,-5.6503,-5.6542,-5.6606,-5.6606,-5.6606,-5.6606,-5.6606,-5.677,0.0,-5.8897,-5.9332,-5.9842,-6.0664,-6.0742,-6.0742,-6.0742,-6.0547,-6.0038,-5.9171,-5.894,-5.8038,-5.6222,-5.6192,-5.5838,-5.4918,-5.4253,-5.3704,0.0,0.0,0.0,0.0,0.0,0.0,0.0,0.0,0.0,0.0,0.0,0.0,0.0,0.0,0.0,0.0,0.0,0.0,0.0,0.0,0.0,0.0,-4.8045,-4.9326,-5.0469,-5.1434,-5.2323,-5.3207,-5.3944,-5.4396,-5.4404,-5.4722,-5.4912,-5.4882,-5.492,-5.489,-5.4845,-5.489,-5.4905,-5.489,-5.5028,-5.5075,-5.5099,-5.5286,-5.5377,-5.5326,-5.5389,-5.5485,-5.5615,-5.5649,-5.5671,-5.5703,-5.5703,-5.5703,-5.5703,-5.5703,-5.5703,0.0,0.0,0.0,0.0,0.0,-5.4831,-5.4935,-5.3674,-5.38,-5.4175,-5.2521,-5.3137,-5.4349,-5.3502,-5.407,-5.4895,-5.4395,-5.4626,-5.5042,-5.5104,-5.5527,-5.5995,-5.6157,-5.6223,-5.6239,-5.6347,-5.6383,-5.6437,-5.65,-5.6542,0.0,-5.6606,-5.6606,-5.6606,-5.6606,-5.6618,-5.7213,-5.8897,-5.9177,-5.9648,-6.082,-6.0937,-6.0937,-6.0937,-6.0312,0.0,0.0,0.0,-5.7496,-5.6043,-5.5646,0.0,0.0,0.0,-5.4443,-5.4443,-5.4843,0.0,0.0,-5.319,-5.3231,0.0,0.0,0.0,0.0,0.0,0.0,0.0,0.0,0.0,0.0,0.0,0.0,0.0,0.0,0.0,0.0,-4.8552,-4.9794,-5.1218,-5.2171,-5.2717,-5.2728,-5.4101,-5.4746,-5.3926,-5.4539,-5.4956,-5.4935,-5.4897,-5.492,-5.492,0.0,0.0,0.0,0.0,-5.513,-5.5197,-5.5326,-5.5403,-5.5401,-5.5449,-5.552,-5.5626,-5.5682,-5.5703,-5.5703,-5.5703,-5.5703,-5.5703,-5.5703,-5.5703,-5.5703,-5.5703,-5.5241,-5.4549,-5.378,-5.3941,-5.4446,-5.3705,0.0,0.0,-5.2849,-5.334,-5.439,-5.3773,-5.4513,-5.5549,-5.5549,-5.5626,-5.5696,-5.576,-5.5855,-5.6029,-5.6157,-5.6238,-5.6304,-5.637,-5.6388,-5.6437,-5.6471,-5.6545,-5.6604,-5.6604,-5.6604,-5.6606,-5.6606,-5.6662,-5.7335,-5.8897,-5.9178,-5.9805,-6.1367,0.0,0.0,-6.1562,-6.0195,-5.9684,-6.0502,-5.8239,-5.6442,-5.5501,-5.4664,-5.4218,-5.4216,-5.4955,-5.5345,-5.5345,-5.6185,-5.6585,-5.6593,-5.5807,-5.5927,0.0,0.0,0.0,0.0,0.0,0.0,0.0,0.0,0.0,0.0,0.0,0.0,0.0,0.0,0.0,-4.8465,-4.9986,-5.1153,-5.1495,-5.2234,-5.2946,-5.3552,-5.3892,-5.423,-5.4719,-5.4851,-5.4927,-5.4971,-5.4971,-5.4956,-5.4882,-5.5,-5.5028,-5.4912,-5.5113,-5.517,-5.5197,-5.5326,-5.5415,-5.5461,0.0,0.0,-5.5692,-5.5703,-5.5703,-5.5703,-5.5703,-5.5703,-5.5703,-5.5703,-5.5703,-5.5703,-5.5703,-5.5588,-5.5434,-5.528,-5.5318,-5.5346,-5.4521,-5.4821,-5.5353,-5.4359,-5.4254,-5.4582,-5.5081,-5.4983,0.0,-5.4741,-5.5203,-5.5581,-5.4998,-5.5373,-5.5986,-5.6149,-5.6216,-5.6233,-5.6302,-5.6358,-5.6407,-5.6433,-5.6482,-5.6511,-5.6511,-5.656,-5.6606,-5.6606,-5.7208,-5.7999,-5.8975,-5.9178,-5.957,-6.0547,-6.0078,-5.9961,-6.0586,-6.0351,-6.0547,-6.1406,-5.9726,-5.8007,-5.6403,-5.617,-5.609,-5.608,-5.6235,-5.6313,-5.6313,-5.6506,-5.6585,-5.6593,-5.6435,-5.6827,0.0,0.0,0.0,0.0,0.0,0.0,0.0,0.0,0.0,0.0,0.0,-4.5811,-4.6619,0.0,-4.8491,-4.9353,-5.0671,-5.1546,-5.1608,-5.2221,-5.2945,-5.3819,-5.3895,-5.4172,-5.4938,-5.5042,-5.5057,-5.5057,-5.5057,-5.5042,-5.5,-5.5,-5.5014,-5.5057,-5.5099,-5.5143,-5.5288,-5.5352,-5.5439,-5.5531,-5.5531,-5.5604,-5.566,-5.566,-5.566,-5.566,-5.566,-5.5682,-5.5703,-5.5703,-5.5703,-5.5703,-5.5703,-5.5703,-5.5703,-5.5703,-5.5703,-5.5626,-5.5241,-5.5399,-5.5671,-5.4793,-5.4803,-5.5132,-5.5101,-5.5109,-5.5088,-5.5088,-5.5395,-5.5619,-5.5335,-5.5614,-5.6003,-5.6157,-5.6223,-5.6239,-5.6296,-5.6352,-5.6398,-5.6386,-5.6436,-5.6506,-5.6506,-5.6558,-5.6606,-5.6606,-5.6974,-5.7686,-5.8936,-5.8788,-5.9023,-6.0273,-6.0039,-5.9805,-5.9805,-5.9805,-5.9805,-5.9805,-5.9023,-5.7969,-5.664,-5.6601,-5.66,-5.6597,-5.6592,-5.6783,-5.7213,-5.7205,-5.7439,-5.7836,-5.7833,-5.7833,0.0,0.0,0.0,0.0,0.0,0.0,0.0,0.0,-4.4884,-4.6127,-4.667,-4.7264,-4.8437,-4.8897,-4.9315,-5.0025,-5.0963,-5.1596,-5.1608,-5.2209,-5.2932,-5.3832,-5.3949,-5.424,-5.4952,-5.514,-5.5143,-5.5088,-5.5088,-5.5088,-5.5113,-5.5028,-5.5057,-5.5183,-5.5127,-5.5181,-5.5376,-5.5389,-5.5449,-5.5615,-5.5604,-5.5604,-5.5615,-5.5604,-5.5604,-5.5615,-5.5626,-5.566,-5.5703,-5.5703,-5.5703,-5.5703,-5.5703,-5.5703,-5.5703,-5.5703,-5.5703,-5.5703,-5.5703,-5.5745,-5.5681,-5.4978,-5.5093,-5.545,-5.4901,-5.5101,-5.5511,-5.5665,-5.5703,-5.5735,-5.5875,-5.5932,-5.6029,-5.6157,-5.6238,-5.6298,-5.629,-5.6342,-5.6383,-5.6363,-5.6418,-5.6491,-5.6497,-5.655,-5.656,-5.6604,-5.674,-5.7335,-5.8702,-5.8318,-5.8476,-6.0,-6.0039,-5.9726,-5.9258,-5.9219,-5.8828,-5.7969,-5.789,-5.75,-5.664,-5.6601,-5.66,-5.6599,-5.6591,-5.6935,-5.7561,-5.7705,-5.8172,-5.8843,-5.9187,-5.8994,-4.1485,-4.2824,-4.3863,-4.3154,-4.4045,-4.5285,0.0,0.0,-4.7198,-4.7315,-4.8478,-4.9337,-4.8859,-4.9378,-4.9962,-5.0163,-5.0912,-5.1521,-5.1608,-5.2234,-5.2997,-5.3912,-5.3881,-5.4182,-5.5023,-5.5075,-5.5127,-5.5113,-5.5143,-5.5143,-5.5088,-5.526,-5.53,-5.5197,-5.53,-5.5365,-5.5389,-5.5389,-5.5449,-5.5615,-5.552,-5.552,-5.5615,-5.5558,-5.552,-5.5577,-5.5671,-5.5703,-5.5703,-5.5703,-5.5703,-5.5703,-5.5703,-5.5703,-5.5703,-5.5703,-5.5703,-5.5703,-5.5703,-5.5745,-5.5797,-5.5681,-5.5209,-5.4785,-5.545,-5.5178,-5.478,-5.5511,-5.5703,-5.5735,-5.5875,-5.5932,-5.6029,-5.6157,-5.6238,-5.6291,-5.6298,-5.6329,-5.6314,-5.6319,-5.6368,-5.642,-5.6496,-5.6517,-5.6536,-5.6602,-5.7247,-5.7804,-5.7999,-5.7967,-5.8281,-5.9219,-5.8633,-5.8476,-5.914,-5.9219,-5.8828,-5.7969,-5.789,-5.75,-5.6639,-5.6601,-5.6601,-5.6599,-5.6595,-5.6631,-5.6748,-5.7436,-5.7857,-5.7975,-5.9534,-6.0204,-4.3003,-4.4198,-4.5111,0.0,-4.6108,-4.7136,-4.7794,-4.8186,-4.8536,-4.8922,-4.9188,-4.9227,-4.8909,-4.9149,-4.9441,0.0,-5.0656,-5.1584,-5.1608,-5.2246,-5.2857,-5.32,-5.3187,-5.3693,-5.5029,-5.4764,-5.4739,-5.5235,-5.53,-5.5313,-5.5273,-5.53,-5.5288,-5.5301,-5.5326,-5.539,-5.5535,-5.5535,-5.5543,-5.5671,-5.5649,-5.5604,-5.552,-5.5497,-5.5535,-5.557,-5.5671,-5.5703,-5.5703,-5.5703,-5.5703,-5.5703,-5.5703,-5.5703,-5.5703,-5.5703,-5.5703,-5.5703,-5.5703,-5.5766,-5.5865,-5.5865,-5.5258,-5.4718,-5.5605,-5.5219,-5.4667,-5.5483,-5.5735,-5.5776,-5.5885,-5.5913,-5.5995,-5.6157,-5.6223,-5.6265,-5.6291,-5.6284,-5.6302,-5.6302,-5.6368,-5.642,-5.6437,-5.6475,-5.6503,-5.6553,-5.6893,-5.7335,-5.7843,-5.7459,-5.7461,-5.8359,-5.7656,-5.7695,-5.9062,-5.8281,-5.7734,-5.789,-5.7422,-5.6992,-5.6601,-5.6601,-5.66,-5.6599,-5.6592,-5.7094,-5.8071,-5.8408,-5.8831,-5.9339,-6.0588,-6.0863,-4.4151,0.0,0.0,-4.6681,-4.7626,-4.8547,-4.8947,-4.9197,-4.9496,-5.0049,-4.9504,-4.8895,-4.8953,-4.9002,-4.9002,-4.9022,-5.0294,-5.1365,-5.1582,-5.2068,-5.2501,-5.2717,-5.2564,-5.3099,-5.4727,-5.4422,-5.4435,-5.5301,-5.539,-5.539,-5.5339,-5.5288,-5.5288,-5.5376,-5.5351,-5.5413,-5.5615,-5.5615,-5.5649,-5.5703,-5.5692,-5.5649,-5.557,-5.557,-5.557,-5.552,-5.566,-5.5703,-5.5703,-5.5703,-5.5703,-5.5703,-5.5703,-5.5703,-5.5703,-5.5703,-5.5703,-5.5703,-5.5703,-5.5756,-5.5855,-5.5875,-5.5413,-5.5017,-5.5682,-5.5383,-5.4947,-5.5521,-5.5735,-5.5776,-5.5865,-5.5885,-5.5968,-5.6133,-5.6202,-5.6213,-5.6285,-5.631,-5.629,-5.629,-5.6352,-5.6363,-5.6416,-5.6464,-5.6497,-5.6506,-5.6577,-5.6827,-5.7452,-5.699,-5.6836,-5.7461,-5.6992,-5.7109,-5.8398,-5.7344,-5.6875,-5.75,-5.6953,-5.6601,-5.6601,-5.6601,-5.6716,-5.695,-5.6941,-5.7636,-5.9119,-5.9109,-5.9417,-6.0041,-6.0705,-6.0783,0.0,0.0,-4.6878,-4.6878,-4.8077,-4.9248,-4.9196,-4.9751,-5.0283,-5.0271,-4.9565,-4.8931,-4.9067,-4.9056,-4.9006,-4.91,-4.9865,-5.0723,-5.1505,-5.1608,-5.1938,-5.28,-5.22,-5.2379,0.0,-5.4104,-5.4422,-5.5159,-5.5326,-5.5339,-5.5197,-5.5314,-5.5415,-5.5389,-5.5449,-5.5547,-5.5615,-5.5615,-5.5649,-5.5703,-5.5649,-5.5649,-5.5703,-5.5703,-5.5671,-5.5615,-5.5682,-5.5703,-5.5703,-5.5703,-5.5703,-5.5703,-5.5703,-5.5703,-5.5703,-5.5703,-5.5703,-5.5703,-5.5703,-5.5714,-5.5724,-5.5776,-5.5756,-5.5686,-5.5776,-5.5756,-5.5675,-5.5703,-5.5703,-5.5724,-5.5776,-5.5866,-5.5921,-5.6054,-5.6141,-5.6213,-5.6285,-5.6291,-5.6298,-5.6298,-5.6284,-5.6325,-5.6383,-5.6468,-5.6507,-5.6503,-5.6577,-5.6593,-5.6632,-5.6639,-5.6601,-5.664,-5.6601,-5.6601,-5.668,-5.664,-5.6601,-5.6638,-5.6601,-5.6601,-5.6601,-5.6601,-5.6989,-5.7843,-5.7797,-5.8183,-5.9119,-5.9109,-5.9102,-5.9141,-5.918,-5.9612,-4.6066,0.0,-4.8576,-4.8612,-4.9413,-5.0201,-5.0141,-5.0308,-5.0435,-5.039,-4.9202,-4.8186,-4.8286,-4.7794,-4.7554,-4.8209,-4.9001,-4.982,-5.0673,-5.0729,-5.082,-5.1147,-5.1381,0.0,0.0,0.0,0.0,-5.5082,-5.5326,-5.5365,-5.5352,-5.5402,-5.5425,-5.5508,-5.5531,-5.5615,-5.5682,-5.5682,-5.5682,-5.5703,-5.5649,-5.5626,-5.5649,-5.5649,-5.5638,-5.5577,-5.5682,-5.5703,-5.5703,-5.5703,-5.5703,-5.5703,-5.5703,-5.5703,-5.5703,-5.5703,-5.5703,-5.5703,-5.5703,-5.5703,-5.5714,-5.5776,-5.5391,-5.5034,-5.5633,-5.5391,-5.4909,-5.4906,-5.5312,-5.5651,-5.5093,-5.5413,-5.5923,-5.6084,-5.6157,-5.6216,-5.6278,-5.6291,-5.6291,-5.6291,-5.6284,-5.6319,-5.6397,-5.6407,-5.6461,-5.6475,-5.6543,-5.6595,-5.66,-5.6601,-5.6601,-5.6601,-5.6601,-5.6601,-5.6601,-5.6601,-5.6601,-5.6601,-5.6601,-5.6601,-5.6601,-5.7145,-5.7569,-5.7836,-5.8373,-5.907,-5.9968,-5.9966,-5.9651,-5.9102,-5.969,-5.9495,-4.7264,-4.8424,-4.9499,-4.9864,-5.0308,-5.0692,-5.0632,-5.0312,-5.0029,-4.9986,-4.8613,-4.7406,-4.7437,-4.7016,-4.6891,-4.7761,-4.8603,-4.9444,-5.0286,-5.0321,-5.0362,-5.0726,-5.1166,-5.1891,0.0,0.0,0.0,-5.508,-5.5275,-5.5365,-5.5314,-5.5339,-5.5401,-5.5547,-5.5593,-5.5638,-5.5671,-5.5692,-5.5703,-5.5703,-5.5692,-5.5671,-5.5649,-5.5671,-5.5671,-5.5649,-5.5692,-5.5703,-5.5703,-5.5703,-5.5703,-5.5703,-5.5703,-5.5703,-5.5665,-5.5395,-5.5269,-5.5259,-5.528,-5.5472,-5.5675,-5.5399,-5.515,-5.4996,-5.5237,-5.4929,-5.4447,-5.4157,-5.4667,-5.5227,-5.4669,-5.521,-5.5933,-5.602,-5.6125,-5.618,-5.6258,-5.6272,-5.6278,-5.6291,-5.6284,-5.6308,-5.637,-5.6398,-5.6464,-5.6482,-5.6545,-5.6596,-5.6601,-5.6601,-5.6601,-5.6601,-5.6601,-5.6601,-5.6601,-5.66,-5.66,-5.66,-5.66,-5.6718,-5.7029,-5.7572,-5.8151,-5.8724,-5.8951,-5.9534,-6.0393,-5.9768,-5.9183,-5.8636,-5.8909,-5.8753,-4.7974,-4.8881,-4.972,-5.0529,-5.0712,-5.0654,-5.0566,-4.9862,-4.9255,-4.9179,-4.7864,-4.6742,0.0,0.0,-4.7012,-4.7782,-4.8628,-4.9493,-5.0309,-5.0394,-5.0688,0.0,0.0,0.0,0.0,0.0,0.0,-5.5037,0.0,-5.5249,-5.5197,-5.5288,-5.5352,-5.5376,-5.5508,-5.5604,-5.5566,-5.5671,-5.5703,-5.5714,-5.5766,-5.5766,-5.5714,-5.5766,-5.5756,-5.5703,-5.5703,-5.5703,-5.5703,-5.5703,-5.5703,-5.5703,-5.5703,-5.5703,-5.5588,-5.4857,-5.4517,-5.4397,-5.4413,-5.4972,-5.5511,-5.4741,-5.5011,-5.5483,-5.4716,-5.4475,-5.4252,-5.3465,-5.3859,-5.4483,-5.4467,-5.5171,-5.5924,-5.5986,-5.6046,-5.6102,-5.6185,-5.6199,-5.6213,-5.6285,-5.6284,-5.6308,-5.6308,-5.6398,-5.6514,-5.6482,-5.6545,-5.6595,-5.6599,-5.6601,-5.6601,-5.6601,-5.6601,-5.6601,-5.6599,-5.6599,-5.6597,-5.6594,-5.6636,-5.6992,-5.7771,-5.7963,-5.8774,-6.0354,-5.9573,-5.9573,-6.0393,-5.8675,-5.7855,-5.7777,-5.7035,-5.7504,-4.815,-4.9287,-5.0452,-5.0635,-5.0712,-5.0519,-4.9923,-5.001,-4.9904,-4.8711,-4.8068,-4.7549,0.0,0.0,0.0,-4.767,-4.8618,0.0,-5.0363,-5.096,0.0,-5.1517,0.0,-5.2702,-5.3628,-5.44,0.0,0.0,-5.5085,-5.5208,-5.5249,-5.5313,-5.5326,-5.5301,-5.5389,-5.5413,-5.5402,-5.552,-5.5682,-5.5776,-5.5787,-5.5787,-5.5766,-5.5745,-5.5724,-5.5703,-5.5703,-5.5703,-5.5703,-5.5703,-5.5703,-5.5703,-5.5703,-5.5703,-5.5665,-5.5472,-5.5,-5.4374,-5.3731,-5.4056,-5.4726,-5.4538,-5.4626,-5.4752,-5.4562,-5.4041,-5.3367,-5.2579,-5.3397,-5.4367,-5.3773,-5.4747,-5.5924,-5.5986,-5.6046,-5.6102,-5.6185,-5.6199,-5.6213,-5.6285,-5.6341,-5.6375,-5.6375,-5.6437,-5.65,-5.6511,-5.6546,-5.6597,-5.6595,-5.66,-5.6601,-5.66,-5.66,-5.66,-5.6599,-5.6597,-5.6596,-5.6598,-5.7224,-5.7656,-5.7885,-5.9092,-5.9945,-6.0393,-6.0198,-6.0198,-6.0393,-5.93,-5.8441,-5.7816,-5.7582,-5.7738,-4.8037,-4.9124,-5.0269,-5.0596,-5.0414,-4.9971,-4.9085,-4.8913,-4.8596,-4.7314,-4.7062,0.0,0.0,0.0,0.0,0.0,0.0,0.0,-5.0347,-5.1207,-5.1802,0.0,-5.2743,0.0,-5.4177,-5.479,-5.5099,0.0,-5.5042,-5.514,-5.5181,-5.5181,-5.5195,-5.5197,-5.5262,-5.5314,-5.5326,-5.5476,-5.5593,-5.5714,-5.5714,-5.5735,-5.5756,-5.5724,-5.5703,-5.5703,0.0,-5.5703,-5.5703,-5.5703,-5.5703,-5.5703,-5.5703,-5.5472,-5.5164,-5.5164,-5.4664,-5.3857,-5.3356,-5.349,-5.3815,-5.3462,-5.3895,-5.4367,-5.3668,-5.335,-5.3022,-5.1799,-5.2936,-5.4331,-5.3543,-5.4612,-5.5924,-5.5986,-5.6029,-5.607,-5.6194,-5.6216,-5.6231,-5.6285,-5.6335,-5.6375,-5.6386,-5.6429,-5.6482,-5.6494,-5.6532,-5.6588,-5.6584,-5.6598,-5.6601,-5.6597,-5.6598,-5.6598,-5.6594,-5.6593,-5.675,-5.7143,-5.7614,-5.8242,-5.8979,-5.9917,-6.0575,-6.0954,-6.0208,-5.9816,-5.9816,-5.8599,-5.7738,-5.727,-5.727,-5.766,-4.7722,-4.8691,-4.9643,-5.0221,-4.9932,-4.9181,-4.8037,-4.7373,-4.6719,-4.5659,0.0,-4.5835,-4.5646,-4.562,-4.6115,-4.7712,0.0,-4.8729,-5.0291,-5.1212,-5.1962,-5.269,-5.3391,-5.4112,-5.4836,-5.5099,-5.5116,-5.5,-5.5071,-5.5085,-5.5,-5.5,-5.5042,-5.5113,-5.513,-5.5223,-5.5402,-5.5402,-5.5437,-5.5615,-5.5626,-5.566,-5.5703,-5.5703,-5.5703,-5.5703,-5.5703,-5.5703,-5.5703,-5.5703,-5.5703,-5.5703,-5.5703,-5.5203,-5.4511,-5.4626,-5.3972,-5.3038,-5.3154,-5.3126,-5.2933,-5.2279,-5.301,-5.3916,-5.252,-5.2598,-5.2839,-5.1391,-5.2684,-5.4391,-5.3753,-5.4757,-5.5933,-5.5986,-5.6012,-5.6029,-5.6157,-5.618,-5.617,-5.6123,-5.6245,-5.6319,-5.623,-5.632,-5.6445,-5.6478,-5.6511,-5.6528,-5.6606,-5.6594,-5.66,-5.6593,-5.6596,-5.6595,-5.6585,-5.6706,-5.7101,-5.7844,-5.8121,-5.8867,-6.035,-6.0505,-6.0856,-6.1514,-5.9947,-5.9044,-5.8927,-5.7354,-5.6606,-5.6606,-5.6606,-5.7504,-4.7068,-4.824,-4.9298,-4.8748,-4.9047,-4.8854,-4.6612,-4.713,0.0,0.0,-4.5834,-4.6629,-4.588,-4.5712,0.0,-4.7965,0.0,0.0,0.0,0.0,-5.2045,0.0,0.0,0.0,0.0,0.0,0.0,0.0,0.0,-5.5085,-5.5,-5.5,-5.5042,-5.5113,-5.5,-5.5071,-5.5301,-5.5339,-5.5401,-5.5615,-5.5671,-5.5692,-5.5703,-5.5703,-5.5703,-5.5703,-5.5703,0.0,-5.5703,-5.5703,-5.5703,-5.5703,-5.5703,-5.5203,-5.4587,-5.5241,-5.4017,-5.2141,-5.2913,-5.2741,-5.2241,-5.2829,-5.2733,-5.2299,-5.2141,-5.2162,-5.2184,-5.1927,-5.3193,-5.4564,-5.4494,-5.5237,-5.598,-5.5995,-5.6012,-5.602,-5.6117,-5.6141,-5.6005,-5.5353,-5.5835,-5.6147,-5.5452,-5.5983,-5.6496,-5.6517,-5.6511,-5.6528,-5.6606,-5.6587,-5.6593,-5.6585,-5.6585,-5.6588,-5.6591,-5.7256,-5.7728,-5.7887,-5.9218,-6.0117,-6.0389,-6.1091,-6.1207,-6.0653,-5.9638,-5.8737,-5.8027,-5.7088,-5.6614,-5.6606,-5.6606,-5.7504,-4.726,-4.7797,-4.8132,-4.8188,-4.8141,-4.7679,-4.6064,0.0,0.0,0.0,-4.5532,-4.631,-4.5884,0.0,0.0,0.0,0.0,0.0,0.0,0.0,0.0,0.0,0.0,0.0,0.0,0.0,0.0,0.0,0.0,-5.5071,-5.4941,-5.4985,-5.5014,-5.5057,-5.5028,-5.5099,-5.5236,-5.5236,-5.5314,-5.5511,-5.5547,-5.5543,-5.5615,-5.5682,-5.5692,-5.566,-5.5724,-5.5735,-5.5703,-5.5703,-5.5703,-5.5703,-5.5703,-5.4934,-5.3933,-5.478,-5.372,-5.197,-5.2885,-5.2636,-5.2021,-5.2531,-5.2377,-5.1953,-5.1589,-5.2043,-5.2557,-5.1713,-5.3026,-5.4446,-5.3584,-5.3971,-5.4675,-5.4688,-5.5062,-5.528,-5.4878,-5.5171,-5.5267,-5.4472,-5.504,-5.5553,-5.518,-5.5458,-5.5775,-5.5815,-5.5444,-5.5187,-5.5238,-5.564,-5.5917,-5.5911,-5.592,-5.6121,-5.6549,-5.7414,-5.8277,-5.9138,-5.996,-6.039,-6.039,-6.0781,-6.0624,-5.9802,-5.8939,-5.8271,-5.7838,-5.7008,-5.661,-5.6606,-5.6606,-5.7504,-4.7249,-4.7237,-4.7032,-4.7542,-4.7264,-4.6656,-4.5671,-4.5587,0.0,0.0,-4.517,-4.58,-4.5793,0.0,0.0,0.0,0.0,0.0,0.0,0.0,0.0,0.0,0.0,0.0,0.0,0.0,0.0,0.0,0.0,0.0,-5.492,-5.4956,-5.5014,-5.5028,-5.5085,-5.5168,-5.5248,-5.5197,-5.5249,-5.5402,-5.5415,-5.5413,-5.5461,-5.5615,-5.5649,-5.5626,-5.5714,-5.5735,-5.5703,-5.5703,-5.5703,-5.5665,-5.5511,-5.4511,-5.328,-5.3972,-5.3115,-5.1759,-5.2615,-5.2386,-5.1693,-5.1797,-5.1815,-5.1708,-5.1112,-5.1932,-5.285,-5.1537,-5.2743,-5.4173,-5.2966,-5.3168,-5.3726,-5.376,-5.4149,-5.4367,-5.3708,-5.4117,-5.44,-5.3553,-5.4116,-5.4719,-5.4552,-5.4699,-5.4857,-5.4918,-5.4339,-5.3922,-5.3986,-5.4615,-5.5007,-5.5009,-5.5375,-5.5848,-5.655,-5.7417,-5.8553,-6.0038,-6.0312,-6.039,-6.039,-6.039,-5.9922,-5.8945,-5.824,-5.7806,-5.7608,-5.6932,-5.661,-5.6606,-5.6606,-5.7385,-4.6078,-4.639,-4.6758,-4.6069,-4.6429,-4.6497,-4.497,0.0,0.0,-4.4685,-4.517,-4.5793,-4.5795,-4.5771,0.0,0.0,0.0,0.0,0.0,0.0,0.0,0.0,0.0,0.0,0.0,0.0,0.0,0.0,0.0,0.0,-5.492,-5.4956,-5.5028,-5.5099,-5.5113,-5.5181,-5.539,-5.5261,-5.5261,-5.5403,-5.539,-5.5389,-5.5401,-5.5511,-5.557,-5.5615,-5.5626,-5.566,0.0,-5.5703,-5.5703,-5.5626,-5.4895,-5.4049,-5.3203,-5.328,-5.221,-5.0824,-5.1721,-5.1433,-5.077,-5.0862,-5.0936,-5.0906,-5.0913,-5.1523,-5.2194,-5.2039,-5.2768,-5.3752,-5.4297,-5.4585,-5.465,-5.4697,-5.4125,-5.3583,-5.3544,-5.3608,-5.3473,-5.2581,-5.3243,-5.3664,-5.2879,-5.3414,-5.3922,-5.4021,-5.3949,-5.3922,-5.3986,-5.4068,-5.4112,-5.412,-5.5528,-5.651,-5.6598,-5.742,-5.8319,-5.9258,-6.0,-6.039,-6.039,-6.039,-5.9648,-5.8047,-5.793,-5.7499,-5.671,-5.6631,-5.6584,-5.6606,-5.6606,-5.7068,-4.6378,-4.6257,-4.5991,-4.5761,-4.5873,-4.5923,-4.5348,0.0,0.0,-4.5326,-4.5578,-4.58,-4.5786,-4.5817,-4.5926,0.0,0.0,0.0,0.0,0.0,0.0,0.0,0.0,0.0,0.0,0.0,0.0,0.0,0.0,0.0,-5.492,-5.5,-5.5113,-5.5143,-5.5222,-5.5313,-5.5403,-5.5339,-5.5339,-5.5403,-5.539,-5.5403,-5.5403,-5.5476,-5.5473,-5.5511,-5.5626,-5.5391,0.0,-5.5462,-5.5395,-5.4972,-5.5164,-5.4395,-5.3203,-5.3203,-5.2115,-5.0711,-5.1038,-5.0952,-5.0682,-5.072,-5.0756,-5.0799,-5.0874,-5.1476,-5.2005,-5.149,-5.2,-5.2726,-5.3044,-5.3194,-5.3219,-5.3194,-5.294,-5.2569,-5.2034,-5.2407,-5.2577,-5.1685,-5.2731,-5.3656,-5.3352,-5.4012,-5.4397,-5.3931,-5.3419,-5.3133,-5.3147,-5.363,-5.4191,-5.4715,-5.5418,-5.6046,-5.656,-5.7382,-5.8281,-5.914,-5.9492,-5.9453,-5.8906,-5.8906,-5.832,-5.7148,-5.7108,-5.6948,-5.6593,-5.6584,-5.6614,-5.6606,-5.6606,-5.7033,-4.6882,-4.663,-4.6317,-4.6433,-4.6198,-4.5941,0.0,0.0,0.0,-4.5758,-4.5771,-4.58,-4.5778,-4.581,-4.5781,0.0,0.0,0.0,0.0,0.0,0.0,0.0,0.0,0.0,0.0,0.0,0.0,0.0,0.0,0.0,-5.4985,-5.5071,-5.5102,-5.5157,-5.5313,-5.5403,-5.5403,-5.5403,-5.5403,-5.5403,-5.5135,-5.5135,-5.5403,-5.5197,-5.5195,-5.5463,-5.5581,-5.5165,0.0,-5.5325,-5.5231,-5.4549,-5.5126,-5.4626,-5.351,-5.301,-5.2087,-5.101,-5.0789,-5.0693,-5.0682,-5.071,-5.0767,-5.0794,-5.0866,-5.1266,-5.1592,-5.0992,-5.1601,-5.2412,-5.2146,-5.2343,-5.2522,-5.218,-5.1965,-5.1633,-5.1043,-5.1641,-5.2128,-5.1509,-5.262,-5.3625,-5.3452,-5.3908,-5.4129,-5.3497,-5.2738,-5.2383,-5.2935,-5.3584,-5.431,-5.5226,-5.5537,-5.5931,-5.6562,-5.7148,-5.789,-5.875,-5.8828,-5.8555,-5.793,-5.789,-5.75,-5.6601,-5.6599,-5.6594,-5.6593,-5.6619,-5.6608,-5.6606,-5.6606,-5.7033,-4.7287,-4.7618,-4.8176,-4.8265,-4.7576,-4.6904,0.0,0.0,0.0,-4.5696,-4.5749,-4.5778,-4.5704,-4.5757,-4.5764,-4.5602,0.0,0.0,0.0,0.0,0.0,0.0,0.0,0.0,0.0,0.0,0.0,0.0,0.0,0.0,-5.5183,-5.5154,-5.5113,-5.5075,-5.5286,-5.5403,-5.5403,-5.5403,-5.5403,-5.5403,-5.4524,-5.4562,-5.5365,-5.4524,-5.4637,-5.5511,-5.5413,-5.5075,0.0,-5.5292,-5.5149,-5.4511,-5.4511,-5.4511,-5.428,-5.2538,-5.1885,-5.1769,-5.0971,-5.0712,-5.0731,-5.0785,-5.0758,-5.075,-5.085,-5.0841,-5.0812,-5.072,-5.1933,-5.3106,-5.2301,-5.2807,-5.3265,-5.2414,-5.1525,-5.0929,-5.0888,-5.1641,-5.2283,-5.2291,-5.3053,-5.3463,-5.263,-5.2525,-5.2508,-5.2519,-5.183,-5.1941,-5.367,-5.3935,-5.431,-5.5226,-5.6079,-5.6591,-5.6601,-5.6601,-5.6992,-5.7851,-5.789,-5.789,-5.789,-5.789,-5.75,-5.6601,-5.6601,-5.6597,-5.6593,-5.6585,-5.6616,-5.6606,-5.6606,-5.7026,-4.6198,-4.624,-4.6385,-4.6437,-4.6236,-4.6022,-4.6113,0.0,0.0,0.0,-4.5788,-4.5795,-4.5773,-4.5788,-4.5966,-4.6411,0.0,0.0,0.0,0.0,0.0,0.0,0.0,0.0,0.0,0.0,0.0,0.0,0.0,0.0,-5.5,-5.5071,-5.5102,-5.5157,-5.5313,-5.5403,-5.5403,-5.5403,-5.5097,-5.4524,-5.4218,-5.4256,-5.4486,-5.4218,-5.4587,-5.5428,-5.5415,-5.4683,-5.3585,-5.4898,-5.4725,-5.3731,-5.477,-5.4908,-5.4434,-5.3895,-5.2933,-5.1846,-5.1625,-5.1164,-5.0712,-5.0712,-5.0721,-5.0721,-5.0749,-5.074,-5.0721,-5.0692,-5.1971,-5.329,-5.3,-5.3215,-5.3567,-5.3842,-5.2815,-5.1942,-5.2473,-5.2925,-5.3181,-5.3143,-5.3868,-5.4433,-5.4239,-5.469,-5.4908,-5.4302,-5.407,-5.416,-5.4713,-5.4867,-5.5207,-5.6117,-5.6427,-5.6824,-5.7459,-5.6952,-5.6951,-5.7847,-5.7342,-5.6991,-5.6991,-5.6991,-5.6875,-5.6601,-5.6597,-5.6593,-5.6585,-5.6616,-5.6608,-5.6606,-5.6558,-5.6662,0.0,-4.6348,-4.6509,-4.66,-4.6378,0.0,0.0,0.0,0.0,0.0,0.0,0.0,0.0,0.0,0.0,0.0,0.0,0.0,0.0,0.0,0.0,0.0,0.0,0.0,0.0,0.0,0.0,0.0,0.0,0.0,-5.4927,-5.5042,-5.5102,-5.5143,-5.5313,-5.5403,-5.5403,-5.5059,-5.4639,-5.4104,-5.3454,-5.3492,-5.4104,-5.376,-5.4269,-5.5403,-5.5352,-5.4611,0.0,-5.4828,-5.4647,-5.3711,-5.4998,-5.5224,-5.4792,-5.422,-5.3318,-5.2308,-5.1664,-5.1125,-5.0712,-5.0693,-5.073,-5.0797,-5.1097,-5.0952,-5.0721,-5.0682,-5.201,-5.329,-5.2922,-5.3409,-5.4031,-5.4199,-5.3442,-5.2832,-5.3348,-5.3777,-5.4057,-5.4049,-5.4752,-5.5306,-5.5042,-5.5455,-5.5629,-5.5097,-5.483,-5.4968,-5.5599,-5.5452,-5.5634,-5.6502,-5.6618,-5.6933,-5.7805,-5.7104,-5.683,-5.7374,-5.691,-5.6599,-5.6599,-5.66,-5.6601,-5.6599,-5.6596,-5.6589,-5.6582,-5.661,-5.6606,-5.6606,-5.6558,-5.6698,0.0,-4.7461,-4.8022,-4.8103,-4.7524,-4.6915,0.0,0.0,0.0,0.0,0.0,0.0,0.0,0.0,0.0,0.0,0.0,0.0,0.0,0.0,0.0,0.0,0.0,0.0,0.0,0.0,0.0,0.0,0.0,0.0,-5.5,-5.5085,-5.5088,-5.5012,-5.5223,-5.5326,-5.539,-5.4486,-5.4027,-5.3989,-5.2384,-5.2461,-5.3989,-5.3148,-5.3759,0.0,-5.5224,-5.4804,-5.4338,-5.4893,-5.4766,-5.4266,-5.5092,-5.5435,-5.5305,-5.3766,-5.3192,-5.2972,-5.1356,-5.075,-5.0721,-5.073,-5.0776,-5.1005,-5.1731,-5.1337,-5.0731,-5.0692,-5.2019,-5.3222,-5.2417,-5.3503,-5.4619,-5.3846,-5.3614,-5.3614,-5.3652,-5.431,-5.4923,-5.497,-5.5644,-5.5976,-5.523,-5.5087,-5.51,-5.5097,-5.4504,-5.4675,-5.6297,-5.584,-5.5712,-5.6502,-5.6612,-5.6883,-5.7635,-5.7018,-5.6631,-5.667,-5.6636,-5.6599,-5.6599,-5.6601,-5.6601,-5.6599,-5.6595,-5.6588,-5.658,-5.661,-5.6606,-5.6606,-5.6604,-5.698,-4.5851,0.0,-4.6236,-4.6287,-4.618,-4.5995,0.0,0.0,0.0,0.0,0.0,0.0,0.0,0.0,0.0,0.0,0.0,0.0,0.0,0.0,0.0,0.0,0.0,0.0,0.0,0.0,0.0,0.0,0.0,-5.4985,-5.5,-5.5088,-5.489,-5.428,-5.4358,-5.469,-5.5248,-5.3811,-5.311,-5.3072,-5.2079,-5.2117,-5.311,-5.2881,-5.3772,-5.5352,-5.4715,-5.4345,-5.4141,-5.4295,-5.4256,-5.4116,-5.4282,-5.4828,-5.5293,-5.364,-5.3129,-5.3049,-5.201,-5.1202,-5.0721,-5.0776,-5.1236,-5.1708,-5.131,-5.0975,-5.0785,-5.0794,-5.2026,-5.3344,-5.3202,-5.3992,-5.489,-5.5316,-5.4929,-5.4658,-5.5277,-5.5612,-5.5807,-5.5862,-5.6047,-5.616,-5.6013,-5.5981,-5.6,-5.6058,-5.5906,-5.5992,-5.6432,-5.6344,-5.6324,-5.6569,-5.6606,-5.6684,-5.6883,-5.6698,-5.6855,-5.7473,-5.6935,-5.6589,-5.6595,-5.6599,-5.6601,-5.6595,-5.6582,-5.6612,-5.661,-5.6606,-5.6606,-5.6606,-5.6555,-5.662,-4.5594,-4.5612,-4.5667,-4.5667,-4.5662,-4.5695,-4.5695,0.0,0.0,0.0,0.0,0.0,0.0,0.0,0.0,0.0,0.0,0.0,0.0,0.0,0.0,0.0,0.0,0.0,0.0,0.0,0.0,0.0,0.0,-5.5071,-5.5113,-5.48,-5.4459,-5.4001,-5.334,-5.3506,-5.4664,-5.306,-5.2422,-5.2805,-5.1582,-5.1429,-5.227,-5.2614,-5.3531,-5.4791,-5.4295,-5.4333,-5.4664,-5.418,-5.4014,-5.4014,-5.404,-5.4091,-5.4026,-5.2866,-5.2483,-5.241,-5.1605,-5.1337,-5.1453,-5.226,-5.2596,-5.2605,-5.2177,-5.2022,-5.1812,-5.1039,-5.2099,-5.3439,-5.3489,-5.4155,-5.5006,-5.5818,-5.5664,-5.547,-5.5896,-5.6029,-5.6062,-5.6141,-5.6187,-5.6223,-5.6265,-5.6285,-5.6317,-5.6381,-5.6412,-5.6416,-5.6475,-5.6497,-5.6514,-5.6604,-5.6606,-5.6606,-5.6606,-5.661,-5.6807,-5.7231,-5.6854,-5.6589,-5.6593,-5.66,-5.66,-5.6588,-5.6614,-5.6606,-5.6606,-5.6606,-5.6606,-5.6604,-5.6514,-5.65,-4.5402,-4.5475,-4.55,-4.5402,-4.5513,-4.5602,-4.5492,0.0,0.0,0.0,0.0,0.0,0.0,0.0,0.0,0.0,0.0,0.0,0.0,0.0,0.0,0.0,0.0,0.0,0.0,0.0,0.0,0.0,0.0,-5.4964,-5.4993,-5.4243,-5.3747,-5.3633,-5.2309,-5.227,-5.3683,-5.2193,-5.1888,-5.2766,-5.1085,-5.0779,-5.162,-5.2422,-5.3263,-5.4104,0.0,0.0,-5.511,-5.4166,-5.3718,-5.3666,-5.3684,-5.3251,-5.2526,-5.1978,-5.1826,-5.1826,-5.1288,-5.1665,-5.2608,-5.3966,-5.4033,-5.3588,-5.3469,-5.3516,-5.3284,-5.1738,-5.2434,-5.3602,-5.3674,-5.434,-5.5161,-5.5849,-5.6003,-5.6012,-5.6012,-5.6012,-5.602,-5.6109,-5.6149,-5.6194,-5.6192,-5.6272,-5.6317,-5.6381,-5.6407,-5.6411,-5.6471,-5.6494,-5.6509,-5.6563,-5.6604,-5.6606,-5.6606,-5.6606,-5.6606,-5.6606,-5.6584,-5.6593,-5.6596,-5.6601,-5.6595,-5.6619,-5.6612,-5.6606,-5.6606,-5.6606,-5.6606,-5.6604,-5.6511,-5.6497,-4.4509,-4.4575,-4.4638,-4.4447,-4.4949,-4.5274,0.0,0.0,0.0,0.0,0.0,0.0,0.0,0.0,0.0,0.0,0.0,0.0,0.0,0.0,0.0,0.0,0.0,0.0,0.0,0.0,0.0,0.0,0.0,-5.4112,-5.4179,-5.3404,-5.2678,-5.1978,-5.1723,-5.1735,-5.199,-5.1009,-5.1276,-5.2766,-5.1085,-5.0779,-5.162,-5.2422,-5.3263,-5.4104,0.0,-5.418,-5.4129,-5.339,-5.2908,-5.2634,-5.2043,-5.2132,-5.2513,-5.1814,-5.2062,-5.2785,-5.2815,-5.3427,-5.413,-5.3628,-5.4001,-5.4448,-5.3721,-5.3992,-5.4379,-5.3373,-5.3837,-5.4564,-5.4529,-5.5165,-5.584,-5.5959,-5.6016,-5.6012,-5.6012,-5.6012,-5.602,-5.6109,-5.6149,-5.6194,-5.6192,-5.6272,-5.6317,-5.6381,-5.6391,-5.6422,-5.6492,-5.6514,-5.6494,-5.6509,-5.656,-5.6606,-5.6606,-5.6606,-5.6606,-5.6606,-5.6616,-5.6594,-5.6601,-5.6597,-5.6588,-5.6608,-5.6616,-5.6614,-5.6606,-5.6528,-5.6528,-5.6604,-5.6539,-5.6494,-4.4316,-4.4383,-4.4453,-4.4237,-4.4881,-4.5274,0.0,0.0,0.0,0.0,0.0,0.0,0.0,0.0,0.0,0.0,0.0,0.0,0.0,0.0,0.0,0.0,0.0,0.0,0.0,0.0,0.0,0.0,0.0,0.0,-5.3366,-5.2589,-5.1964,-5.1608,-5.1162,-5.1123,-5.1608,-5.0741,-5.0932,-5.2155,-5.0894,-5.0512,-5.0932,-5.2231,-5.2791,-5.2815,0.0,-5.3441,-5.3339,-5.2487,-5.2056,-5.1876,-5.1535,-5.1598,-5.1927,-5.2145,-5.2583,-5.3125,-5.3671,-5.4159,-5.4525,-5.4167,-5.4375,-5.4542,-5.3188,-5.342,-5.3923,-5.3033,-5.3768,-5.4766,-5.4714,-5.5011,-5.5453,-5.5912,-5.6016,-5.6012,-5.6012,-5.6012,-5.6012,-5.6037,-5.6133,-5.6187,-5.6202,-5.6258,-5.6317,-5.6381,-5.6391,-5.6417,-5.6484,-5.651,-5.6488,-5.6506,-5.6558,-5.6606,-5.6606,-5.6606,-5.661,-5.6582,-5.6587,-5.6597,-5.66,-5.6598,-5.6593,-5.6584,-5.6582,-5.6618,-5.6614,-5.6523,-5.6516,-5.6555,-5.6524,-5.6517,-4.4201,-4.4089,-4.3866,-4.4122,0.0,0.0,0.0,0.0,0.0,0.0,0.0,0.0,0.0,0.0,0.0,0.0,0.0,0.0,0.0,0.0,0.0,0.0,0.0,0.0,0.0,0.0,0.0,0.0,0.0,0.0,-5.2537,-5.1735,-5.1314,-5.1314,-5.0665,-5.0627,-5.1314,-5.0627,-5.0741,-5.157,-5.0741,-5.0283,-5.0359,-5.1849,-5.2217,-5.1729,-5.2485,-5.2714,-5.2559,-5.1801,-5.1332,-5.1129,-5.1319,-5.1636,-5.2041,-5.2819,-5.3322,-5.3739,-5.444,-5.4649,-5.4583,-5.4687,-5.4615,-5.4233,-5.2917,-5.2956,-5.3343,-5.2685,-5.3459,-5.4534,-5.4675,-5.474,-5.4998,-5.5796,-5.6016,-5.6012,-5.6012,-5.6012,-5.6012,-5.6012,-5.6117,-5.6218,-5.6218,-5.6245,-5.6317,-5.637,-5.6386,-5.6412,-5.6472,-5.65,-5.6485,-5.65,-5.6553,-5.6565,-5.6608,-5.661,-5.6618,-5.6594,-5.6595,-5.6599,-5.66,-5.6599,-5.6596,-5.6591,-5.6585,-5.658,-5.6618,-5.6521,-5.6511,-5.6506,-5.651,-5.6503,-4.3893,-4.3073,-4.2185,-4.3785,0.0,0.0,0.0,0.0,0.0,0.0,0.0,0.0,0.0,0.0,0.0,0.0,0.0,0.0,0.0,0.0,0.0,0.0,0.0,0.0,0.0,0.0,0.0,0.0,0.0,0.0,-5.1684,-5.0856,-5.0397,-5.0397,-5.0321,-5.0321,-5.0397,-5.0321,-5.0741,-5.157,-5.0741,-5.0283,-5.0321,-5.1276,-5.1658,-5.1658,-5.2461,-5.2384,-5.1697,-5.1547,-5.0989,-5.0279,-5.1091,-5.2386,-5.3824,-5.3964,-5.4536,-5.5272,-5.5533,-5.5119,-5.4525,-5.4669,-5.419,-5.3575,-5.342,-5.3459,-5.3498,-5.342,-5.3498,-5.376,-5.4521,-5.474,-5.4998,-5.5796,-5.6016,-5.6012,-5.6012,-5.6012,-5.6012,-5.6012,-5.6117,-5.6218,-5.6218,-5.6245,-5.6304,-5.6302,-5.637,-5.6402,-5.6393,-5.6472,-5.6503,-5.6482,-5.65,-5.6519,-5.6579,-5.658,-5.6588,-5.6599,-5.6599,-5.6601,-5.6599,-5.6596,-5.6591,-5.6582,-5.6582,-5.6616,-5.6606,-5.6526,-5.648,-5.6506,-5.651,-5.6503,-4.3239,-4.3071,-4.3002,-4.4654,0.0,0.0,0.0,0.0,0.0,0.0,0.0,0.0,0.0,0.0,0.0,0.0,0.0,0.0,0.0,0.0,0.0,0.0,0.0,0.0,0.0,0.0,0.0,0.0,0.0,0.0,-5.0818,-5.0474,-5.0283,-5.0283,-5.0283,-5.0283,-5.0283,-5.0283,-5.0474,-5.0779,-5.0474,-5.0283,-5.0321,-5.12,-5.1326,-5.0903,-5.1708,-5.1594,-5.0864,-5.0732,-5.0785,-5.1104,-5.2488,-5.339,-5.3962,-5.4027,-5.4282,-5.4612,-5.4733,-5.4304,-5.3755,-5.3821,-5.3323,-5.2569,-5.2066,-5.1873,-5.1873,-5.1873,-5.1873,-5.2321,-5.4211,-5.474,-5.4998,-5.5796,-5.6016,-5.6012,-5.6012,-5.6012,-5.602,-5.6046,-5.6141,-5.6187,-5.6209,-5.6258,-5.6304,-5.6302,-5.637,-5.6402,-5.6388,-5.6468,-5.6496,-5.6503,-5.6491,-5.6519,-5.658,-5.6587,-5.6593,-5.6599,-5.6597,-5.6599,-5.6601,-5.6601,-5.6601,-5.6595,-5.6591,-5.6585,-5.6616,-5.6523,-5.6509,-5.6491,-5.6507,-5.6496,-4.2753,-4.2629,-4.2659,0.0,0.0,0.0,0.0,0.0,0.0,0.0,0.0,0.0,0.0,0.0,0.0,0.0,0.0,0.0,0.0,0.0,0.0,0.0,0.0,0.0,0.0,0.0,0.0,0.0,0.0,0.0,0.0,-5.0283,-5.0283,-5.0283,-5.0283,-5.0283,-5.0283,-5.0283,-5.0283,-5.0283,-5.0283,-5.0283,-5.0321,-5.0932,-5.0868,-5.0417,-5.0944,-5.0879,-5.0367,-5.0541,-5.1255,-5.2374,-5.3226,-5.3695,-5.391,-5.367,-5.376,-5.4091,-5.4178,-5.3777,-5.3224,-5.3292,-5.261,-5.1679,-5.1091,-5.0898,-5.0898,-5.0898,-5.0898,-5.1354,-5.3378,-5.413,-5.4611,-5.5409,-5.5784,-5.6012,-5.6012,-5.6012,-5.602,-5.6109,-5.6149,-5.6194,-5.6192,-5.6272,-5.6304,-5.6284,-5.6353,-5.6386,-5.6412,-5.645,-5.648,-5.65,-5.6491,-5.6521,-5.6584,-5.6591,-5.6595,-5.6599,-5.6596,-5.6597,-5.6601,-5.6601,-5.6601,-5.6598,-5.6593,-5.6587,-5.6616,-5.6563,-5.6503,-5.6482,-5.651,-5.6496,-4.2501,-4.1514,-4.0667,0.0,0.0,0.0,0.0,0.0,0.0,0.0,0.0,0.0,0.0,0.0,0.0,0.0,0.0,0.0,0.0,0.0,0.0,0.0,0.0,0.0,0.0,0.0,0.0,0.0,0.0,0.0,0.0,-5.0283,-5.0283,-5.0283,-5.0283,-5.0283,-5.0283,-5.0283,-5.0283,-5.0283,-5.0283,-5.0283,-5.0283,-5.0283,-5.0283,-5.0283,-5.0283,-5.0321,-5.0397,-5.1204,-5.2488,-5.39,-5.2983,-5.3187,-5.3849,-5.2945,-5.3187,-5.3989,-5.4166,-5.3694,-5.3115,-5.3234,-5.2215,-5.0898,-5.0898,-5.0898,-5.0898,-5.0898,-5.0898,-5.1091,-5.195,-5.284,-5.3683,-5.4491,-5.5367,-5.6012,-5.6012,-5.6012,-5.602,-5.6109,-5.6149,-5.6194,-5.6192,-5.6272,-5.6291,-5.6291,-5.6284,-5.6314,-5.6386,-5.6412,-5.642,-5.6478,-5.6497,-5.6523,-5.6591,-5.6593,-5.6595,-5.6599,-5.6596,-5.6597,-5.6601,-5.6601,-5.6601,-5.6593,-5.6587,-5.6616,-5.6606,-5.6606,-5.6553,-5.6482,-5.6482,-5.6503,-4.1701,-4.1561,0.0,0.0,0.0,0.0,0.0,0.0,0.0,0.0,0.0,0.0,0.0,0.0,0.0,0.0,0.0,0.0,0.0,0.0,0.0,0.0,0.0,0.0,0.0,0.0,0.0,0.0,0.0,0.0,0.0,-5.0283,-5.0283,-5.0283,-5.0283,-5.0283,-5.0283,-5.0283,-5.0283,-5.0283,-5.0283,-5.0283,-5.0283,-5.0283,-5.0344,-5.0379,-5.0333,-5.065,-5.1373,-5.2766,-5.3251,-5.3124,-5.3454,-5.3326,-5.2903,-5.2677,-5.2779,-5.311,-5.3811,-5.3195,-5.2242,-5.2931,-5.2088,-5.0825,-5.0888,-5.0921,-5.0898,-5.0898,-5.0898,-5.0967,-5.1214,-5.191,-5.2915,-5.4401,-5.5384,-5.6012,-5.6012,-5.6037,-5.6109,-5.6157,-5.6194,-5.6192,-5.6272,-5.6285,-5.6291,-5.6291,-5.6284,-5.6325,-5.6373,-5.6441,-5.6476,-5.6517,-5.6488,-5.6548,-5.6584,-5.6585,-5.6591,-5.6599,-5.6596,-5.6594,-5.6597,-5.6597,-5.6601,-5.6598,-5.6593,-5.6584,-5.6606,-5.6606,-5.6553,-5.6482,-5.6482,-5.651,-4.0901,0.0,0.0,0.0,0.0,0.0,0.0,0.0,0.0,0.0,0.0,0.0,0.0,0.0,0.0,0.0,0.0,0.0,0.0,0.0,0.0,0.0,0.0,0.0,0.0,0.0,0.0,0.0,0.0,0.0,0.0,-5.0283,-5.0283,-5.0283,-5.0283,-5.0283,-5.0283,-5.0283,-5.0283,-5.0283,-5.0283,-5.0294,-5.0356,-5.0356,-5.0367,-5.0401,-5.0711,-5.1553,-5.2712,-5.3289,-5.3391,-5.32,-5.2996,-5.2536,-5.2012,-5.1673,-5.1788,-5.2208,-5.2806,-5.2408,-5.1804,-5.2427,-5.177,-5.0764,-5.088,-5.0913,-5.0921,-5.0898,-5.0898,-5.0898,-5.0913,-5.1507,-5.2473,-5.3889,-5.4865,-5.5608,-5.5952,-5.6054,-5.6133,-5.6194,-5.6185,-5.6213,-5.6285,-5.6291,-5.6291,-5.6291,-5.6335,-5.6342,-5.6383,-5.645,-5.6519,-5.6507,-5.6517,-5.65,-5.6573,-5.6582,-5.6589,-5.6594,-5.6595,-5.6594,-5.6589,-5.6594,-5.66,-5.6599,-5.6596,-5.6585,-5.6606,-5.6606,-5.6553,-5.6482,-5.6482,-5.6709,0.0,0.0,0.0,0.0,0.0,0.0,0.0,0.0,0.0,0.0,0.0,0.0,0.0,0.0,0.0,0.0,0.0,0.0,0.0,0.0,0.0,0.0,0.0,0.0,0.0,0.0,0.0,0.0,0.0,0.0,0.0,-5.0283,-5.0283,-5.0283,-5.0283,-5.0283,-5.0333,-5.0283,-5.0283,-5.0333,-5.0333,-5.0356,-5.0401,-5.0401,-5.0439,-5.0554,-5.1534,-5.2712,-5.3913,-5.315,-5.32,-5.3607,-5.1952,-5.1239,-5.1087,-5.0379,-5.0659,-5.1408,-5.1548,-5.1644,-5.1727,-5.1844,-5.1337,-5.071,-5.0858,-5.0913,-5.0888,-5.089,-5.0898,-5.0898,-5.0898,-5.1446,-5.2232,-5.3159,-5.4057,-5.4972,-5.5907,-5.6117,-5.6149,-5.6185,-5.6199,-5.6213,-5.6285,-5.6291,-5.6291,-5.6298,-5.6347,-5.6397,-5.6383,-5.6446,-5.6507,-5.6492,-5.651,-5.6494,-5.6526,-5.6545,-5.6588,-5.6582,-5.6594,-5.6596,-5.6584,-5.6595,-5.6601,-5.66,-5.6596,-5.6587,-5.6606,-5.6606,-5.6553,-5.6482,-5.6485,-5.6985,0.0,0.0,0.0,0.0,0.0,0.0,0.0,0.0,0.0,0.0,0.0,0.0,0.0,0.0,0.0,0.0,0.0,0.0,0.0,0.0,0.0,0.0,0.0,0.0,0.0,0.0,0.0,0.0,0.0,0.0,-5.0283,-5.0283,-5.0283,-5.0283,-5.0283,-5.0344,-5.039,-5.0344,-5.0344,-5.039,-5.039,-5.039,-5.0401,-5.0401,-5.0746,-5.1522,-5.3062,-5.3487,-5.311,-5.3544,-5.3035,-5.1903,-5.1469,-5.0859,-5.0341,-5.0887,-5.1256,-5.1599,-5.2271,-5.2129,-5.1641,-5.1781,-5.1296,-5.0654,-5.0838,-5.0888,-5.0888,-5.089,-5.0898,-5.0898,-5.0898,-5.1029,-5.1545,-5.3125,-5.4121,-5.4972,-5.5907,-5.6141,-5.618,-5.6192,-5.6226,-5.6285,-5.6291,-5.6291,-5.6304,-5.629,-5.6308,-5.6325,-5.6397,-5.6402,-5.6432,-5.6488,-5.6496,-5.6521,-5.6563,-5.6571,-5.6614,-5.6582,-5.6591,-5.6593,-5.6591,-5.6597,-5.6601,-5.6601,-5.6597,-5.6589,-5.6618,-5.661,-5.6553,-5.6482,-5.6497,-5.6962,0.0,0.0,0.0,0.0,0.0,0.0,0.0,0.0,0.0,0.0,0.0,0.0,0.0,0.0,0.0,0.0,0.0,0.0,0.0,0.0,0.0,0.0,0.0,0.0,0.0,0.0,0.0,0.0,0.0,-5.0283,-5.0283,-5.0283,-5.0283,-5.0283,-5.0283,-5.0333,-5.0367,-5.0333,-5.0333,-5.0367,-5.039,-5.0435,-5.0489,-5.0489,-5.1168,-5.2334,-5.2855,-5.3192,-5.3378,-5.2972,-5.2272,-5.1396,-5.09,-5.0456,-5.0114,-5.0609,-5.0849,-5.0963,-5.1443,-5.1314,-5.0994,-5.1114,-5.0888,-5.0584,-5.0767,-5.0829,-5.0863,-5.0897,-5.0882,-5.0898,-5.0898,-5.1183,-5.1816,-5.318,-5.3829,-5.4495,-5.5862,-5.618,-5.6216,-5.6258,-5.6278,-5.6291,-5.6291,-5.6291,-5.6304,-5.6302,-5.6302,-5.6314,-5.6386,-5.6391,-5.6407,-5.6446,-5.6476,-5.6507,-5.6533,-5.6563,-5.6614,-5.6614,-5.6591,-5.6596,-5.6593,-5.6599,-5.6601,-5.6601,-5.6599,-5.6593,-5.6582,-5.6616,-5.656,-5.6482,-5.65,-5.6965,0.0,0.0,0.0,0.0,0.0,0.0,0.0,0.0,0.0,0.0,0.0,0.0,0.0,0.0,0.0,0.0,0.0,0.0,0.0,0.0,0.0,0.0,0.0,0.0,0.0,0.0,0.0,0.0,0.0,-5.0168,-5.0283,-5.0283,-5.0283,-5.0283,-5.0283,-5.0321,-5.0333,-5.0321,-5.0321,-5.0333,-5.039,-5.0478,-5.0622,-5.0622,-5.1397,-5.2724,-5.2176,-5.2568,-5.3569,-5.2094,-5.1408,-5.1217,-5.0406,-5.0114,-5.0101,-5.0151,-5.0188,-5.0212,-5.0259,-5.0283,-5.0306,-5.0468,-5.05,-5.0532,-5.0654,-5.0738,-5.0829,-5.0872,-5.0913,-5.0898,-5.0898,-5.1493,-5.2326,-5.3296,-5.363,-5.4204,-5.5854,-5.6209,-5.6213,-5.6285,-5.6291,-5.6291,-5.6291,-5.6291,-5.6304,-5.6302,-5.6302,-5.6308,-5.6375,-5.6375,-5.6375,-5.6386,-5.645,-5.6492,-5.65,-5.6555,-5.6614,-5.6606,-5.6591,-5.6597,-5.6592,-5.66,-5.6601,-5.6601,-5.6601,-5.6596,-5.6584,-5.6582,-5.6565,-5.6485,-5.6503,-5.6962,0.0,0.0,0.0,0.0,0.0,0.0,0.0,0.0,0.0,0.0,0.0,0.0,0.0,0.0,0.0,0.0,0.0,0.0,0.0,0.0,0.0,0.0,0.0,0.0,0.0,0.0,0.0,0.0,-4.9263,-4.9557,-5.0245,-5.0283,-5.0283,-5.0283,-5.0283,-5.0344,-5.039,-5.0344,-5.0344,-5.039,-5.0457,-5.0521,-5.0622,-5.0622,-5.109,-5.1908,-5.2476,-5.2418,-5.1914,-5.1623,-5.1065,-5.034,-5.0127,-5.0076,-5.0175,-5.0114,-5.0175,-5.0309,-5.0321,-5.0283,-5.0306,-5.0468,-5.05,-5.0532,-5.0654,-5.0738,-5.0829,-5.0872,-5.0913,-5.0898,-5.0898,-5.1556,-5.2414,-5.3304,-5.4103,-5.5009,-5.5986,-5.6209,-5.6213,-5.6285,-5.6291,-5.6291,-5.6291,-5.6291,-5.6304,-5.6302,-5.6317,-5.631,-5.6308,-5.6323,-5.6329,-5.6303,-5.6363,-5.6445,-5.6517,-5.6553,-5.6606,-5.6606,-5.6585,-5.6591,-5.6584,-5.6599,-5.6601,-5.66,-5.6601,-5.6597,-5.6592,-5.6585,-5.6565,-5.6485,-5.6553,-5.7013,0.0,0.0,0.0,0.0,0.0,0.0,0.0,0.0,0.0,0.0,0.0,0.0,0.0,0.0,0.0,0.0,0.0,0.0,0.0,0.0,0.0,0.0,0.0,0.0,0.0,0.0,0.0,0.0,-4.8831,-4.9263,-4.9595,-5.0054,-5.0283,-5.0283,-5.0283,-5.0294,-5.0356,-5.0294,-5.0367,-5.0457,-5.0521,-5.0563,-5.0622,-5.0553,-5.096,-5.1671,-5.1572,-5.1526,-5.157,-5.1049,-5.0579,-5.0236,-5.0175,-5.0188,-5.0236,-5.0212,-5.0236,-5.0283,-5.0283,-5.0283,-5.0333,-5.039,-5.0424,-5.0478,-5.0614,-5.0673,-5.0747,-5.0863,-5.0913,-5.0898,-5.0898,-5.1912,-5.3033,-5.342,-5.4552,-5.5684,-5.6094,-5.6231,-5.6272,-5.6291,-5.6291,-5.6291,-5.6291,-5.6291,-5.6298,-5.631,-5.6304,-5.6298,-5.6317,-5.6304,-5.6304,-5.6296,-5.6344,-5.6394,-5.6453,-5.6542,-5.6606,-5.6606,-5.6619,-5.6588,-5.6588,-5.6598,-5.6601,-5.6601,-5.6601,-5.6599,-5.6593,-5.6589,-5.6571,-5.6485,-5.6545,-5.6728,0.0,0.0,0.0,0.0,0.0,0.0,0.0,0.0,0.0,0.0,0.0,0.0,0.0,0.0,0.0,0.0,0.0,0.0,0.0,0.0,0.0,0.0,0.0,0.0,0.0,0.0,0.0,0.0,-4.8411,-4.8945,-4.9366,-4.9977,-5.0283,-5.0283,-5.0283,-5.0283,-5.0283,-5.0283,-5.0379,-5.05,-5.0521,-5.0542,-5.0563,-5.05,-5.079,-5.1308,-5.0658,-5.07,-5.1238,-5.0588,-5.0283,-5.0321,-5.0259,-5.0259,-5.0259,-5.0259,-5.0248,-5.0236,-5.0309,-5.0271,-5.0259,-5.0271,-5.0356,-5.0424,-5.0511,-5.0634,-5.071,-5.0829,-5.085,-5.0898,-5.0898,-5.2182,-5.3498,-5.3498,-5.4854,-5.6141,-5.6187,-5.6251,-5.6291,-5.6291,-5.6291,-5.6291,-5.6291,-5.6291,-5.6291,-5.6291,-5.6291,-5.6291,-5.6291,-5.6291,-5.6298,-5.6304,-5.6363,-5.6425,-5.6433,-5.6533,-5.6563,-5.6606,-5.6616,-5.6585,-5.6591,-5.6597,-5.66,-5.6601,-5.6601,-5.6601,-5.6593,-5.6593,-5.6577,-5.6491,-5.6503,-5.6485,0.0,0.0,0.0,0.0,0.0,0.0,0.0,0.0,0.0,0.0,0.0,0.0,0.0,0.0,0.0,0.0,0.0,0.0,0.0,0.0,0.0,0.0,0.0,0.0,0.0,0.0,0.0,0.0,-4.7826,-4.8552,-5.0168,-5.0283,-5.0283,-5.0283,-5.0283,-5.0283,-5.0283,-5.0283,-5.0379,-5.05,-5.0446,-5.0446,-5.05,-5.0435,-5.0379,-5.0359,-5.0321,-5.0321,-5.0359,-5.0321,-5.0283,-5.0271,-5.0224,-5.02,-5.02,-5.02,-5.0151,-5.0114,-5.0274,-5.0248,-5.0212,-5.0259,-5.0356,-5.0401,-5.0412,-5.0535,-5.0701,-5.0701,-5.0799,-5.0898,-5.0898,-5.2182,-5.3498,-5.3498,-5.4878,-5.6187,-5.6185,-5.6265,-5.6291,-5.6291,-5.6291,-5.6291,-5.6291,-5.6291,-5.6291,-5.6291,-5.6291,-5.6291,-5.6291,-5.6291,-5.6304,-5.6296,-5.6358,-5.6411,-5.6488,-5.6488,-5.6514,-5.6604,-5.6616,-5.6582,-5.6582,-5.6595,-5.6599,-5.6599,-5.6601,-5.6601,-5.6593,-5.6593,-5.658,-5.6506,-5.6506,-5.6491,0.0,0.0,0.0,0.0,0.0,0.0,0.0,0.0,0.0,0.0,0.0,0.0,0.0,0.0,0.0,0.0,0.0,0.0,0.0,0.0,0.0,0.0,0.0,0.0,0.0,0.0,0.0,0.0,0.0,-4.7526,-4.864,-4.9247,-4.9782,-5.0283,-5.0283,-5.0283,-5.0283,-5.0356,-5.0401,-5.0435,-5.0457,-5.0457,-5.0435,-5.0412,-5.0367,-5.0283,-5.0283,-5.0283,-5.0283,-5.0283,-5.0283,-5.0271,-5.0212,-5.02,-5.0188,-5.0139,-5.0139,-5.0163,-5.0212,-5.0236,-5.0248,-5.0271,-5.0333,-5.0367,-5.0446,-5.0535,-5.0664,-5.0738,-5.0825,-5.1014,-5.1602,-5.2182,-5.2964,-5.408,-5.4863,-5.5535,-5.6075,-5.6265,-5.6291,-5.6291,-5.6291,-5.6291,-5.6291,-5.6291,-5.6291,-5.6291,-5.6291,-5.6291,-5.6291,-5.6291,-5.6298,-5.631,-5.6347,-5.6402,-5.6433,-5.6485,-5.6514,-5.6604,-5.6616,-5.6584,-5.6589,-5.6597,-5.66,-5.6601,-5.6601,-5.6601,-5.6597,-5.6595,-5.6584,-5.6482,-5.6503,-5.6517,0.0,0.0,0.0,0.0,0.0,0.0,0.0,0.0,0.0,0.0,0.0,0.0,0.0,0.0,0.0,0.0,0.0,0.0,0.0,0.0,0.0,0.0,0.0,0.0,0.0,0.0,0.0,0.0,0.0,0.0,-4.775,-4.8367,-4.8903,-4.9442,-5.0015,-5.018,-4.9885,-5.0214,-5.0401,-5.0435,-5.0446,-5.0424,-5.0379,-5.0379,-5.0344,-5.0248,-5.0271,-5.0283,-5.0283,-5.0283,-5.013,-4.9939,-5.0097,-5.0023,-4.977,-5.0025,-5.0101,-5.0139,-5.0175,-5.02,-5.0224,-5.0309,-5.0271,-5.0271,-5.0412,-5.0514,-5.0606,-5.071,-5.0808,-5.1114,-5.1973,-5.2398,-5.3033,-5.4847,-5.5079,-5.5155,-5.605,-5.6278,-5.6291,-5.6291,-5.6291,-5.6291,-5.6291,-5.6291,-5.6291,-5.6291,-5.6291,-5.6291,-5.6291,-5.6291,-5.6298,-5.631,-5.6331,-5.6383,-5.6433,-5.6471,-5.6542,-5.6604,-5.6616,-5.6585,-5.6593,-5.6597,-5.66,-5.6601,-5.6601,-5.6601,-5.6601,-5.6596,-5.6585,-5.6526,-5.6497,-5.6507,0.0,0.0,0.0,0.0,0.0,0.0,0.0,0.0,0.0,0.0,0.0,0.0,0.0,0.0,0.0,0.0,0.0,0.0,0.0,0.0,0.0,0.0,0.0,0.0,0.0,0.0,0.0,0.0,-4.6462,-4.6844,-4.7723,-4.7799,-4.7788,-4.7837,-4.9404,-4.9847,-4.9073,-4.9847,-5.034,-5.0462,-5.034,-5.0283,-5.0321,-5.0283,-5.0248,-5.02,-5.0259,-5.0283,-5.0245,-5.0245,-4.9786,-4.9175,-4.9868,-4.9656,-4.8985,-4.981,-5.0038,-5.0012,-5.0139,-5.0139,-5.0101,-5.0236,-5.0236,-5.0212,-5.0259,-5.0451,-5.0587,-5.0587,-5.0738,-5.1073,-5.1885,-5.2773,-5.3889,-5.5723,-5.552,-5.5162,-5.6084,-5.6291,-5.6291,-5.6291,-5.6291,-5.6291,-5.6291,-5.6291,-5.6291,-5.6253,-5.6253,-5.6253,-5.6253,-5.6253,-5.6265,-5.6302,-5.6302,-5.6352,-5.6484,-5.6492,-5.6517,-5.6604,-5.6616,-5.6585,-5.6593,-5.6597,-5.6601,-5.6601,-5.6601,-5.6601,-5.6601,-5.6597,-5.6585,-5.6606,-5.6536,-5.6453,-4.2078,0.0,0.0,0.0,0.0,0.0,-4.5541,-4.6245,0.0,0.0,0.0,0.0,0.0,0.0,0.0,0.0,0.0,0.0,0.0,0.0,0.0,0.0,0.0,0.0,0.0,0.0,0.0,0.0,-4.5663,-4.6066,-4.6898,-4.7548,-4.8122,-4.8706,-4.8586,-4.8395,-4.822,-4.9017,-4.9449,-4.9477,-5.005,-5.0259,-5.0224,-5.0259,-5.0248,-5.02,-5.0259,-4.9977,-4.9442,-4.9442,-4.9301,-4.9098,-4.921,-4.9111,-4.8972,-4.9669,-4.9959,-4.9986,-5.0038,-5.0101,-5.0163,-5.0139,-5.0188,-5.0248,-5.0224,-5.0363,-5.0525,-5.0606,-5.071,-5.1048,-5.1957,-5.3249,-5.4512,-5.5118,-5.5084,-5.5151,-5.6091,-5.6291,-5.6291,-5.6291,-5.6291,-5.6291,-5.6291,-5.6291,-5.6097,-5.5437,-5.5359,-5.5359,-5.5359,-5.5359,-5.5598,-5.6226,-5.6353,-5.6407,-5.6429,-5.6461,-5.653,-5.6604,-5.6582,-5.6591,-5.6593,-5.66,-5.6601,-5.6601,-5.6601,-5.6601,-5.66,-5.6596,-5.6588,-5.6538,-5.6491,-5.6468,0.0,0.0,0.0,0.0,0.0,0.0,-4.5634,-4.6066,-4.6364,0.0,0.0,0.0,0.0,0.0,0.0,0.0,0.0,0.0,0.0,0.0,0.0,0.0,0.0,0.0,0.0,-4.5288,-4.5288,-4.5288,-4.5357,-4.5712,-4.6505,-4.7384,-4.792,-4.8007,-4.8231,-4.8012,-4.734,-4.8165,-4.875,-4.9111,-4.9591,-4.993,-5.0151,-5.0274,-5.0236,-5.0151,-5.0248,-4.9813,-4.9037,-4.8682,-4.83,-4.806,-4.8654,-4.8656,-4.8478,-4.9555,-4.9973,-5.0025,-5.0025,-5.0076,-5.0151,-5.0139,-5.0188,-5.0248,-5.0236,-5.034,-5.0532,-5.0596,-5.0971,-5.1563,-5.2451,-5.3434,-5.4387,-5.5227,-5.5155,-5.5151,-5.6091,-5.6,-5.5715,-5.5741,-5.6058,-5.6175,-5.5825,-5.6058,-5.5981,-5.5126,-5.5009,-5.5009,-5.5009,-5.5009,-5.532,-5.6214,-5.6341,-5.6358,-5.6386,-5.6457,-5.653,-5.6604,-5.6582,-5.6589,-5.6593,-5.6599,-5.6601,-5.6601,-5.6601,-5.6601,-5.6597,-5.6594,-5.6585,-5.6482,-5.6488,-5.6468,0.0,0.0,0.0,0.0,-4.5186,0.0,-4.5788,-4.5824,-4.5807,0.0,0.0,0.0,0.0,0.0,0.0,0.0,0.0,0.0,0.0,0.0,0.0,0.0,0.0,0.0,-4.5267,-4.5277,-4.5277,-4.5288,-4.5326,-4.5708,-4.6626,-4.7302,-4.7341,-4.6664,-4.8154,-4.8215,-4.6623,-4.7477,-4.8318,-4.91,-4.9197,-4.9525,-5.0076,-5.0212,-5.0162,-4.9974,-5.0109,-4.9598,-4.8674,-4.7888,-4.7114,-4.6618,-4.8111,-4.8251,-4.7793,-4.9417,-5.0038,-5.0076,-5.0076,-5.0076,-5.0089,-5.0163,-5.0188,-5.02,-5.0259,-5.039,-5.0472,-5.0596,-5.1395,-5.2403,-5.3189,-5.3555,-5.413,-5.58,-5.5598,-5.5278,-5.6116,-5.5571,-5.4883,-5.4867,-5.5547,-5.5903,-5.5126,-5.5631,-5.5864,-5.5009,-5.4776,-5.4699,-5.4699,-5.4699,-5.5087,-5.6058,-5.6173,-5.6225,-5.6381,-5.6445,-5.6521,-5.6602,-5.6616,-5.6587,-5.6593,-5.6598,-5.6601,-5.6601,-5.6601,-5.66,-5.6593,-5.6592,-5.6573,-5.6482,-5.6517,-5.6476,0.0,0.0,0.0,0.0,-4.5698,0.0,-4.58,-4.5821,-4.5866,0.0,0.0,0.0,0.0,0.0,0.0,0.0,0.0,0.0,0.0,0.0,0.0,0.0,0.0,0.0,-4.5224,-4.5213,-4.5235,-4.5316,-4.5367,-4.6038,-4.7531,-4.7099,-4.7061,-4.7608,-4.7898,-4.7592,-4.6623,-4.81,-4.8907,-4.9022,-4.9663,-4.9986,-5.0012,-5.0151,-4.982,-4.9137,-4.9222,-4.838,-4.6984,-4.6689,-4.6525,-4.6523,-4.745,-4.7755,-4.7805,-4.9455,-5.0076,-5.0076,-5.0076,-5.0076,-5.0089,-5.0139,-5.0151,-5.02,-5.0212,-5.0259,-5.0363,-5.0537,-5.1847,-5.3189,-5.3434,-5.452,-5.5675,-5.6048,-5.6024,-5.5991,-5.617,-5.5535,-5.4714,-5.403,-5.4562,-5.5139,-5.5003,-5.5126,-5.4971,-5.4077,-5.3339,-5.2912,-5.2912,-5.2912,-5.3494,-5.5087,-5.5297,-5.5618,-5.6359,-5.6449,-5.6527,-5.6511,-5.6579,-5.6592,-5.6593,-5.66,-5.6601,-5.6601,-5.6601,-5.6598,-5.6593,-5.6541,-5.6519,-5.6482,-5.6492,-5.645,0.0,0.0,0.0,-4.5834,0.0,0.0,0.0,-4.5834,-4.5821,0.0,0.0,0.0,0.0,0.0,0.0,0.0,0.0,0.0,0.0,0.0,0.0,0.0,0.0,0.0,-4.5203,-4.5277,-4.5309,-4.5288,-4.5347,-4.5903,-4.7155,-4.7193,-4.7193,-4.7193,-4.8012,-4.7848,-4.6581,-4.7788,-4.8594,-4.9002,-4.9363,-4.972,-5.0038,-5.0151,-4.9732,-4.8909,-4.8982,-4.8029,-4.6435,-4.6744,-4.6643,-4.6339,-4.6719,-4.7428,-4.8289,-4.9125,-4.9708,-5.0076,-5.0076,-5.0076,-5.0076,-5.0076,-5.0139,-5.02,-5.02,-5.0333,-5.0489,-5.0547,-5.1644,-5.288,-5.3398,-5.4506,-5.5559,-5.6025,-5.6164,-5.618,-5.618,-5.5141,-5.4088,-5.3712,-5.361,-5.3624,-5.3696,-5.4064,-5.4077,-5.3183,-5.2678,-5.2407,-5.2407,-5.2407,-5.2912,-5.4194,-5.4797,-5.5273,-5.5726,-5.6219,-5.6491,-5.6506,-5.6575,-5.6589,-5.6593,-5.6599,-5.6601,-5.6601,-5.6601,-5.6599,-5.6593,-5.6543,-5.6482,-5.6482,-5.6503,-5.6464,0.0,0.0,0.0,0.0,0.0,-4.6138,0.0,0.0,0.0,0.0,0.0,0.0,0.0,0.0,0.0,0.0,0.0,0.0,0.0,0.0,0.0,0.0,0.0,0.0,0.0,-4.5082,-4.5188,-4.5277,-4.5125,-4.5468,-4.6462,-4.7188,-4.7292,-4.6768,-4.8296,-4.8411,-4.6997,-4.777,-4.8536,-4.921,-4.9149,-4.9455,-5.005,-4.9974,-4.9441,-4.863,-4.8538,-4.755,-4.6111,-4.6745,-4.667,-4.6203,-4.6367,-4.7403,-4.8808,-4.8821,-4.9239,-4.986,-4.986,-4.986,-4.986,-4.986,-5.0012,-5.0175,-5.02,-5.0401,-5.0573,-5.0596,-5.1433,-5.2554,-5.3359,-5.4304,-5.5241,-5.5986,-5.5978,-5.5854,-5.5916,-5.4514,-5.3259,-5.3395,-5.2665,-5.2122,-5.2356,-5.2971,-5.3228,-5.2523,-5.2251,-5.2173,-5.2173,-5.2173,-5.2484,-5.3345,-5.4291,-5.4918,-5.5098,-5.5942,-5.6488,-5.6503,-5.6569,-5.6585,-5.6593,-5.6598,-5.6601,-5.6601,-5.6601,-5.66,-5.6593,-5.6546,-5.6526,-5.6482,-5.6517,-5.6441,0.0,0.0,0.0,0.0,-4.7016,0.0,0.0,0.0,-4.5974,-4.5911,0.0,0.0,0.0,0.0,0.0,0.0,0.0,0.0,0.0,0.0,0.0,0.0,0.0,0.0,0.0,-4.424,-4.4516,-4.5175,-4.4558,-4.4847,-4.6424,-4.6577,-4.6948,-4.7635,-4.8602,-4.8995,-4.8804,-4.9537,-4.9935,-4.9974,-4.9911,-4.9897,-4.992,-4.9264,-4.8492,-4.7605,-4.6896,-4.6048,-4.5162,-4.5178,-4.5609,-4.6291,-4.7074,-4.7973,-4.8821,-4.8871,-4.8934,-4.9023,-4.9023,-4.9023,-4.9023,-4.9023,-4.9518,-5.0114,-5.0236,-5.0412,-5.0521,-5.0573,-5.1895,-5.3267,-5.34,-5.4658,-5.5946,-5.599,-5.5473,-5.4947,-5.4954,-5.3583,-5.2345,-5.2361,-5.1756,-5.147,-5.2272,-5.2484,-5.2523,-5.2407,-5.1785,-5.1358,-5.1358,-5.1358,-5.1668,-5.2445,-5.3397,-5.4246,-5.5029,-5.5974,-5.6485,-5.6485,-5.6565,-5.6585,-5.6593,-5.66,-5.6601,-5.6601,-5.6601,-5.6598,-5.6593,-5.6585,-5.6565,-5.6482,-5.6503,-5.6472,0.0,0.0,0.0,0.0,0.0,0.0,-4.7346,0.0,-4.5929,0.0,0.0,0.0,0.0,0.0,0.0,0.0,-4.3325,0.0,0.0,0.0,0.0,0.0,0.0,0.0,0.0,0.0,0.0,0.0,-4.354,-4.3815,-4.5,-4.5475,-4.59,-4.621,-4.7579,-4.806,-4.7602,-4.8829,-4.9453,-4.9453,-4.9848,-4.9758,-4.9315,-4.8973,-4.8049,-4.6795,-4.6453,-4.5796,-4.5026,-4.595,-4.6582,-4.6973,-4.7871,-4.8389,-4.8615,-4.82,-4.834,-4.8846,-4.9417,-4.9289,-4.8985,-4.9442,-4.9797,-5.005,-5.0188,-5.0356,-5.0593,-5.118,-5.2319,-5.349,-5.4069,-5.51,-5.6037,-5.6046,-5.5775,-5.5379,-5.489,-5.3846,-5.2809,-5.233,-5.1586,-5.1171,-5.1593,-5.1695,-5.1707,-5.1707,-5.1435,-5.1202,-5.1202,-5.1202,-5.1325,-5.1658,-5.2513,-5.3395,-5.4271,-5.5202,-5.5978,-5.6482,-5.6571,-5.6592,-5.6597,-5.6601,-5.6601,-5.6601,-5.6601,-5.6599,-5.6593,-5.6591,-5.6575,-5.6497,-5.6517,-5.6453,-4.8385,0.0,0.0,0.0,0.0,0.0,0.0,0.0,0.0,0.0,0.0,0.0,0.0,0.0,0.0,0.0,0.0,0.0,0.0,0.0,0.0,0.0,0.0,0.0,0.0,0.0,0.0,-4.286,-4.2412,-4.2594,-4.3624,-4.4433,-4.4963,-4.5136,-4.658,-4.7213,-4.6854,-4.7993,-4.859,-4.8627,-4.9087,-4.9011,-4.8479,-4.8201,-4.7416,-4.6277,-4.6011,-4.5519,-4.5003,-4.6468,-4.7074,-4.7124,-4.7731,-4.8069,-4.8153,-4.7617,-4.7643,-4.8136,-4.9036,-4.9112,-4.8973,-4.9873,-5.0038,-4.9986,-5.0126,-5.0259,-5.0599,-5.1593,-5.2541,-5.3558,-5.4512,-5.5371,-5.5982,-5.5783,-5.5534,-5.5084,-5.4271,-5.3382,-5.2616,-5.2028,-5.1424,-5.1027,-5.1043,-5.1315,-5.154,-5.1552,-5.1513,-5.1513,-5.1513,-5.1358,-5.1214,-5.1208,-5.1974,-5.2855,-5.374,-5.466,-5.5474,-5.6146,-5.6225,-5.6126,-5.5895,-5.6132,-5.625,-5.625,-5.6484,-5.6601,-5.6593,-5.6593,-5.6582,-5.6514,-5.6497,-5.6471,0.0,0.0,0.0,-4.8822,0.0,0.0,0.0,0.0,-4.7035,0.0,0.0,0.0,0.0,0.0,0.0,0.0,0.0,0.0,0.0,0.0,0.0,0.0,0.0,0.0,0.0,0.0,0.0,-4.2793,-4.1403,-4.1167,-4.2756,-4.3586,-4.4406,-4.5154,-4.6069,-4.693,-4.775,-4.7674,-4.7653,-4.7653,-4.7592,-4.7517,-4.7428,-4.6632,-4.6253,-4.6177,-4.5293,-4.4877,-4.4903,-4.5836,-4.6203,-4.6151,-4.6189,-4.6641,-4.7267,-4.7377,-4.6884,-4.6302,-4.7175,-4.8035,-4.8871,-4.986,-5.0063,-4.992,-5.005,-5.0224,-5.0588,-5.1459,-5.2512,-5.3584,-5.4482,-5.5367,-5.5818,-5.5045,-5.4194,-5.3343,-5.2461,-5.1602,-5.0975,-5.0937,-5.0975,-5.1005,-5.1012,-5.1767,-5.2369,-5.2362,-5.2368,-5.2368,-5.2368,-5.1668,-5.1214,-5.1208,-5.1974,-5.2855,-5.374,-5.466,-5.5249,-5.5316,-5.5335,-5.4952,-5.4133,-5.4882,-5.5351,-5.5351,-5.6172,-5.6601,-5.6593,-5.6593,-5.6585,-5.6604,-5.6514,-5.6488,0.0,0.0,-5.2345,-5.1261,0.0,0.0,0.0,0.0,0.0,0.0,0.0,0.0,0.0,0.0,0.0,0.0,0.0,0.0,0.0,0.0,0.0,0.0,0.0,0.0,0.0,0.0,0.0,-4.0538,-4.0427,-4.0888,-4.1963,-4.2766,-4.3535,-4.4243,-4.5114,-4.5696,-4.594,-4.6475,-4.678,-4.6815,-4.7288,-4.7201,-4.6644,-4.6341,-4.5899,-4.5331,-4.4978,-4.4827,-4.4928,-4.6314,-4.6515,-4.6148,-4.7205,-4.7089,-4.6355,-4.645,-4.6288,-4.6188,-4.7188,-4.8403,-4.9631,-5.0012,-5.0012,-4.992,-5.0038,-5.02,-5.0669,-5.2263,-5.3003,-5.3674,-5.5165,-5.5763,-5.5935,-5.5664,-5.4951,-5.4083,-5.3227,-5.2351,-5.1523,-5.1014,-5.0914,-5.0937,-5.1005,-5.1746,-5.2143,-5.1632,-5.1579,-5.163,-5.163,-5.1358,-5.1181,-5.119,-5.1984,-5.2865,-5.3797,-5.5213,-5.5834,-5.5318,-5.5296,-5.4913,-5.4055,-5.4843,-5.5312,-5.5312,-5.6172,-5.6601,-5.6597,-5.6595,-5.6588,-5.6616,-5.6565,-5.6545,-5.3412,-5.373,0.0,-5.2578,-5.1656,0.0,-4.9963,0.0,-4.8735,0.0,0.0,0.0,0.0,0.0,0.0,0.0,0.0,0.0,0.0,-4.0842,0.0,0.0,0.0,0.0,0.0,0.0,-3.9627,-3.9357,-3.9438,-3.987,0.0,0.0,-4.2921,-4.335,-4.4448,-4.5068,-4.5045,-4.5554,-4.587,-4.5905,-4.6377,-4.6303,-4.5809,-4.5748,-4.5407,-4.4877,-4.4827,-4.4776,-4.4851,-4.6499,-4.6711,-4.6118,-4.7424,-4.7095,-4.5899,-4.5981,-4.621,-4.6566,-4.7327,-4.8606,-4.9959,-5.0025,-4.9973,-4.9906,-4.9986,-5.0163,-5.0734,-5.2549,-5.3176,-5.3724,-5.5516,-5.5968,-5.5831,-5.5213,-5.4654,-5.3911,-5.2832,-5.2111,-5.1507,-5.1006,-5.0898,-5.0906,-5.0975,-5.1453,-5.1928,-5.2007,-5.2078,-5.2096,-5.2096,-5.1824,-5.153,-5.1229,-5.1974,-5.3015,-5.4247,-5.5376,-5.5678,-5.4888,-5.4551,-5.3974,-5.3117,-5.3905,-5.4531,-5.4844,-5.5703,-5.6289,-5.6599,-5.6597,-5.6592,-5.6582,-5.6263,-5.6092]},{"header":{"parameterUnit":"m.s-1","parameterCategory":1,"la1":30.6,"la2":29.2853,"lo1":-89.7004,"lo2":-87.6739,"dy":0.0162,"dx":0.0183,"nx":112,"ny":82,"refTime":"2024-02-26T18:00:00:Z","depth":0,"parameterNumber":3,"parameterNumberName":"V-component_of_WINDS"},"data":[0.0,0.0,0.0,0.0,0.0,0.0,0.0,0.0,0.0,0.0,0.0,0.0,0.0,0.0,0.0,0.0,0.0,0.0,0.0,0.0,0.0,0.0,0.0,0.0,0.0,0.0,0.0,0.0,0.0,0.0,0.0,0.0,0.0,0.0,0.0,0.0,0.0,0.0,0.0,0.0,0.0,0.0,0.0,0.0,0.0,0.0,0.0,0.0,0.0,0.0,0.0,0.0,0.0,0.0,0.0,0.0,0.0,0.0,0.0,0.0,0.0,0.0,0.0,0.0,0.0,0.0,0.0,0.0,0.0,0.0,0.0,0.0,0.0,0.0,0.0,0.0,0.0,0.0,0.0,0.0,0.0,0.0,0.0,0.0,0.0,0.0,0.0,0.0,0.0,0.0,-0.1236,0.0,0.1178,0.1931,0.1953,0.2208,0.2152,0.1559,0.0,0.0,0.0,0.0,0.0,0.0,0.0,0.0,0.0,0.0,0.0,0.0,0.0,0.0,0.0,0.0,0.0,0.0,0.0,0.0,0.0,0.0,0.0,0.0,0.0,0.0,0.0,0.0,0.0,0.0,0.0,0.0,0.0,0.0,0.0,0.0,0.0,0.0,0.0,0.0,0.0,0.0,0.0,0.0,0.0,0.0,0.0,0.0,0.0,0.0,0.0,0.0,0.0,0.0,0.0,0.0,0.0,0.0,0.0,0.0,0.0,0.0,0.0,0.0,0.0,0.0,0.0,0.0,0.0,0.0,0.0,0.0,0.0,0.0,0.0,0.0,0.0,0.0,0.0,0.0,0.0,0.0,0.0,0.0,0.0,0.0,0.0,0.0,0.0,0.0,0.0,0.0,0.0,0.0,0.0,0.0,0.0,0.0,0.0,0.0,0.0,0.0,0.0,0.0,-0.1266,-0.041,0.0798,0.1573,0.1576,0.1892,0.209,0.208,0.0,0.0,0.0,0.0,0.0,0.0,0.0,0.0,0.0,0.0,0.0,0.0,0.0,0.0,0.0,0.0,0.0,0.0,0.0,0.0,0.0,0.0,0.0,0.0,0.0,0.0,0.0,0.0,0.0,0.0,0.0,0.0,0.0,0.0,0.0,0.0,0.0,0.0,0.0,0.0,0.0,0.0,0.0,0.0,0.0,0.0,0.0,0.0,0.0,0.0,0.0,0.0,0.0,0.0,0.0,0.0,0.0,0.0,0.0,0.0,0.0,0.0,0.0,0.0,0.0,0.0,0.0,0.0,0.0,0.0,0.0,0.0,0.0,0.0,0.0,0.0,0.0,0.0,0.0,0.0,0.0,0.0,0.0,0.0,0.0,0.0,0.0,0.0,0.0,0.0,0.0,0.0,0.0,0.0,0.0,0.0,0.0,0.0,0.0,0.0,0.0,0.0,0.0,-0.1257,-0.0779,-0.0428,0.0756,0.1537,0.1549,0.1861,0.2062,0.2015,0.1544,0.0,0.0,0.0,0.0,0.0,0.0,0.0,0.0,0.0,0.0,0.0,0.0,0.0,0.0,0.0,0.0,0.0,0.0,0.0,0.0,0.0,0.0,0.0,0.0,0.0,0.0,0.0,0.0,0.0,0.0,0.0,0.0,0.0,0.0,0.0,0.0,0.0,0.0,0.0,0.0,0.0,0.0,0.0,0.0,0.0,0.0,0.0,0.0,0.0,0.0,0.0,0.0,0.0,0.0,0.0,0.0,0.0,0.0,0.0,0.0,0.0,0.0,0.0,0.0,0.0,0.0,0.0,0.0,0.0,0.0,0.0,0.0,0.0,0.0,0.0,0.0,0.0,0.0,0.0,0.0,0.0,0.0,0.0,0.0,0.0,0.0,0.0,0.0,0.0,0.0,0.0,0.0,0.0,0.0,0.0,0.0,0.0,0.0,0.0,0.0,0.0,0.0,-0.1106,-0.0409,-0.0376,0.0703,0.1491,0.158,0.188,0.2078,0.1986,0.1606,0.0,0.0,0.0,0.0,0.0,0.0,0.0,0.0,0.0,0.0,0.0,0.0,0.0,0.0,0.0,0.0,0.0,0.0,0.0,0.0,0.0,0.0,0.0,0.0,0.0,0.0,0.0,0.0,0.0,0.0,0.0,0.0,0.0,0.0,0.0,0.0,0.0,0.0,0.0,0.0,0.0,0.0,0.0,0.0,0.0,0.0,0.0,0.0,0.0,0.0,0.0,0.0,0.0,0.0,0.0,0.0,0.0,0.0,0.0,0.0,0.0,0.0,0.0,0.0,0.0,0.0,0.0,0.0,0.0,0.0,0.0,0.0,0.0,0.0,0.0,0.0,0.0,0.0,0.0,0.0,0.0,0.0,0.0,0.0,0.0,0.0,0.0,0.0,0.0,0.0,0.0,0.0,0.0,0.0,0.0,0.0,0.0,0.0,0.0,0.0,0.0,0.0,-0.1355,-0.0718,-0.044,0.0512,0.1232,0.158,0.1863,0.2107,0.225,0.1691,0.0,0.0,0.0,0.0,0.0,0.0,0.0,0.0,0.0,0.0,0.0,0.0,0.0,0.0,0.0,0.0,0.0,0.0,0.0,0.0,0.0,0.0,0.0,0.0,0.0,0.0,0.0,0.0,0.0,0.0,0.0,0.0,0.0,0.0,0.0,0.0,0.0,0.0,0.0,0.0,0.0,0.0,0.0,0.0,0.0,0.0,0.0,0.0,0.0,0.0,0.0,0.0,0.0,0.0,0.0,0.0,0.0,0.0,0.0,0.0,0.0,0.0,0.0,0.0,0.0,0.0,0.0,0.0,0.0,0.0,0.0,0.0,0.0,0.0,0.0,0.0,0.0,0.0,0.0,0.0,0.0,0.0,0.0,0.0,0.0,0.0,0.0,0.0,0.0,0.0,0.0,0.0,0.0,0.0,0.0,0.0,0.0,0.0,0.0,0.0,0.0,0.0,-0.1423,-0.0783,0.0,0.0518,0.1249,0.1601,0.1887,0.2142,0.2371,0.0,0.0,0.0,0.0,0.0,0.0,0.0,0.0,0.0,0.0,0.0,0.0,0.0,0.0,0.0,0.0,0.0,0.0,0.0,0.0,0.0,0.0,0.0,0.0,0.0,0.0,0.0,0.0,0.0,0.0,0.0,0.0,0.0,0.0,0.0,0.0,0.0,0.0,0.0,0.0,0.0,0.0,0.0,0.0,0.0,0.0,0.0,0.0,0.0,0.0,0.0,0.0,0.0,0.0,0.0,0.0,0.0,0.0,0.0,0.0,0.0,0.0,0.0,0.0,0.0,0.0,0.0,0.0,0.0,0.0,0.0,0.0,0.0,0.0,0.0,0.0,0.0,0.0,0.0,0.0,0.0,0.0,0.0,0.0,0.0,0.0,0.0,0.0,0.0,0.0,0.0,0.0,0.0,0.0,0.0,0.0,0.0,0.0,0.0,0.0,0.0,0.0,-0.2361,-0.162,-0.0915,0.0,0.0521,0.1253,0.1545,0.1894,0.2154,0.2409,0.0,0.0,0.0,0.0,0.0,0.0,0.0,0.0,0.0,0.0,0.0,0.0,0.0,0.0,0.0,0.0,0.0,0.0,0.0,0.0,0.0,0.0,0.0,0.0,0.0,0.0,0.0,0.0,0.0,0.0,0.0,0.0,0.0,0.0,0.0,0.0,0.0,0.0,0.0,0.0,0.0,0.0,0.0,0.0,0.0,0.0,0.0,0.0,0.0,0.0,0.0,0.0,0.0,0.0,0.0,0.0,0.0,0.0,0.0,0.0,0.0,0.0,0.0,0.0,0.0,0.0,0.0,0.0,0.0,0.0,0.0,0.0,0.0,0.0,0.0,0.0,0.0,0.0,0.0,0.0,0.0,0.0,0.0,0.0,0.0,0.0,0.0,0.0,0.0,0.0,0.0,0.0,0.0,0.0,0.0,0.0,0.0,0.0,0.0,0.0,0.0,0.0,-0.2638,-0.196,-0.1185,-0.045,0.0516,0.124,0.1544,0.1877,0.2131,0.0,0.0,0.0,0.0,0.0,0.0,0.0,0.0,0.0,0.0,0.0,0.0,0.0,0.0,0.0,0.0,0.0,0.0,0.0,0.0,0.0,0.0,0.0,0.0,0.0,0.0,0.0,0.0,0.0,0.0,0.0,0.0,0.0,0.0,0.0,0.0,0.0,0.0,0.0,0.0,0.0,0.0,0.0,0.0,0.0,0.0,0.0,0.0,0.0,0.0,0.0,0.0,0.0,0.0,0.0,0.0,0.0,0.0,0.0,0.0,0.0,0.0,0.0,0.0,0.0,0.0,0.0,0.0,0.0,0.0,0.0,0.0,0.0,0.0,0.0,0.0,0.0,0.0,0.0,0.0,0.0,0.0,0.0,0.0,0.0,0.0,0.0,0.0,0.0,0.0,0.0,0.0,0.0,0.0,0.0,0.0,0.0,0.0,0.0,0.0,0.0,0.0,0.0,-0.2676,-0.1751,-0.0884,-0.045,0.0525,0.1268,0.1547,0.1894,0.2165,0.2447,0.0,0.0,0.0,0.0,0.0,0.0,0.0,0.0,0.0,0.0,0.0,0.0,0.0,0.0,0.0,0.0,0.0,0.0,0.0,0.0,0.0,0.0,0.0,0.0,0.0,0.0,0.0,0.0,0.0,0.0,0.0,0.0,0.0,0.0,0.0,0.0,0.0,0.0,0.0,0.0,0.0,0.0,0.0,0.0,0.0,0.0,0.0,0.0,0.0,0.0,0.0,0.0,0.0,0.0,0.0,0.0,0.0,0.0,0.0,0.0,0.0,0.0,0.0,0.0,0.0,0.0,0.0,0.0,0.0,0.0,0.0,0.0,0.0,0.0,0.0,0.0,0.0,0.0,0.0,0.0,0.0,0.0,0.0,0.0,0.0,0.0,0.0,0.0,0.0,0.0,0.0,0.0,0.0,0.0,0.0,0.0,0.0,0.0,0.0,0.0,0.0,0.0,-0.2694,-0.1763,-0.1016,-0.0644,0.0395,0.1204,0.1413,0.1836,0.2244,0.2464,0.0,0.0,0.0,0.0,0.0,0.0,0.0,0.0,0.0,0.0,0.0,0.0,0.0,0.0,0.0,0.0,0.0,0.0,0.0,0.0,0.0,0.0,0.0,0.0,0.0,0.0,0.0,0.0,0.0,0.0,0.0,0.0,0.0,0.0,0.0,0.0,0.0,0.0,0.0,0.0,0.0,0.0,0.0,0.0,0.0,0.0,0.0,0.0,0.0,0.0,0.0,0.0,0.0,0.0,0.0,0.0,0.0,0.0,0.0,0.0,0.0,0.0,0.0,0.0,0.0,0.0,0.0,0.0,0.0,0.0,0.0,0.0,0.0,0.0,0.0,0.0,0.0,0.0,0.0,0.0,0.0,0.0,0.0,0.0,0.0,0.0,0.0,0.0,0.0,0.0,0.0,0.0,0.0,0.0,0.0,0.0,0.0,0.0,0.0,0.0,0.0,0.0,-0.2702,-0.1948,-0.1334,-0.0966,0.0262,0.1061,0.1074,0.1704,0.218,0.2464,0.0,0.0,0.0,0.0,0.0,0.0,0.0,0.0,0.0,0.0,0.0,0.0,0.0,0.0,0.0,0.0,0.0,0.0,0.0,0.0,0.0,0.0,0.0,0.0,0.0,0.0,0.0,0.0,0.0,0.0,0.0,0.0,0.0,0.0,0.0,0.0,0.0,0.0,0.0,0.0,0.0,0.0,0.0,0.0,0.0,0.0,0.0,0.0,0.0,0.0,0.0,0.0,0.0,0.0,0.0,0.0,0.0,0.0,0.0,0.0,-1.2779,0.0,0.0,0.0,0.0,0.0,0.0,0.0,0.0,0.0,0.0,0.0,0.0,0.0,0.0,0.0,0.0,0.0,0.0,0.0,0.0,0.0,0.0,0.0,0.0,0.0,0.0,0.0,0.0,0.0,0.0,0.0,0.0,0.0,0.0,0.0,0.0,0.0,0.0,0.0,0.0,0.0,-0.2393,-0.1608,-0.0964,-0.0645,0.0132,0.0734,0.0994,0.1368,0.1794,0.2083,0.2238,0.0,0.0,0.0,0.0,0.0,0.0,0.0,0.0,0.0,0.0,0.0,0.0,0.0,0.0,0.0,0.0,0.0,0.0,0.0,0.0,0.0,0.0,0.0,0.0,0.0,0.0,0.0,0.0,0.0,0.0,0.0,0.0,0.0,0.0,0.0,0.0,0.0,0.0,0.0,0.0,0.0,0.0,0.0,0.0,0.0,0.0,0.0,0.0,0.0,0.0,0.0,0.0,0.0,0.0,0.0,0.0,0.0,0.0,0.0,0.0,-1.2106,0.0,0.0,0.0,0.0,0.0,0.0,0.0,0.0,0.0,0.0,0.0,0.0,0.0,0.0,0.0,0.0,0.0,0.0,0.0,0.0,0.0,0.0,0.0,0.0,0.0,0.0,0.0,0.0,0.0,0.0,0.0,0.0,0.0,0.0,0.0,0.0,0.0,0.0,0.0,0.0,-0.2348,-0.1554,-0.0903,-0.0774,0.0,0.0602,0.0989,0.1309,0.1678,0.1959,0.2099,0.0,0.0,0.0,0.0,0.0,0.0,0.0,0.0,0.0,0.0,0.0,0.0,0.0,0.0,0.0,0.0,0.0,0.0,0.0,0.0,0.0,0.0,0.0,0.0,0.0,0.0,0.0,0.0,0.0,0.0,0.0,0.0,0.0,0.0,0.0,0.0,0.0,0.0,0.0,0.0,0.0,0.0,0.0,0.0,0.0,0.0,0.0,0.0,0.0,0.0,0.0,0.0,0.0,-1.1645,-1.1614,-1.178,-1.1724,-1.1522,-1.116,-1.138,-1.1273,-1.0871,-1.0732,0.0,0.0,0.0,0.0,0.0,0.0,0.0,0.0,0.0,0.0,0.0,0.0,0.0,0.0,0.0,0.0,0.0,0.0,0.0,0.0,0.0,0.0,-0.6287,-0.6095,-0.6148,-0.5915,-0.4786,0.0,0.0,0.0,0.0,0.0,0.0,0.0,0.0,0.0,0.0,0.0,-0.2244,-0.1498,-0.0971,-0.0906,-0.0133,0.0536,0.0857,0.1252,0.1629,0.1903,0.1959,0.1985,0.0,0.0,0.0,0.0,0.0,0.0,0.0,0.0,0.0,0.0,0.0,0.0,0.0,0.0,0.0,0.0,0.0,0.0,0.0,0.0,0.0,0.0,0.0,0.0,0.0,0.0,0.0,0.0,0.0,0.0,0.0,0.0,-1.037,-1.0263,0.0,0.0,0.0,0.0,0.0,0.0,0.0,0.0,0.0,0.0,0.0,0.0,0.0,-1.2558,-1.1945,-1.2312,-1.2513,-1.2484,-1.1942,-1.1951,-1.2463,-1.1634,-1.1322,-1.1316,-1.0883,0.0,-1.0661,-0.9961,0.0,0.0,0.0,0.0,0.0,0.0,0.0,0.0,0.0,0.0,0.0,0.0,0.0,0.0,0.0,0.0,0.0,0.0,0.0,0.0,0.0,0.0,-0.5881,-0.6256,-0.5908,-0.5358,-0.4793,-0.4878,-0.4737,-0.3731,-0.3515,-0.3512,0.0,0.0,0.0,0.0,0.0,0.0,-0.1981,-0.1395,-0.092,-0.0591,-0.02,0.0201,0.0528,0.0856,0.1243,0.1545,0.1842,0.2014,0.2001,0.1956,0.0,0.0,0.0,0.0,0.0,0.0,0.0,0.0,0.0,0.0,0.0,0.0,0.0,0.0,0.0,0.0,0.0,0.0,0.0,0.0,0.0,0.0,0.0,0.0,0.0,0.0,0.0,0.0,0.0,-1.0117,-1.0405,-1.0123,-1.0294,-1.0556,0.0,0.0,0.0,0.0,0.0,0.0,0.0,0.0,0.0,-1.2351,-1.2911,-1.3019,-1.2627,-1.2634,-1.2602,-1.2602,-1.2084,-1.196,-1.2086,-1.1388,-1.1049,-1.0988,-1.0269,-1.0017,-1.0047,-0.9771,-0.965,-0.9628,0.0,0.0,0.0,0.0,-0.9496,-0.9406,-0.9361,-0.9302,-0.9233,-0.9269,0.0,0.0,0.0,0.0,0.0,0.0,0.0,-0.7072,0.0,-0.6876,-0.6695,-0.6517,-0.6165,-0.554,-0.464,-0.4488,-0.4339,-0.3498,-0.3216,-0.3045,-0.3047,-0.2822,0.0,0.0,0.0,-0.2182,-0.1711,-0.1278,-0.0856,-0.0527,-0.02,0.0134,0.0462,0.0863,0.1185,0.1468,0.1851,0.203,0.1996,0.197,0.2039,0.0,0.0,0.0,0.0,0.0,0.0,0.0,0.0,0.0,0.0,0.0,0.0,0.0,0.0,0.0,0.0,0.0,0.0,0.0,0.0,0.0,0.0,0.0,0.0,0.0,0.0,0.0,0.0,-1.0003,-1.0479,-1.0245,-1.0556,-1.0901,0.0,0.0,0.0,0.0,0.0,0.0,-1.2124,-1.2654,-1.2959,-1.2899,-1.3269,-1.3317,-1.2915,-1.2788,-1.2641,-1.2467,-1.2207,-1.1963,-1.1828,-1.1323,-1.0996,-1.0759,-1.0004,-0.9703,-0.9653,-0.9664,-0.9543,-0.9369,-0.9406,-0.9605,-0.9815,-0.9624,-0.9555,-0.9586,-0.96,-0.9504,-0.9387,-0.9321,-0.9183,-0.9098,-0.9064,0.0,0.0,0.0,0.0,-0.7827,-0.7453,-0.7303,-0.7231,-0.6818,-0.6346,-0.5657,-0.4581,-0.4169,-0.386,-0.33,-0.2884,-0.2708,-0.2767,-0.2649,0.0,0.0,0.0,-0.2109,-0.149,-0.1162,-0.0861,-0.053,-0.0201,0.0134,0.0332,0.0736,0.1061,0.1343,0.1734,0.1977,0.1989,0.1981,0.2063,0.2098,0.0,0.0,0.0,0.0,0.0,0.0,0.0,0.0,0.0,0.0,0.0,0.0,0.0,0.0,0.0,0.0,0.0,0.0,0.0,0.0,0.0,0.0,0.0,0.0,0.0,0.0,0.0,0.0,0.0,-1.0595,-1.0759,0.0,0.0,0.0,0.0,-1.2278,-1.2335,-1.2569,-1.2984,-1.3079,-1.3098,-1.3108,-1.3258,-1.3079,-1.2425,-1.2898,-1.2868,-1.2209,-1.2217,-1.2157,-1.2148,-1.1555,-1.1168,-1.0953,-1.0354,-0.9973,-0.9759,-0.9375,-0.92,-0.92,-0.9187,-0.9273,-0.9306,-0.9016,-0.9108,-0.9264,-0.9022,-0.9036,-0.9162,-0.9359,-0.9091,-0.8763,-0.9119,-0.8634,0.0,0.0,-0.8138,-0.7937,-0.7799,-0.7264,-0.6836,-0.7085,-0.6259,-0.5345,-0.4977,-0.418,-0.3417,-0.2901,-0.2533,-0.2415,-0.2767,0.0,-0.2003,-0.224,-0.2144,-0.189,-0.1512,-0.1244,-0.0941,-0.0538,-0.0202,0.0,0.0,0.0336,0.0669,0.0987,0.1364,0.1665,0.2018,0.199,0.196,0.1928,0.1601,0.0,0.0,0.0,0.0,0.0,0.0,0.0,0.0,0.0,0.0,0.0,0.0,0.0,0.0,0.0,0.0,0.0,0.0,0.0,0.0,0.0,0.0,0.0,0.0,0.0,0.0,0.0,0.0,-1.0826,-1.1123,0.0,-1.22,-1.2046,-1.2192,-1.2814,-1.2843,-1.2965,-1.3258,-1.3277,-1.3334,-1.3466,-1.3364,-1.3282,-1.3223,-1.2988,-1.2844,-1.2844,-1.2414,-1.2113,-1.1933,-1.1269,-1.0816,-1.0523,-1.0003,-0.9755,-0.9641,-0.9528,-0.9388,-0.93,-0.93,-0.9438,-0.9617,-0.9731,-0.9716,-0.9637,-0.9752,-0.9518,-0.9154,-0.9113,-0.9071,-0.9036,-0.8996,-0.8886,-0.8761,-0.8592,-0.8644,-0.8678,-0.8154,-0.7687,-0.723,-0.7064,-0.632,-0.5544,-0.5049,-0.4312,-0.3564,-0.3041,-0.249,-0.2126,-0.2248,-0.2126,-0.2005,-0.2065,-0.2048,-0.1773,-0.1277,-0.1112,-0.08,-0.0269,-0.0067,0.0,0.0,0.0337,0.073,0.122,0.1415,0.1715,0.2208,0.2094,0.2076,0.2141,0.1891,0.1846,0.0,0.0,0.0,0.0,0.0,0.0,0.0,0.0,0.0,0.0,0.0,0.0,0.0,0.0,0.0,0.0,0.0,0.0,0.0,0.0,0.0,0.0,0.0,0.0,0.0,0.0,-1.1133,-1.1052,-1.1455,-1.2004,-1.2606,-1.257,-1.2672,-1.3164,-1.3173,-1.3268,-1.3476,-1.3367,-1.3433,-1.3684,-1.3264,-1.3144,-1.3384,-1.2904,-1.2724,-1.2733,-1.2303,-1.1872,-1.145,-1.0906,-1.0429,-1.0119,-0.978,-0.968,-0.968,-0.968,-0.9618,-0.9523,-0.9476,-0.9538,-0.9664,-0.9838,-0.9731,-0.951,-0.9624,-0.9475,-0.913,-0.8703,-0.8756,-0.8911,-0.8818,-0.8947,-0.906,-0.8832,-0.8979,-0.9,-0.8367,-0.7845,-0.7467,-0.7123,-0.6469,-0.5732,-0.5049,-0.4373,-0.3697,-0.296,-0.2407,-0.1977,-0.1977,-0.1977,-0.1977,-0.1977,-0.1875,-0.1648,-0.1094,-0.0914,-0.0596,-0.0067,0.0,0.0,0.0,0.0335,0.079,0.1401,0.1341,0.1698,0.2535,0.2193,0.2119,0.2476,0.2121,0.2019,0.2317,0.0,0.0,0.0,0.0,0.0,0.0,0.0,0.0,0.0,0.0,0.0,0.0,0.0,0.0,0.0,0.0,0.0,0.0,0.0,0.0,0.0,0.0,0.0,-1.0281,-1.1063,-1.1629,-1.138,-1.181,-1.2311,-1.2758,-1.2682,-1.2827,-1.3381,-1.34,-1.3485,-1.3684,-1.3384,-1.3384,-1.3693,-1.3084,-1.2724,-1.2724,-1.2664,-1.2363,-1.1776,-1.176,-1.145,-1.0793,-1.0429,-1.0126,-0.9822,-0.9822,-0.9822,-0.9822,-0.9822,-0.9822,-0.9808,-0.9673,-0.9523,-0.9381,-0.9289,-0.9083,-0.8912,-0.8615,-0.8818,-0.9087,-0.832,-0.8146,-0.8375,-0.8653,-0.8813,-0.8923,-0.8916,-0.9013,-0.9004,-0.8355,-0.7845,-0.7449,-0.7388,-0.6653,-0.5732,-0.5049,-0.4373,-0.3635,-0.2714,-0.2222,-0.1977,-0.1977,-0.1977,-0.1977,-0.1977,-0.1688,0.0,-0.1029,-0.0718,-0.0397,-0.0067,0.0,0.0,0.0,0.0266,0.0786,0.142,0.1147,0.1558,0.2778,0.2233,0.2158,0.2769,0.218,0.2147,0.2586,0.0,0.0,0.0,0.0,0.0,0.0,0.0,0.0,0.0,0.0,0.0,0.0,0.0,0.0,0.0,0.0,0.0,0.0,0.0,0.0,0.0,0.0,-1.1124,-1.1202,-1.1383,-1.1754,-1.2377,-1.2614,-1.2867,-1.3429,-1.3426,-1.3483,-1.3599,-1.3608,-1.3756,-1.4052,-1.3753,-1.3753,-1.4052,-1.3204,-1.2844,-1.3084,-1.2371,-1.1949,-1.182,-1.1579,-1.1088,-1.0422,-1.0368,-1.0126,-0.9822,-0.9822,-0.9822,-0.9822,-0.9822,-0.9822,-0.9815,-0.9781,-0.9734,-0.9693,-0.9951,-0.9968,-0.9839,-0.9334,-0.9296,-0.9442,-0.9007,-0.9043,-0.9228,-0.9238,-0.9312,-0.9406,-0.9298,-0.9372,-0.9308,-0.8647,-0.8323,-0.7933,-0.7204,-0.6653,-0.6096,-0.5421,-0.4558,-0.3761,-0.3332,-0.2592,-0.1977,-0.1977,-0.1977,-0.1977,-0.1977,-0.1734,0.0,-0.1028,-0.0712,-0.0392,-0.0066,0.0,0.0,0.0,0.0066,0.0393,0.1033,0.0772,0.1013,0.1779,0.1471,0.1523,0.2158,0.2191,0.2227,0.0,0.0,0.0,0.0,0.0,0.0,0.0,0.0,0.0,0.0,0.0,0.0,0.0,0.0,0.0,0.0,0.0,0.0,0.0,0.0,0.0,0.0,-1.1037,-1.1218,-1.1652,-1.1638,-1.178,-1.2467,-1.2578,-1.2871,-1.3501,-1.3517,-1.3564,-1.3684,-1.3693,-1.3813,-1.3992,-1.3813,-1.3753,-1.3813,-1.3084,-1.2715,-1.2784,-1.213,-1.1708,-1.1571,-1.1269,-1.0785,-1.0308,-1.0126,-1.0004,-0.9822,-0.9822,-0.9822,-0.9822,-0.9822,-0.9822,0.0,0.0,0.0,0.0,0.0,-1.0039,-1.012,-0.9404,-0.9365,-0.9492,-0.8966,-0.9071,-0.94,-0.9253,-0.9412,-0.968,-0.9591,-0.9632,-0.952,-0.8913,-0.8484,-0.7994,-0.7082,-0.653,-0.6035,-0.5364,-0.4499,-0.3761,-0.3394,-0.2592,0.0,-0.1977,-0.1977,-0.1977,-0.1977,-0.1606,-0.1248,-0.1028,-0.0581,-0.0195,0.0,0.0,0.0,0.0,0.0132,0.0,0.0,0.0,0.069,0.1162,0.1396,0.0,0.0,0.0,0.2318,0.2318,0.2095,0.0,0.0,0.1161,0.1103,0.0,0.0,0.0,0.0,0.0,0.0,0.0,0.0,0.0,0.0,0.0,0.0,0.0,0.0,0.0,0.0,-1.1098,-1.1096,-1.1707,-1.1745,-1.1808,-1.2113,-1.2242,-1.2576,-1.332,-1.3282,-1.3384,-1.3633,-1.3624,-1.3693,-1.3693,0.0,0.0,0.0,0.0,-1.2475,-1.2174,-1.1949,-1.1587,-1.1209,-1.0967,-1.0604,-1.0247,-0.9943,-0.9822,-0.9822,-0.9822,-0.9822,-0.9822,-0.9822,-0.9822,-0.9822,-0.9822,-0.9741,-0.9618,-0.9483,-0.9693,-0.9968,-0.9228,0.0,0.0,-0.8666,-0.8807,-0.9163,-0.9059,-0.9367,-0.9795,-0.9795,-0.9808,-0.9633,-0.9019,-0.841,-0.775,-0.7082,-0.6407,-0.5794,-0.5118,-0.4438,-0.3761,-0.3207,-0.2531,-0.2038,-0.2038,-0.2038,-0.1977,-0.1977,-0.1422,-0.1001,-0.1028,-0.0387,0.0,0.0,0.0,0.0,0.0,0.0263,0.0586,0.0858,0.0635,0.0554,0.0848,0.161,0.2071,0.213,0.2219,0.2235,0.2235,0.1717,0.1358,0.0988,0.1218,0.1098,0.0,0.0,0.0,0.0,0.0,0.0,0.0,0.0,0.0,0.0,0.0,0.0,0.0,0.0,0.0,-1.1301,-1.1311,-1.1282,-1.1181,-1.146,-1.1859,-1.2363,-1.2628,-1.2894,-1.32,-1.3485,-1.3504,-1.3324,-1.3324,-1.3384,-1.3684,-1.3204,-1.3084,-1.3564,-1.2724,-1.2294,-1.2174,-1.1949,-1.1526,-1.0906,0.0,0.0,-0.9883,-0.9822,-0.9822,-0.9822,-0.9822,-0.9822,-0.9822,-0.9822,-0.9822,-0.9822,-0.9822,-0.9802,-0.9774,-0.9747,-0.9754,-0.9821,-0.9552,-0.942,-0.9325,-0.9341,-0.9262,-0.9195,-0.9526,-0.9633,0.0,-0.9652,-0.9734,-0.9613,-0.8834,-0.8461,-0.8055,-0.7143,-0.6591,-0.6096,-0.5421,-0.4807,-0.4192,-0.3822,-0.3022,-0.2406,-0.2406,-0.216,-0.1977,-0.1977,-0.1436,-0.1012,-0.1029,-0.0387,0.0,0.0,0.0,0.0,0.0,0.0066,0.0132,0.0201,0.013,0.0253,0.0554,0.049,0.0673,0.1224,0.1288,0.129,0.129,0.1418,0.1358,0.0988,0.1047,0.0992,0.0,0.0,0.0,0.0,0.0,0.0,0.0,0.0,0.0,0.0,0.0,-1.1475,-1.1786,0.0,-1.1362,-1.1451,-1.1292,-1.1133,-1.1028,-1.1517,-1.2041,-1.2425,-1.2443,-1.2631,-1.3126,-1.3024,-1.2964,-1.2964,-1.2964,-1.3024,-1.3204,-1.3204,-1.3144,-1.2964,-1.2784,-1.2414,-1.1752,-1.1639,-1.1216,-1.0543,-1.0543,-1.0368,-1.0065,-1.0065,-1.0065,-1.0065,-1.0065,-0.9943,-0.9822,-0.9822,-0.9822,-0.9822,-0.9822,-0.9822,-0.9822,-0.9822,-0.9822,-0.9808,-0.9741,-0.9519,-0.9316,-0.9354,-0.9294,-0.9226,-0.9406,-0.9593,-0.9713,-0.9713,-0.9768,-0.962,-0.895,-0.8436,-0.7933,-0.7082,-0.653,-0.6035,-0.5483,-0.4868,-0.4315,-0.3943,-0.3143,-0.2529,-0.2529,-0.2222,-0.1977,-0.1977,-0.143,-0.1007,-0.1029,-0.0385,0.0,0.0,0.0,0.0,0.0,0.0,0.0,0.0,0.0,0.0063,0.0247,0.0247,0.0432,0.0741,0.105,0.1239,0.1248,0.156,0.1567,0.1325,0.1451,0.1451,0.0,0.0,0.0,0.0,0.0,0.0,0.0,0.0,-1.0828,-1.1661,-1.1744,-1.1784,-1.2245,-1.1852,-1.1442,-1.1492,-1.124,-1.1085,-1.1028,-1.1574,-1.2099,-1.2366,-1.2207,-1.2335,-1.3066,-1.2603,-1.2414,-1.2655,-1.2655,-1.2655,-1.2724,-1.3084,-1.2964,-1.2234,-1.2664,-1.2423,-1.1329,-1.1269,-1.0967,-1.0308,-1.0368,-1.0368,-1.0308,-1.0368,-1.0368,-1.0308,-1.0247,-1.0065,-0.9822,-0.9822,-0.9822,-0.9822,-0.9822,-0.9822,-0.9822,-0.9822,-0.9822,-0.9822,-0.9822,-0.9579,-0.9255,-0.92,-0.9219,-0.9217,-0.9187,-0.9406,-0.9788,-0.9815,-0.9822,-0.964,-0.9037,-0.8421,-0.775,-0.7082,-0.6407,-0.5855,-0.5544,-0.4991,-0.4499,-0.425,-0.3451,-0.2837,-0.2714,-0.2407,-0.216,-0.2038,-0.1424,-0.1001,-0.1025,-0.0445,0.0,0.0,0.0,0.0,0.0,0.0,0.0,0.0,0.0,0.0,0.0124,0.0309,0.0432,0.0494,0.1111,0.1429,0.1382,0.1826,0.1904,0.1669,0.1938,0.1867,-0.7222,-0.7503,-0.7685,-0.7658,-0.8213,-0.9008,0.0,0.0,-1.1059,-1.1414,-1.1919,-1.2187,-1.1843,-1.1855,-1.1764,-1.1236,-1.1287,-1.1245,-1.1028,-1.146,-1.181,-1.2014,-1.2501,-1.2758,-1.2766,-1.2715,-1.2664,-1.2724,-1.2414,-1.2414,-1.2655,-1.2251,-1.207,-1.2174,-1.207,-1.1768,-1.1269,-1.1269,-1.0967,-1.0308,-1.0604,-1.0604,-1.0308,-1.0611,-1.0604,-1.0301,-1.0004,-0.9822,-0.9822,-0.9822,-0.9822,-0.9822,-0.9822,-0.9822,-0.9822,-0.9822,-0.9822,-0.9822,-0.9822,-0.9579,-0.9275,-0.9255,-0.9239,-0.9168,-0.9217,-0.9419,-0.9659,-0.9788,-0.9822,-0.964,-0.9037,-0.8421,-0.775,-0.7082,-0.6407,-0.5916,-0.5855,-0.5548,-0.5298,-0.5237,-0.4684,-0.4007,-0.3455,-0.3086,-0.2716,-0.21,-0.1437,-0.1009,-0.1012,-0.0443,0.0,0.0,0.0,0.0,0.0,0.0,0.0,0.0,0.0,0.0125,0.0432,0.0185,0.0185,0.0494,0.0864,0.105,0.1052,0.1692,0.1957,0.1961,0.2079,0.1905,-0.6907,-0.7347,-0.7802,0.0,-0.8442,-0.9109,-0.9996,-1.0407,-1.0816,-1.1407,-1.1639,-1.1648,-1.1291,-1.1291,-1.1244,0.0,-1.0998,-1.1141,-1.1028,-1.1404,-1.1718,-1.1794,-1.2035,-1.2273,-1.2389,-1.2141,-1.2073,-1.2182,-1.207,-1.201,-1.2191,-1.207,-1.1941,-1.1692,-1.176,-1.1458,-1.0732,-1.0732,-1.0482,-1.0004,-1.0126,-1.0368,-1.0604,-1.0725,-1.0732,-1.055,-1.0004,-0.9822,-0.9822,-0.9822,-0.9822,-0.9822,-0.9822,-0.9822,-0.9822,-0.9822,-0.9822,-0.9822,-0.9822,-0.9457,-0.9098,-0.9098,-0.8938,-0.885,-0.8994,-0.9179,-0.9394,-0.9721,-0.964,-0.9396,-0.8976,-0.8543,-0.7994,-0.7082,-0.653,-0.6162,-0.5916,-0.5605,-0.5421,-0.5421,-0.4684,-0.4007,-0.3761,-0.3145,-0.259,-0.2346,-0.1552,-0.1001,-0.101,-0.0439,0.0,0.0,0.0,0.0,0.0,0.0,0.0,0.0,0.0,0.0062,0.0185,0.0247,0.037,0.0494,0.105,0.1308,0.133,0.1848,0.2054,0.2072,0.2116,0.2059,-0.6648,0.0,0.0,-0.8126,-0.8612,-0.9217,-1.0014,-1.0345,-1.0634,-1.121,-1.1315,-1.1176,-1.0741,-1.0695,-1.0695,-1.042,-1.0633,-1.0859,-1.0964,-1.1305,-1.1519,-1.1446,-1.1413,-1.1529,-1.1945,-1.1692,-1.1633,-1.1881,-1.1837,-1.1837,-1.1889,-1.1941,-1.1752,-1.1329,-1.145,-1.1148,-1.0308,-1.0308,-1.0126,-0.9822,-0.9883,-1.0126,-1.055,-1.055,-1.055,-1.0604,-1.0065,-0.9822,-0.9822,-0.9822,-0.9822,-0.9822,-0.9822,-0.9822,-0.9822,-0.9822,-0.9822,-0.9822,-0.9822,-0.9518,-0.9159,-0.9037,-0.8962,-0.896,-0.9006,-0.9144,-0.938,-0.9727,-0.964,-0.9396,-0.9098,-0.8726,-0.8177,-0.7266,-0.6714,-0.628,-0.5978,-0.5732,-0.5544,-0.5544,-0.4868,-0.425,-0.4069,-0.333,-0.2714,-0.2529,-0.1667,-0.0992,-0.1003,-0.0435,0.0,0.0,0.0,0.0,0.0,0.0,-0.0062,-0.0125,-0.0062,0.0,0.0,0.0309,0.0557,0.0621,0.118,0.1509,0.1613,0.1935,0.2075,0.2097,0.212,0.2123,0.0,0.0,-0.7897,-0.7897,-0.8531,-0.9294,-0.9563,-1.0178,-1.0688,-1.0743,-1.1045,-1.1016,-1.0206,-1.0259,-1.0305,-1.0045,-1.0202,-1.0493,-1.0948,-1.1028,-1.0981,-1.0862,-1.0679,-1.0776,0.0,-1.15,-1.1692,-1.2165,-1.1949,-1.1889,-1.2174,-1.1631,-1.1337,-1.1269,-1.0967,-1.0671,-1.0308,-1.0308,-1.0126,-0.9822,-1.0126,-1.0126,-0.9822,-0.9822,-1.0004,-1.0308,-0.9943,-0.9822,-0.9822,-0.9822,-0.9822,-0.9822,-0.9822,-0.9822,-0.9822,-0.9822,-0.9822,-0.9822,-0.9822,-0.9761,-0.97,-0.9396,-0.9518,-0.9694,-0.9396,-0.9518,-0.9754,-0.9822,-0.9822,-0.97,-0.9396,-0.8848,-0.8233,-0.7566,-0.6893,-0.628,-0.5978,-0.5916,-0.5855,-0.5855,-0.5605,-0.5176,-0.4499,-0.3887,-0.3271,-0.259,-0.1667,-0.0988,-0.0989,-0.0432,0.0,0.0,0.0,0.0,0.0,0.0,-0.0123,-0.0494,-0.0185,0.0,0.0,0.0309,0.0622,0.101,0.1324,0.1524,0.1613,0.1935,0.2128,0.213,0.2131,0.2082,-0.6782,0.0,-0.8401,-0.8189,-0.8602,-0.9078,-0.9406,-0.9779,-1.0147,-1.0366,-1.0514,-1.0407,-0.9934,-0.9996,-0.9999,-0.9918,-1.0137,-1.0419,-1.054,-1.0841,-1.0976,-1.0755,-1.1156,0.0,0.0,0.0,0.0,-1.2148,-1.1949,-1.1768,-1.1639,-1.1398,-1.1088,-1.0664,-1.0543,-1.0308,-0.9943,-0.9943,-0.9943,-0.9822,-1.0126,-1.0247,-1.0126,-1.0126,-1.0186,-1.0301,-0.9943,-0.9822,-0.9822,-0.9822,-0.9822,-0.9822,-0.9822,-0.9822,-0.9822,-0.9822,-0.9822,-0.9822,-0.9822,-0.9822,-0.9761,-0.9396,-0.9331,-0.9333,-0.931,-0.9331,-0.9373,-0.962,-0.9566,-0.9438,-0.9219,-0.8962,-0.8482,-0.7633,-0.7082,-0.6591,-0.6039,-0.5916,-0.5916,-0.5916,-0.5605,-0.5237,-0.481,-0.4192,-0.3391,-0.2342,-0.1481,-0.0864,-0.037,-0.0123,0.0,0.0,0.0,0.0,0.0,-0.0185,-0.0309,-0.0185,-0.0247,-0.0123,0.0309,0.0623,0.1005,0.1325,0.172,0.1934,0.1963,0.2029,0.2083,0.2128,0.2084,0.2078,-0.7222,-0.7886,-0.8561,-0.8512,-0.8701,-0.8995,-0.9327,-0.9552,-0.9781,-1.0,-0.989,-0.9753,-0.9597,-0.9512,-0.954,-0.9771,-0.9944,-1.0116,-1.0288,-1.0696,-1.0877,-1.0667,-1.1226,-1.1742,0.0,0.0,0.0,-1.2337,-1.2001,-1.1768,-1.1631,-1.1511,-1.1209,-1.0671,-1.0429,-1.0186,-1.0004,-0.9883,-0.9822,-0.9822,-0.9883,-1.0004,-1.0126,-1.0004,-1.0004,-1.0126,-0.9883,-0.9822,-0.9822,-0.9822,-0.9822,-0.9822,-0.9822,-0.9822,-0.9815,-0.9768,-0.9808,-0.9868,-0.9747,-0.9781,-0.9754,-0.9519,-0.9353,-0.9327,-0.9305,-0.9254,-0.9295,-0.9367,-0.9394,-0.9366,-0.9149,-0.8992,-0.8671,-0.7811,-0.7327,-0.6898,-0.6223,-0.6101,-0.6039,-0.5916,-0.5605,-0.536,-0.5118,-0.4315,-0.333,-0.2157,-0.1419,-0.0803,-0.0247,-0.0062,0.0,0.0,0.0,-0.0062,-0.0185,-0.037,-0.0432,-0.037,-0.0432,-0.0186,0.0498,0.0816,0.1205,0.173,0.1994,0.2079,0.2109,0.2087,0.2067,0.2048,0.2057,0.2052,-0.7974,-0.8235,-0.8432,-0.8796,-0.8885,-0.8989,-0.9258,-0.941,-0.9463,-0.9448,-0.925,-0.9086,0.0,0.0,-0.8925,-0.9667,-0.9618,-0.9676,-1.0178,-1.0539,-1.0659,0.0,0.0,0.0,0.0,0.0,0.0,-1.2706,0.0,-1.1933,-1.2174,-1.1941,-1.1639,-1.1329,-1.0664,-1.0368,-1.0361,-1.0004,-0.9822,-0.9761,-0.9457,-0.9457,-0.9761,-0.9457,-0.9518,-0.9822,-0.9822,-0.9822,-0.9822,-0.9822,-0.9822,-0.9822,-0.9822,-0.9822,-0.9802,-0.9673,-0.9797,-1.0021,-0.9717,-0.9693,-0.9788,-0.9652,-0.97,-0.9721,-0.9341,-0.9361,-0.9505,-0.9007,-0.9255,-0.9545,-0.9176,-0.8985,-0.8732,-0.8055,-0.7627,-0.7199,-0.6526,-0.6403,-0.628,-0.5978,-0.5605,-0.536,-0.536,-0.4315,-0.3147,-0.2157,-0.1419,-0.0864,-0.0556,-0.0247,0.0,0.0,0.0,-0.0185,-0.0494,-0.0494,-0.0679,-0.0926,-0.068,-0.0187,0.0504,0.0822,0.1347,0.2108,0.208,0.208,0.2109,0.2049,0.202,0.2018,0.1992,0.2008,-0.8111,-0.8414,-0.8783,-0.8871,-0.8885,-0.8851,-0.8634,-0.8818,-0.8968,-0.8534,-0.8584,-0.8598,0.0,0.0,0.0,-0.9428,-0.9671,0.0,-0.9904,-1.031,0.0,-1.0892,0.0,-1.2228,-1.3061,-1.2684,0.0,0.0,-1.2844,-1.2303,-1.1933,-1.182,-1.176,-1.1692,-1.1269,-1.1148,-1.1398,-1.0604,-0.9943,-0.9396,-0.9335,-0.9335,-0.9457,-0.9579,-0.97,-0.9822,-0.9822,-0.9822,-0.9822,-0.9822,-0.9822,-0.9822,-0.9822,-0.9822,-0.9815,-0.9781,-0.976,-0.971,-0.9535,-0.9714,-0.9958,-0.9678,-0.9632,-0.9593,-0.9314,-0.9347,-0.935,-0.8858,-0.9175,-0.9525,-0.9059,-0.8916,-0.8732,-0.8055,-0.7627,-0.7199,-0.6526,-0.6403,-0.628,-0.5978,-0.5425,-0.5056,-0.5056,-0.3761,-0.2652,-0.2406,-0.1357,-0.0679,-0.0864,-0.037,-0.0123,-0.037,-0.037,-0.0432,-0.0494,-0.0741,-0.0803,-0.0617,-0.0562,-0.0063,0.0821,0.1031,0.1373,0.2109,0.2102,0.2102,0.2109,0.2071,0.2041,0.2019,0.2011,0.2016,-0.8308,-0.8441,-0.8694,-0.8865,-0.8776,-0.8587,-0.8434,-0.8515,-0.8514,-0.813,-0.7981,0.0,0.0,0.0,0.0,0.0,0.0,0.0,-0.9786,-1.007,-1.048,0.0,-1.1693,0.0,-1.3445,-1.2901,-1.2784,0.0,-1.3024,-1.2603,-1.2423,-1.2423,-1.2363,-1.2174,-1.1872,-1.1631,-1.1571,-1.1035,-1.0429,-0.9761,-0.9761,-0.964,-0.9518,-0.97,-0.9822,-0.9822,0.0,-0.9822,-0.9822,-0.9822,-0.9822,-0.9822,-0.9822,-0.9781,-0.9727,-0.9727,-0.9639,-0.9496,-0.9408,-0.9552,-0.9731,-0.9487,-0.9503,-0.9525,-0.8981,-0.8988,-0.9051,-0.8552,-0.8858,-0.9275,-0.878,-0.8772,-0.8732,-0.8055,-0.775,-0.7444,-0.6775,-0.6591,-0.6469,-0.5978,-0.5486,-0.5056,-0.4933,-0.3884,-0.3022,-0.2775,-0.1851,-0.1235,-0.142,-0.0617,-0.0185,-0.0679,-0.0617,-0.0617,-0.0926,-0.0988,-0.0929,-0.0748,-0.0566,-0.0127,0.0772,0.0784,0.1123,0.1663,0.1774,0.1828,0.1828,0.1982,0.2016,0.2,0.2,0.2014,-0.8522,-0.8421,-0.8419,-0.8742,-0.858,-0.834,-0.8308,-0.8247,-0.8133,-0.7846,0.0,-0.726,-0.769,-0.7839,-0.8183,-0.9005,0.0,-0.9306,-0.9662,-0.9839,-1.0277,-1.12,-1.1653,-1.2368,-1.3545,-1.2784,-1.2535,-1.3204,-1.2904,-1.2844,-1.3204,-1.3204,-1.3024,-1.2724,-1.2475,-1.2053,-1.1398,-1.1398,-1.1027,-1.0308,-1.0247,-1.0065,-0.9822,-0.9822,-0.9822,-0.9822,-0.9822,-0.9822,-0.9822,-0.9822,-0.9822,-0.9822,-0.9822,-0.9734,-0.9612,-0.9632,-0.9517,-0.9412,-0.9432,-0.9367,-0.9334,-0.9218,-0.9347,-0.9386,-0.8495,-0.8507,-0.8724,-0.8139,-0.8462,-0.8919,-0.8454,-0.8611,-0.8671,-0.8055,-0.7872,-0.775,-0.7082,-0.6898,-0.6648,-0.6023,-0.5602,-0.5237,-0.492,-0.4309,-0.3638,-0.3083,-0.2406,-0.1974,-0.1977,-0.0926,-0.037,-0.0988,-0.0803,-0.0864,-0.1358,-0.1175,-0.0997,-0.0947,-0.0634,-0.0128,0.0461,0.0528,0.0664,0.1074,0.1308,0.1482,0.1479,0.1815,0.1977,0.1977,0.1977,0.2008,-0.8405,-0.8506,-0.8582,-0.8322,-0.8428,-0.8395,-0.7591,-0.757,0.0,0.0,-0.6748,-0.6709,-0.6703,-0.7036,0.0,-0.7543,0.0,0.0,0.0,0.0,-1.0058,0.0,0.0,0.0,0.0,0.0,0.0,0.0,0.0,-1.2844,-1.3204,-1.3204,-1.3024,-1.2724,-1.3204,-1.2904,-1.1692,-1.17,-1.1209,-1.0308,-1.0004,-0.9883,-0.9822,-0.9822,-0.9822,-0.9822,-0.9822,0.0,-0.9822,-0.9822,-0.9822,-0.9822,-0.9822,-0.9734,-0.9625,-0.9741,-0.9707,-0.9546,-0.9449,-0.93,-0.9211,-0.9018,-0.912,-0.9104,-0.8142,-0.8262,-0.8616,-0.7992,-0.8247,-0.8581,-0.8266,-0.8317,-0.8366,-0.7994,-0.7872,-0.7811,-0.7388,-0.6893,-0.6381,-0.5879,-0.5376,-0.4974,-0.4851,-0.4099,-0.3455,-0.3086,-0.2406,-0.1974,-0.1977,-0.1296,-0.0988,-0.1358,-0.1358,-0.1235,-0.1111,-0.1062,-0.0882,-0.0631,-0.0258,0.0066,0.0461,0.0533,0.0668,0.1125,0.1106,0.1218,0.1519,0.1557,0.173,0.1977,0.1977,0.2008,-0.844,-0.832,-0.8217,-0.8118,-0.8164,-0.8086,-0.7554,0.0,0.0,0.0,-0.6653,-0.6457,-0.6398,0.0,0.0,0.0,0.0,0.0,0.0,0.0,0.0,0.0,0.0,0.0,0.0,0.0,0.0,0.0,0.0,-1.2904,-1.3444,-1.3264,-1.3144,-1.2964,-1.3084,-1.2784,-1.1993,-1.1993,-1.1631,-1.0853,-1.0671,-1.0482,-1.0308,-0.9943,-0.9883,-1.0065,-0.97,-0.964,-0.9822,-0.9822,-0.9822,-0.9822,-0.9822,-0.9686,-0.951,-0.9659,-0.9593,-0.9398,-0.9384,-0.9222,-0.888,-0.8673,-0.8647,-0.8577,-0.7883,-0.801,-0.8265,-0.7844,-0.8043,-0.8319,-0.8008,-0.8066,-0.811,-0.7747,-0.7616,-0.7462,-0.7225,-0.6774,-0.6297,-0.6026,-0.5482,-0.5043,-0.4828,-0.4304,-0.3717,-0.3047,-0.2663,-0.2289,-0.1989,-0.1639,-0.1525,-0.1708,-0.1403,-0.1163,-0.1234,-0.094,-0.0699,-0.0516,-0.0196,0.0066,0.0264,0.0265,0.0331,0.0522,0.0836,0.1081,0.1262,0.1617,0.1853,0.1977,0.1977,0.2008,-0.8278,-0.8117,-0.7923,-0.7956,-0.7962,-0.7808,-0.754,-0.7322,0.0,0.0,-0.67,-0.6437,-0.6487,0.0,0.0,0.0,0.0,0.0,0.0,0.0,0.0,0.0,0.0,0.0,0.0,0.0,0.0,0.0,0.0,0.0,-1.3693,-1.3384,-1.3144,-1.3084,-1.2844,-1.2483,-1.2122,-1.2174,-1.1933,-1.1398,-1.1337,-1.1148,-1.0906,-1.0308,-1.0126,-1.0247,-0.9761,-0.964,-0.9822,-0.9822,-0.9822,-0.9815,-0.9788,-0.9612,-0.9395,-0.9517,-0.9425,-0.9243,-0.9337,-0.906,-0.8708,-0.832,-0.8207,-0.8132,-0.7639,-0.7703,-0.7899,-0.7702,-0.7824,-0.8036,-0.7916,-0.7887,-0.785,-0.7615,-0.7369,-0.7218,-0.713,-0.6705,-0.6318,-0.6161,-0.5688,-0.5148,-0.4833,-0.4485,-0.3956,-0.2998,-0.2848,-0.259,-0.2003,-0.1907,-0.1861,-0.1801,-0.1329,-0.1097,-0.1172,-0.0752,-0.0447,-0.0393,-0.0132,0.0,0.0,0.0,0.0,0.0,0.0508,0.0883,0.1006,0.1553,0.1853,0.1977,0.1977,0.2067,-0.7711,-0.7971,-0.8139,-0.7761,-0.7978,-0.8042,-0.7223,0.0,0.0,-0.7027,-0.67,-0.6487,-0.6742,-0.6637,0.0,0.0,0.0,0.0,0.0,0.0,0.0,0.0,0.0,0.0,0.0,0.0,0.0,0.0,0.0,0.0,-1.3693,-1.3384,-1.3084,-1.2784,-1.2724,-1.2423,-1.1837,-1.2062,-1.2062,-1.1776,-1.1458,-1.1269,-1.1209,-1.0853,-1.055,-1.0308,-1.0247,-1.0065,0.0,-0.9822,-0.9822,-0.9808,-0.968,-0.953,-0.9381,-0.9395,-0.9382,-0.9362,-0.9236,-0.9069,-0.8781,-0.8227,-0.8011,-0.7949,-0.7382,-0.7528,-0.78,-0.7777,-0.7651,-0.7674,-0.7994,-0.7914,-0.7741,-0.7687,-0.7547,-0.7471,-0.7466,-0.6998,-0.6506,-0.6398,-0.5772,-0.5108,-0.4684,-0.438,-0.3889,-0.2949,-0.2827,-0.259,-0.2003,-0.1888,-0.1771,-0.1476,-0.1454,-0.1233,-0.0617,-0.0501,-0.0382,-0.0065,0.0,0.0,0.0,0.0,0.0,0.0,0.0063,0.0376,0.099,0.105,0.142,0.1977,0.1977,0.218,-0.7813,-0.8052,-0.8213,-0.7709,-0.7985,-0.8149,-0.7335,0.0,0.0,-0.6976,-0.6608,-0.6437,-0.6537,-0.6592,-0.6659,0.0,0.0,0.0,0.0,0.0,0.0,0.0,0.0,0.0,0.0,0.0,0.0,0.0,0.0,0.0,-1.3693,-1.3204,-1.2724,-1.2414,-1.2242,-1.201,-1.1776,-1.1889,-1.1889,-1.1776,-1.1647,-1.1587,-1.1587,-1.1035,-1.0846,-1.0853,-1.0247,-1.0016,0.0,-0.9842,-0.9768,-0.9693,-0.9727,-0.9591,-0.9381,-0.9381,-0.9248,-0.9113,-0.9057,-0.887,-0.8595,-0.8374,-0.8152,-0.7875,-0.7376,-0.7578,-0.8004,-0.7753,-0.7772,-0.7939,-0.7927,-0.7713,-0.7539,-0.7713,-0.7558,-0.7388,-0.7545,-0.7132,-0.6747,-0.6633,-0.6125,-0.558,-0.5079,-0.4725,-0.4341,-0.3771,-0.3209,-0.2726,-0.2437,-0.2107,-0.1715,-0.1134,-0.1149,-0.0978,-0.0494,-0.0313,-0.0127,0.0,0.0,0.0,0.0,0.0,0.0,0.0,0.0374,0.0745,0.0988,0.142,0.173,0.1977,0.1977,0.2054,-0.7635,-0.796,-0.8167,-0.7718,-0.7938,-0.8049,0.0,0.0,0.0,-0.6992,-0.6637,-0.6437,-0.6587,-0.6642,-0.6842,0.0,0.0,0.0,0.0,0.0,0.0,0.0,0.0,0.0,0.0,0.0,0.0,0.0,0.0,0.0,-1.3264,-1.2904,-1.2595,-1.2354,-1.201,-1.1776,-1.1776,-1.1776,-1.1776,-1.1776,-1.1719,-1.1719,-1.1776,-1.123,-1.1042,-1.1095,-1.049,-1.0162,0.0,-0.9942,-0.9801,-0.9618,-0.972,-0.9632,-0.9435,-0.9347,-0.9184,-0.8994,-0.8898,-0.8768,-0.8595,-0.8429,-0.8325,-0.8159,-0.7432,-0.7662,-0.8114,-0.7905,-0.8057,-0.8184,-0.7852,-0.7589,-0.744,-0.7624,-0.7477,-0.7314,-0.7572,-0.7258,-0.6863,-0.6781,-0.6403,-0.5873,-0.5265,-0.5013,-0.4736,-0.4328,-0.3457,-0.286,-0.2774,-0.2281,-0.1659,-0.0964,-0.103,-0.0854,-0.0308,-0.0125,0.0,0.0,0.0,0.0,0.0,0.0,0.0,0.0,0.0556,0.0926,0.0988,0.1544,0.1915,0.1977,0.1977,0.2054,-0.7067,-0.7489,-0.7954,-0.7644,-0.7748,-0.7744,0.0,0.0,0.0,-0.7135,-0.6786,-0.6587,-0.7086,-0.6736,-0.6686,-0.7478,0.0,0.0,0.0,0.0,0.0,0.0,0.0,0.0,0.0,0.0,0.0,0.0,0.0,0.0,-1.2234,-1.2543,-1.2724,-1.2715,-1.213,-1.1776,-1.1776,-1.1776,-1.1776,-1.1776,-1.1589,-1.1598,-1.1768,-1.1589,-1.124,-1.0853,-1.1148,-1.0643,0.0,-1.0123,-1.0035,-0.9612,-0.9612,-0.9612,-0.9571,-0.9323,-0.9207,-0.9187,-0.8988,-0.8885,-0.8774,-0.8214,-0.838,-0.8663,-0.7543,-0.7598,-0.8048,-0.8374,-0.8458,-0.8292,-0.7875,-0.7657,-0.7486,-0.7366,-0.7241,-0.7271,-0.7549,-0.7258,-0.6883,-0.6826,-0.6397,-0.5914,-0.5242,-0.5115,-0.4883,-0.4306,-0.3568,-0.3063,-0.293,-0.2296,-0.1659,-0.0964,-0.1285,-0.1111,-0.0062,0.0,0.0,0.0,0.0,0.0,0.0,0.0,0.0,0.0,0.0309,0.0679,0.0988,0.1358,0.1668,0.1977,0.1977,0.2241,-0.7214,-0.7686,-0.8231,-0.7927,-0.7945,-0.7805,-0.7252,0.0,0.0,0.0,-0.6792,-0.6742,-0.6892,-0.6792,-0.6921,-0.7611,0.0,0.0,0.0,0.0,0.0,0.0,0.0,0.0,0.0,0.0,0.0,0.0,0.0,0.0,-1.3204,-1.2904,-1.2595,-1.2354,-1.201,-1.1776,-1.1776,-1.1776,-1.1711,-1.1589,-1.1524,-1.1533,-1.1581,-1.1524,-1.1478,-1.1466,-1.1337,-1.0815,-1.0113,-1.0733,-1.039,-0.9535,-1.0151,-1.0053,-0.9598,-0.9503,-0.9334,-0.92,-0.9103,-0.9022,-0.8885,-0.8657,-0.8602,-0.8602,-0.8436,-0.8491,-0.8602,-0.854,-0.8464,-0.8381,-0.8217,-0.7834,-0.7588,-0.7867,-0.7599,-0.7358,-0.7784,-0.7379,-0.6942,-0.6937,-0.6495,-0.6022,-0.5641,-0.5447,-0.5227,-0.499,-0.4018,-0.3253,-0.3167,-0.2456,-0.1747,-0.1347,-0.1416,-0.1178,-0.0439,-0.0373,-0.0435,-0.0694,-0.0438,-0.0311,-0.0311,-0.0311,-0.0124,0.0309,0.0679,0.0988,0.1358,0.1668,0.1915,0.1977,0.2222,0.2536,0.0,-0.7756,-0.8201,-0.7903,-0.7813,0.0,0.0,0.0,0.0,0.0,0.0,0.0,0.0,0.0,0.0,0.0,0.0,0.0,0.0,0.0,0.0,0.0,0.0,0.0,0.0,0.0,0.0,0.0,0.0,0.0,-1.3504,-1.3024,-1.2595,-1.2414,-1.201,-1.1776,-1.1776,-1.1703,-1.1614,-1.15,-1.1362,-1.137,-1.15,-1.1427,-1.1473,-1.1587,-1.1639,-1.1173,0.0,-1.128,-1.0994,-1.0076,-1.0628,-1.0485,-1.0032,-0.9683,-0.9401,-0.9282,-0.911,-0.9015,-0.8885,-0.8768,-0.8546,-0.8387,-0.8723,-0.887,-0.883,-0.8595,-0.847,-0.8381,-0.8205,-0.7863,-0.7654,-0.7858,-0.763,-0.7484,-0.7735,-0.7498,-0.7177,-0.6936,-0.6662,-0.6301,-0.5846,-0.5645,-0.5479,-0.5305,-0.4315,-0.3482,-0.3401,-0.2482,-0.1821,-0.1541,-0.1606,-0.1491,-0.0946,-0.0748,-0.0806,-0.1001,-0.0683,-0.0494,-0.0494,-0.037,-0.0062,0.0494,0.0803,0.1173,0.1482,0.1853,0.1977,0.1977,0.2222,0.2599,0.0,-0.7729,-0.7928,-0.7673,-0.758,-0.7431,0.0,0.0,0.0,0.0,0.0,0.0,0.0,0.0,0.0,0.0,0.0,0.0,0.0,0.0,0.0,0.0,0.0,0.0,0.0,0.0,0.0,0.0,0.0,0.0,-1.3204,-1.2844,-1.2655,-1.2637,-1.2053,-1.176,-1.1837,-1.1581,-1.1484,-1.1476,-1.1135,-1.1151,-1.1476,-1.1297,-1.1243,0.0,-1.1864,-1.1587,-1.0747,-1.1731,-1.1766,-1.1102,-1.0959,-1.0838,-1.0688,-0.9783,-0.9439,-0.934,-0.9055,-0.8892,-0.883,-0.8546,-0.8269,-0.8078,-0.8483,-0.8706,-0.8774,-0.854,-0.8414,-0.8311,-0.7892,-0.7758,-0.7676,-0.7568,-0.7535,-0.7535,-0.754,-0.7633,-0.7475,-0.681,-0.6771,-0.6625,-0.5927,-0.579,-0.567,-0.5305,-0.4469,-0.3763,-0.3505,-0.256,-0.1824,-0.1541,-0.1791,-0.1862,-0.1572,-0.1244,-0.105,-0.1051,-0.0741,-0.0556,-0.0556,-0.0185,0.0123,0.0556,0.0864,0.1235,0.1543,0.1853,0.1977,0.1977,0.2038,0.2426,-0.7879,0.0,-0.7945,-0.7642,-0.7573,-0.7491,0.0,0.0,0.0,0.0,0.0,0.0,0.0,0.0,0.0,0.0,0.0,0.0,0.0,0.0,0.0,0.0,0.0,0.0,0.0,0.0,0.0,0.0,0.0,-1.3264,-1.3204,-1.2655,-1.2294,-1.2158,-1.1802,-1.1749,-1.2122,-1.1561,-1.1289,-1.1281,-1.107,-1.1078,-1.1289,-1.124,-1.1368,-1.1639,-1.1443,-1.1304,-1.1323,-1.1541,-1.1533,-1.1441,-1.16,-1.128,-1.0748,-1.0244,-0.9787,-0.9354,-0.9171,-0.9028,-0.883,-0.8269,-0.8115,-0.8132,-0.7897,-0.8017,-0.8214,-0.8159,-0.8124,-0.8032,-0.7655,-0.7648,-0.7714,-0.7774,-0.772,-0.7682,-0.7769,-0.763,-0.7347,-0.6921,-0.6696,-0.6399,-0.5949,-0.5884,-0.5701,-0.5089,-0.4584,-0.3977,-0.3204,-0.2645,-0.2213,-0.1914,-0.1977,-0.1979,-0.1862,-0.1547,-0.1489,-0.1756,-0.1429,-0.1173,-0.0864,-0.0556,0.0,0.0864,0.1482,0.1791,0.1853,0.1977,0.1977,0.1977,0.2284,0.2596,-0.7988,-0.7889,-0.7796,-0.7796,-0.759,-0.7391,-0.7391,0.0,0.0,0.0,0.0,0.0,0.0,0.0,0.0,0.0,0.0,0.0,0.0,0.0,0.0,0.0,0.0,0.0,0.0,0.0,0.0,0.0,0.0,-1.2904,-1.2724,-1.2337,-1.2073,-1.1972,-1.152,-1.1495,-1.1869,-1.1339,-1.1143,-1.1224,-1.0964,-1.0932,-1.111,-1.1183,-1.1378,-1.1646,-1.1541,-1.1549,-1.1682,-1.1887,-1.1913,-1.1913,-1.1795,-1.1559,-1.1299,-1.0336,-0.9846,-0.9595,-0.9216,-0.8937,-0.8726,-0.8394,-0.8272,-0.8214,-0.7914,-0.7891,-0.7975,-0.7856,-0.7903,-0.7927,-0.7577,-0.7611,-0.7731,-0.7845,-0.7823,-0.7796,-0.7856,-0.775,-0.7505,-0.7204,-0.6837,-0.653,-0.6162,-0.5978,-0.5671,-0.4995,-0.4626,-0.4069,-0.3145,-0.2714,-0.2344,-0.2038,-0.1977,-0.1977,-0.1977,-0.1853,-0.1798,-0.1999,-0.1551,-0.1173,-0.0988,-0.037,0.037,0.1235,0.173,0.1977,0.1977,0.1977,0.1977,0.2038,0.2344,0.2652,-0.7955,-0.7763,-0.7614,-0.7955,-0.777,-0.7478,-0.7664,0.0,0.0,0.0,0.0,0.0,0.0,0.0,0.0,0.0,0.0,0.0,0.0,0.0,0.0,0.0,0.0,0.0,0.0,0.0,0.0,0.0,0.0,-1.25,-1.2192,-1.1963,-1.1854,-1.1829,-1.1298,-1.111,-1.1411,-1.1094,-1.1029,-1.1216,-1.0858,-1.0794,-1.0972,-1.1143,-1.1321,-1.15,0.0,0.0,-1.184,-1.2132,-1.234,-1.239,-1.1779,-1.1745,-1.1946,-1.0398,-0.9957,-0.9957,-0.9217,-0.8878,-0.8686,-0.8608,-0.8437,-0.8248,-0.7991,-0.7938,-0.7904,-0.7675,-0.7778,-0.7891,-0.7663,-0.7697,-0.7752,-0.7911,-0.7933,-0.7872,-0.7872,-0.7872,-0.7811,-0.7449,-0.7143,-0.6775,-0.6464,-0.6101,-0.5671,-0.4995,-0.4687,-0.413,-0.3207,-0.2775,-0.2467,-0.2099,-0.2038,-0.1977,-0.1977,-0.1977,-0.1977,-0.1977,-0.142,-0.0988,-0.0803,0.0123,0.0864,0.1544,0.1791,0.1977,0.1977,0.1977,0.1977,0.2038,0.2406,0.2714,-0.7848,-0.7459,-0.732,-0.8188,-0.8483,-0.8442,0.0,0.0,0.0,0.0,0.0,0.0,0.0,0.0,0.0,0.0,0.0,0.0,0.0,0.0,0.0,0.0,0.0,0.0,0.0,0.0,0.0,0.0,0.0,-1.2368,-1.2073,-1.1595,-1.1257,-1.1167,-1.1053,-1.0997,-1.111,-1.0842,-1.0899,-1.1216,-1.0858,-1.0794,-1.0972,-1.1143,-1.1321,-1.15,0.0,-1.1516,-1.1938,-1.1288,-1.1669,-1.2515,-1.1955,-1.1916,-1.2003,-1.1368,-1.077,-1.0141,-0.9551,-0.9,-0.8573,-0.8494,-0.8131,-0.7773,-0.761,-0.7648,-0.7703,-0.7561,-0.7626,-0.779,-0.8028,-0.7999,-0.7972,-0.8238,-0.8122,-0.7872,-0.7872,-0.7872,-0.7811,-0.7449,-0.7143,-0.6775,-0.6464,-0.6101,-0.5671,-0.4995,-0.4872,-0.4502,-0.3517,-0.3147,-0.2775,-0.2467,-0.216,-0.1977,-0.1977,-0.1977,-0.1977,-0.1977,-0.1668,-0.0926,0.0247,0.0679,0.1235,0.1915,0.1668,0.173,0.1977,0.1974,0.1974,0.2038,0.2654,0.2775,-0.7814,-0.7427,-0.724,-0.8249,-0.842,-0.8442,0.0,0.0,0.0,0.0,0.0,0.0,0.0,0.0,0.0,0.0,0.0,0.0,0.0,0.0,0.0,0.0,0.0,0.0,0.0,0.0,0.0,0.0,0.0,0.0,-1.1587,-1.1298,-1.1045,-1.1028,-1.0875,-1.0867,-1.1028,-1.0785,-1.0826,-1.1086,-1.0818,-1.0737,-1.0826,-1.1102,-1.1101,-1.0985,0.0,-1.1237,-1.1338,-1.1216,-1.1541,-1.2155,-1.1898,-1.1972,-1.2108,-1.1501,-1.0758,-1.0026,-0.9645,-0.9124,-0.8575,-0.8337,-0.8005,-0.7665,-0.7475,-0.7508,-0.7578,-0.7453,-0.7557,-0.7758,-0.8116,-0.7976,-0.7917,-0.8294,-0.8122,-0.7872,-0.7872,-0.7872,-0.7872,-0.7689,-0.7266,-0.6837,-0.6714,-0.6223,-0.5671,-0.4995,-0.4872,-0.4564,-0.364,-0.3209,-0.2899,-0.2529,-0.2222,-0.1977,-0.1977,-0.1977,-0.1853,-0.1482,-0.1296,-0.0679,0.0432,0.0617,0.0988,0.142,0.1482,0.1606,0.173,0.2097,0.2282,0.2284,0.2962,0.3086,-0.7794,-0.7526,-0.7439,-0.8227,0.0,0.0,0.0,0.0,0.0,0.0,0.0,0.0,0.0,0.0,0.0,0.0,0.0,0.0,0.0,0.0,0.0,0.0,0.0,0.0,0.0,0.0,0.0,0.0,0.0,0.0,-1.1167,-1.0997,-1.0907,-1.0907,-1.0769,-1.0761,-1.0907,-1.0761,-1.0785,-1.102,-1.0785,-1.0688,-1.0704,-1.1021,-1.098,-1.0642,-1.1036,-1.1085,-1.0872,-1.1247,-1.1556,-1.1745,-1.1789,-1.198,-1.2134,-1.1528,-1.0848,-1.0142,-0.9783,-0.9268,-0.8706,-0.8295,-0.798,-0.7622,-0.7437,-0.7442,-0.7497,-0.7404,-0.7513,-0.7725,-0.811,-0.7937,-0.7791,-0.8276,-0.8122,-0.7872,-0.7872,-0.7872,-0.7872,-0.7872,-0.7388,-0.6903,-0.6903,-0.6346,-0.5671,-0.5118,-0.4933,-0.4626,-0.3825,-0.3394,-0.296,-0.2652,-0.2346,-0.2037,-0.1915,-0.1853,-0.1606,-0.0926,-0.0864,-0.0494,0.0432,0.0556,0.0803,0.1111,0.1358,0.1543,0.1606,0.2159,0.2406,0.2529,0.3209,0.3332,-0.774,-0.7886,-0.7961,-0.8115,0.0,0.0,0.0,0.0,0.0,0.0,0.0,0.0,0.0,0.0,0.0,0.0,0.0,0.0,0.0,0.0,0.0,0.0,0.0,0.0,0.0,0.0,0.0,0.0,0.0,0.0,-1.1045,-1.081,-1.0712,-1.0712,-1.0696,-1.0696,-1.0712,-1.0696,-1.0785,-1.102,-1.0785,-1.0688,-1.0696,-1.0899,-1.098,-1.098,-1.1151,-1.1135,-1.0988,-1.131,-1.1479,-1.1608,-1.1737,-1.1854,-1.1871,-1.1593,-1.1343,-1.1057,-1.0105,-0.9533,-0.9063,-0.8414,-0.7918,-0.7529,-0.7508,-0.7513,-0.7519,-0.7508,-0.7519,-0.7615,-0.8087,-0.7937,-0.7791,-0.8276,-0.8122,-0.7872,-0.7872,-0.7872,-0.7872,-0.7872,-0.7388,-0.6903,-0.6903,-0.6346,-0.5794,-0.5421,-0.5118,-0.4749,-0.4376,-0.3825,-0.3332,-0.3022,-0.2652,-0.2221,-0.1605,-0.1543,-0.1235,-0.0556,-0.0556,-0.0247,0.0494,0.0803,0.1111,0.1482,0.1482,0.1668,0.1977,0.2036,0.2219,0.2529,0.3209,0.3332,-0.7624,-0.7449,-0.7389,-0.7924,0.0,0.0,0.0,0.0,0.0,0.0,0.0,0.0,0.0,0.0,0.0,0.0,0.0,0.0,0.0,0.0,0.0,0.0,0.0,0.0,0.0,0.0,0.0,0.0,0.0,0.0,-1.0802,-1.0729,-1.0688,-1.0688,-1.0688,-1.0688,-1.0688,-1.0688,-1.0729,-1.0794,-1.0729,-1.0688,-1.0696,-1.0883,-1.0851,-1.0588,-1.0932,-1.0908,-1.058,-1.1015,-1.1317,-1.1505,-1.1757,-1.202,-1.2148,-1.1854,-1.16,-1.1359,-1.0763,-0.9881,-0.8935,-0.8524,-0.791,-0.7388,-0.7317,-0.729,-0.729,-0.729,-0.729,-0.747,-0.8041,-0.7937,-0.7791,-0.8276,-0.8122,-0.7872,-0.7872,-0.7872,-0.7811,-0.7627,-0.7204,-0.6837,-0.6653,-0.6223,-0.5794,-0.5421,-0.5118,-0.4749,-0.4438,-0.3887,-0.3455,-0.3332,-0.2837,-0.2221,-0.1543,-0.1296,-0.0988,-0.0556,-0.0679,-0.0494,0.0185,0.0123,0.0309,0.0864,0.1111,0.1358,0.1668,0.2097,0.2467,0.2837,0.3271,0.3455,-0.7683,-0.7709,-0.7762,0.0,0.0,0.0,0.0,0.0,0.0,0.0,0.0,0.0,0.0,0.0,0.0,0.0,0.0,0.0,0.0,0.0,0.0,0.0,0.0,0.0,0.0,0.0,0.0,0.0,0.0,0.0,0.0,-1.0688,-1.0688,-1.0688,-1.0688,-1.0688,-1.0688,-1.0688,-1.0688,-1.0688,-1.0688,-1.0688,-1.0696,-1.0826,-1.0754,-1.0429,-1.077,-1.0699,-1.0476,-1.0974,-1.1363,-1.1551,-1.1861,-1.2088,-1.2199,-1.2021,-1.1795,-1.1559,-1.1146,-1.0149,-0.9026,-0.8619,-0.7921,-0.7263,-0.7237,-0.721,-0.721,-0.721,-0.721,-0.7332,-0.7799,-0.7788,-0.7736,-0.8219,-0.8088,-0.7872,-0.7872,-0.7872,-0.7811,-0.7449,-0.7143,-0.6775,-0.6464,-0.6101,-0.5794,-0.5605,-0.5302,-0.4933,-0.4626,-0.4133,-0.3702,-0.3394,-0.2837,-0.2159,-0.142,-0.1111,-0.0864,-0.0494,-0.0803,-0.0679,0.0,-0.0247,0.0,0.0617,0.0988,0.1296,0.1668,0.2099,0.259,0.3022,0.3209,0.3455,-0.7973,-0.8729,-0.9482,0.0,0.0,0.0,0.0,0.0,0.0,0.0,0.0,0.0,0.0,0.0,0.0,0.0,0.0,0.0,0.0,0.0,0.0,0.0,0.0,0.0,0.0,0.0,0.0,0.0,0.0,0.0,0.0,-1.0688,-1.0688,-1.0688,-1.0688,-1.0688,-1.0688,-1.0688,-1.0688,-1.0688,-1.0688,-1.0688,-1.0688,-1.0688,-1.0688,-1.0688,-1.0688,-1.0696,-1.0712,-1.1234,-1.1576,-1.1888,-1.205,-1.2035,-1.1938,-1.2041,-1.2035,-1.1846,-1.1205,-1.0376,-0.9425,-0.8729,-0.792,-0.721,-0.721,-0.721,-0.721,-0.721,-0.721,-0.7237,-0.7301,-0.7426,-0.7604,-0.8022,-0.7966,-0.7872,-0.7872,-0.7872,-0.7811,-0.7449,-0.7143,-0.6775,-0.6464,-0.6101,-0.5916,-0.5916,-0.5605,-0.5298,-0.4933,-0.4626,-0.4007,-0.3083,-0.2714,-0.2097,-0.1111,-0.0988,-0.0864,-0.0494,-0.0803,-0.0679,-0.0062,0.0,0.0309,0.0988,0.1296,0.1668,0.1977,0.1977,0.2346,0.3022,0.3022,0.3332,-0.82,-0.8503,0.0,0.0,0.0,0.0,0.0,0.0,0.0,0.0,0.0,0.0,0.0,0.0,0.0,0.0,0.0,0.0,0.0,0.0,0.0,0.0,0.0,0.0,0.0,0.0,0.0,0.0,0.0,0.0,0.0,-1.0688,-1.0688,-1.0688,-1.0688,-1.0688,-1.0688,-1.0688,-1.0688,-1.0688,-1.0688,-1.0688,-1.0688,-1.0688,-1.0586,-1.0421,-1.0641,-1.0651,-1.0627,-1.1216,-1.1562,-1.1777,-1.1912,-1.2128,-1.2396,-1.2161,-1.2064,-1.2018,-1.1745,-1.0883,-0.9859,-0.9571,-0.8717,-0.7709,-0.7549,-0.7326,-0.721,-0.721,-0.721,-0.7276,-0.7483,-0.7584,-0.7731,-0.7827,-0.7845,-0.7872,-0.7872,-0.7689,-0.7449,-0.7082,-0.6775,-0.6464,-0.6101,-0.5978,-0.5916,-0.5916,-0.5605,-0.5176,-0.4622,-0.4256,-0.3764,-0.3086,-0.2899,-0.2469,-0.142,-0.1358,-0.1111,-0.0556,-0.0803,-0.0926,-0.0741,-0.0679,-0.0247,0.0617,0.0988,0.142,0.1977,0.1977,0.2346,0.3022,0.3022,0.3209,-0.8414,0.0,0.0,0.0,0.0,0.0,0.0,0.0,0.0,0.0,0.0,0.0,0.0,0.0,0.0,0.0,0.0,0.0,0.0,0.0,0.0,0.0,0.0,0.0,0.0,0.0,0.0,0.0,0.0,0.0,0.0,-1.0688,-1.0688,-1.0688,-1.0688,-1.0688,-1.0688,-1.0688,-1.0688,-1.0688,-1.0688,-1.0633,-1.0531,-1.0531,-1.0476,-1.0312,-1.0548,-1.0723,-1.0904,-1.1388,-1.1653,-1.1794,-1.1992,-1.225,-1.2427,-1.2167,-1.2016,-1.1933,-1.1767,-1.102,-1.007,-0.9717,-0.8954,-0.8097,-0.7604,-0.7382,-0.7326,-0.721,-0.721,-0.721,-0.7382,-0.764,-0.7784,-0.7814,-0.7894,-0.7939,-0.7739,-0.7566,-0.7266,-0.6775,-0.6526,-0.628,-0.5978,-0.5916,-0.5916,-0.5916,-0.5486,-0.4991,-0.4499,-0.4133,-0.3704,-0.3271,-0.3086,-0.2652,-0.179,-0.1482,-0.1173,-0.0926,-0.0864,-0.0926,-0.1173,-0.0926,-0.037,0.0494,0.0803,0.1358,0.1977,0.1977,0.2346,0.3022,0.3022,0.3158,0.0,0.0,0.0,0.0,0.0,0.0,0.0,0.0,0.0,0.0,0.0,0.0,0.0,0.0,0.0,0.0,0.0,0.0,0.0,0.0,0.0,0.0,0.0,0.0,0.0,0.0,0.0,0.0,0.0,0.0,0.0,-1.0688,-1.0688,-1.0688,-1.0688,-1.0688,-1.0641,-1.0688,-1.0688,-1.0641,-1.0641,-1.0531,-1.0312,-1.0312,-1.0319,-1.0343,-1.0426,-1.0904,-1.1459,-1.1661,-1.1794,-1.1946,-1.2173,-1.2301,-1.2265,-1.2037,-1.187,-1.175,-1.1487,-1.086,-1.0055,-0.9433,-0.8937,-0.8429,-0.7487,-0.7382,-0.7549,-0.7265,-0.721,-0.721,-0.721,-0.7517,-0.7806,-0.7945,-0.8019,-0.7971,-0.7484,-0.7388,-0.7143,-0.6526,-0.6403,-0.628,-0.5978,-0.5916,-0.5916,-0.5855,-0.5364,-0.481,-0.4499,-0.4195,-0.3889,-0.3517,-0.3209,-0.2775,-0.2036,-0.1419,-0.1235,-0.1482,-0.0926,-0.0803,-0.142,-0.0864,-0.0185,0.0432,0.0803,0.1296,0.1977,0.1977,0.2346,0.3022,0.296,0.3111,0.0,0.0,0.0,0.0,0.0,0.0,0.0,0.0,0.0,0.0,0.0,0.0,0.0,0.0,0.0,0.0,0.0,0.0,0.0,0.0,0.0,0.0,0.0,0.0,0.0,0.0,0.0,0.0,0.0,0.0,-1.0688,-1.0688,-1.0688,-1.0688,-1.0688,-1.0586,-1.0366,-1.0586,-1.0586,-1.0366,-1.0366,-1.0366,-1.0312,-1.0312,-1.0382,-1.0482,-1.0555,-1.0821,-1.1289,-1.1687,-1.1818,-1.1864,-1.2179,-1.221,-1.2028,-1.1924,-1.1716,-1.1439,-1.1289,-1.1021,-1.0683,-0.9772,-0.9391,-0.8989,-0.7881,-0.7549,-0.7549,-0.7265,-0.721,-0.721,-0.721,-0.7399,-0.7646,-0.7644,-0.7847,-0.7971,-0.7484,-0.7204,-0.6898,-0.6464,-0.6158,-0.5978,-0.5916,-0.5916,-0.5794,-0.5544,-0.536,-0.5176,-0.481,-0.4749,-0.4379,-0.3579,-0.3455,-0.3024,-0.2099,-0.1852,-0.173,-0.1482,-0.1111,-0.0988,-0.1111,-0.0741,-0.0309,0.0123,0.0679,0.1173,0.1606,0.1853,0.2346,0.3022,0.2714,0.2798,0.0,0.0,0.0,0.0,0.0,0.0,0.0,0.0,0.0,0.0,0.0,0.0,0.0,0.0,0.0,0.0,0.0,0.0,0.0,0.0,0.0,0.0,0.0,0.0,0.0,0.0,0.0,0.0,0.0,-1.0688,-1.0688,-1.0688,-1.0688,-1.0688,-1.0688,-1.0641,-1.0476,-1.0641,-1.0641,-1.0476,-1.0366,-1.0147,-0.9871,-0.9871,-1.0062,-1.041,-1.0394,-1.0701,-1.1346,-1.1562,-1.1648,-1.163,-1.1868,-1.1881,-1.18,-1.1568,-1.1389,-1.124,-1.1052,-1.0907,-1.0723,-0.9935,-0.9661,-0.9375,-0.8325,-0.7937,-0.7715,-0.7493,-0.7321,-0.721,-0.721,-0.7421,-0.7686,-0.7533,-0.7685,-0.7719,-0.723,-0.6898,-0.6591,-0.6223,-0.6039,-0.5916,-0.5916,-0.5916,-0.5794,-0.5421,-0.5421,-0.5298,-0.4933,-0.4872,-0.4687,-0.4195,-0.3764,-0.3271,-0.2777,-0.2099,-0.173,-0.173,-0.1111,-0.0803,-0.0988,-0.0494,-0.0185,0.0,0.0494,0.0988,0.1482,0.1668,0.216,0.3022,0.2652,0.2736,0.0,0.0,0.0,0.0,0.0,0.0,0.0,0.0,0.0,0.0,0.0,0.0,0.0,0.0,0.0,0.0,0.0,0.0,0.0,0.0,0.0,0.0,0.0,0.0,0.0,0.0,0.0,0.0,0.0,-1.0664,-1.0688,-1.0688,-1.0688,-1.0688,-1.0688,-1.0696,-1.0641,-1.0696,-1.0696,-1.0641,-1.0366,-0.9926,-0.9382,-0.9382,-0.97,-1.0249,-1.0201,-1.0635,-1.1386,-1.137,-1.1397,-1.1355,-1.1579,-1.1627,-1.1509,-1.1291,-1.1126,-1.1017,-1.0798,-1.0688,-1.0578,-0.9981,-0.9816,-0.9651,-0.8761,-0.8263,-0.7937,-0.766,-0.7382,-0.721,-0.721,-0.7466,-0.7704,-0.755,-0.7418,-0.7256,-0.6982,-0.6653,-0.628,-0.5978,-0.5916,-0.5916,-0.5916,-0.5916,-0.5794,-0.5421,-0.5421,-0.536,-0.5056,-0.5056,-0.5056,-0.4933,-0.4133,-0.3517,-0.3394,-0.2284,-0.173,-0.1977,-0.1111,-0.0741,-0.105,-0.037,0.0,-0.0062,0.0309,0.0803,0.142,0.1482,0.2037,0.296,0.259,0.2798,0.0,0.0,0.0,0.0,0.0,0.0,0.0,0.0,0.0,0.0,0.0,0.0,0.0,0.0,0.0,0.0,0.0,0.0,0.0,0.0,0.0,0.0,0.0,0.0,0.0,0.0,0.0,0.0,-1.0415,-1.0534,-1.068,-1.0688,-1.0688,-1.0688,-1.0688,-1.0586,-1.0366,-1.0586,-1.0586,-1.0366,-1.0036,-0.9706,-0.9382,-0.9382,-0.9642,-1.0149,-1.0498,-1.0784,-1.1094,-1.1327,-1.1321,-1.116,-1.1746,-1.1618,-1.1181,-1.1455,-1.1181,-1.0751,-1.0696,-1.0688,-1.0578,-0.9981,-0.9816,-0.9651,-0.8761,-0.8263,-0.7937,-0.766,-0.7382,-0.721,-0.721,-0.7303,-0.7366,-0.7491,-0.7123,-0.6815,-0.6874,-0.6653,-0.628,-0.5978,-0.5916,-0.5916,-0.5916,-0.5916,-0.5794,-0.5421,-0.5671,-0.5732,-0.536,-0.5609,-0.5548,-0.4988,-0.425,-0.3638,-0.3086,-0.2346,-0.1977,-0.1977,-0.1358,-0.1111,-0.142,-0.0494,-0.0123,-0.0432,0.0185,0.0679,0.105,0.1358,0.2037,0.296,0.2346,0.2552,0.0,0.0,0.0,0.0,0.0,0.0,0.0,0.0,0.0,0.0,0.0,0.0,0.0,0.0,0.0,0.0,0.0,0.0,0.0,0.0,0.0,0.0,0.0,0.0,0.0,0.0,0.0,0.0,-1.0379,-1.0415,-1.0542,-1.0639,-1.0688,-1.0688,-1.0688,-1.0633,-1.0531,-1.0633,-1.0476,-1.0036,-0.9706,-0.9485,-0.9382,-0.9541,-0.9906,-1.0337,-1.0434,-1.0659,-1.102,-1.1026,-1.0982,-1.0907,-1.1181,-1.1126,-1.0907,-1.1017,-1.0907,-1.0688,-1.0688,-1.0688,-1.0641,-1.0366,-1.0202,-0.9926,-0.921,-0.865,-0.8208,-0.7715,-0.7382,-0.721,-0.721,-0.7296,-0.7453,-0.7508,-0.7303,-0.7084,-0.695,-0.6469,-0.6101,-0.5916,-0.5916,-0.5916,-0.5916,-0.5916,-0.5855,-0.5732,-0.5794,-0.5855,-0.5671,-0.5794,-0.5794,-0.5483,-0.4496,-0.382,-0.3515,-0.2592,-0.1977,-0.1977,-0.1544,-0.1235,-0.1235,-0.0617,-0.0247,-0.0247,0.0062,0.0494,0.0988,0.1173,0.1852,0.296,0.2531,0.2787,0.0,0.0,0.0,0.0,0.0,0.0,0.0,0.0,0.0,0.0,0.0,0.0,0.0,0.0,0.0,0.0,0.0,0.0,0.0,0.0,0.0,0.0,0.0,0.0,0.0,0.0,0.0,0.0,-1.029,-1.0404,-1.0493,-1.0623,-1.0688,-1.0688,-1.0688,-1.0688,-1.0688,-1.0688,-1.0421,-0.9816,-0.9706,-0.9596,-0.9485,-0.9816,-1.016,-1.0555,-1.0422,-1.0603,-1.0891,-1.0753,-1.0688,-1.0696,-1.0798,-1.0798,-1.0798,-1.0798,-1.0852,-1.0907,-1.0751,-1.0743,-1.0798,-1.0743,-1.0531,-1.0202,-0.9761,-0.9099,-0.8429,-0.7937,-0.7543,-0.721,-0.721,-0.7334,-0.7519,-0.7519,-0.7404,-0.7204,-0.6837,-0.6285,-0.5916,-0.5916,-0.5916,-0.5916,-0.5916,-0.5916,-0.5916,-0.5916,-0.5916,-0.5916,-0.5916,-0.5916,-0.5855,-0.5794,-0.4745,-0.3946,-0.3822,-0.2777,-0.2099,-0.1977,-0.1668,-0.1358,-0.1111,-0.0741,-0.037,-0.0123,-0.0062,0.0309,0.0988,0.0988,0.1667,0.2837,0.259,0.296,0.0,0.0,0.0,0.0,0.0,0.0,0.0,0.0,0.0,0.0,0.0,0.0,0.0,0.0,0.0,0.0,0.0,0.0,0.0,0.0,0.0,0.0,0.0,0.0,0.0,0.0,0.0,0.0,-1.022,-1.0375,-1.0664,-1.0688,-1.0688,-1.0688,-1.0688,-1.0688,-1.0688,-1.0688,-1.0421,-0.9816,-1.0091,-1.0091,-0.9816,-1.0147,-1.0421,-1.0704,-1.0696,-1.0696,-1.0704,-1.0696,-1.0688,-1.0743,-1.0962,-1.1072,-1.1072,-1.1072,-1.1291,-1.1455,-1.0916,-1.0852,-1.1017,-1.0798,-1.0531,-1.0312,-1.0257,-0.9423,-0.8484,-0.8484,-0.7875,-0.721,-0.721,-0.7334,-0.7519,-0.7519,-0.7225,-0.6837,-0.6526,-0.6162,-0.5916,-0.5916,-0.5916,-0.5916,-0.5916,-0.5916,-0.5916,-0.5916,-0.5916,-0.5916,-0.5916,-0.5916,-0.5794,-0.5483,-0.4807,-0.413,-0.3579,-0.2899,-0.2344,-0.2038,-0.1668,-0.1482,-0.1482,-0.0864,-0.0494,-0.0494,-0.0185,0.0309,0.0988,0.0988,0.1543,0.2529,0.2529,0.2837,0.0,0.0,0.0,0.0,0.0,0.0,0.0,0.0,0.0,0.0,0.0,0.0,0.0,0.0,0.0,0.0,0.0,0.0,0.0,0.0,0.0,0.0,0.0,0.0,0.0,0.0,0.0,0.0,0.0,-0.994,-1.0339,-1.0299,-1.0411,-1.0688,-1.0688,-1.0688,-1.0688,-1.0531,-1.0312,-1.0147,-1.0036,-1.0036,-1.0147,-1.0257,-1.0476,-1.0688,-1.0688,-1.0688,-1.0688,-1.0688,-1.0688,-1.0743,-1.1017,-1.1072,-1.1126,-1.1345,-1.1345,-1.1236,-1.1017,-1.0907,-1.0852,-1.0743,-1.0641,-1.0476,-1.0091,-0.9423,-0.8706,-0.8263,-0.7709,-0.7226,-0.7252,-0.7334,-0.7385,-0.73,-0.704,-0.6696,-0.6451,-0.6162,-0.5916,-0.5916,-0.5916,-0.5916,-0.5916,-0.5916,-0.5916,-0.5916,-0.5916,-0.5916,-0.5916,-0.5916,-0.5855,-0.5732,-0.493,-0.4253,-0.3822,-0.296,-0.2344,-0.2038,-0.1668,-0.142,-0.1173,-0.0741,-0.037,-0.0185,-0.0062,0.0247,0.0679,0.0864,0.142,0.2157,0.259,0.3086,0.0,0.0,0.0,0.0,0.0,0.0,0.0,0.0,0.0,0.0,0.0,0.0,0.0,0.0,0.0,0.0,0.0,0.0,0.0,0.0,0.0,0.0,0.0,0.0,0.0,0.0,0.0,0.0,0.0,0.0,-1.0204,-1.0116,-1.0227,-1.0509,-1.0631,-1.0609,-1.049,-1.0445,-1.0312,-1.0147,-1.0091,-1.0202,-1.0421,-1.0421,-1.0586,-1.0852,-1.0743,-1.0688,-1.0688,-1.0688,-1.0655,-1.0615,-1.0992,-1.1147,-1.1205,-1.1492,-1.1509,-1.1345,-1.1181,-1.1072,-1.0962,-1.0751,-1.0743,-1.0743,-1.0257,-0.9533,-0.8809,-0.8429,-0.782,-0.7354,-0.742,-0.7481,-0.7453,-0.716,-0.6885,-0.6589,-0.6324,-0.6039,-0.5916,-0.5916,-0.5916,-0.5916,-0.5916,-0.5916,-0.5916,-0.5916,-0.5916,-0.5916,-0.5916,-0.5916,-0.5855,-0.5732,-0.5114,-0.4499,-0.3822,-0.3207,-0.2592,-0.2038,-0.1668,-0.1358,-0.0988,-0.0679,-0.037,0.0,0.0,0.0123,0.0309,0.0803,0.1358,0.2036,0.2714,0.3271,0.0,0.0,0.0,0.0,0.0,0.0,0.0,0.0,0.0,0.0,0.0,0.0,0.0,0.0,0.0,0.0,0.0,0.0,0.0,0.0,0.0,0.0,0.0,0.0,0.0,0.0,0.0,0.0,-0.9876,-0.9957,-1.0144,-1.016,-1.0212,-1.0168,-1.0501,-1.0482,-0.9984,-1.0482,-1.0414,-0.9809,-1.0414,-1.0688,-1.0696,-1.0688,-1.0852,-1.1072,-1.0798,-1.0688,-1.068,-1.068,-1.0582,-1.0452,-1.0941,-1.1179,-1.1309,-1.1557,-1.1782,-1.1891,-1.1345,-1.1345,-1.1509,-1.0907,-1.0907,-1.1017,-1.0798,-0.9864,-0.892,-0.892,-0.8263,-0.7633,-0.7754,-0.7887,-0.7814,-0.7089,-0.6817,-0.6529,-0.6018,-0.5916,-0.5916,-0.5916,-0.5916,-0.5916,-0.5916,-0.5916,-0.5916,-0.5912,-0.5912,-0.5912,-0.5912,-0.5912,-0.579,-0.5421,-0.5421,-0.4868,-0.364,-0.3517,-0.3086,-0.2038,-0.1668,-0.1358,-0.0988,-0.0679,-0.0309,0.0,0.0,0.0,0.0,0.0679,0.1358,0.1977,0.2716,0.3515,-0.6759,0.0,0.0,0.0,0.0,0.0,-0.7366,-0.7894,0.0,0.0,0.0,0.0,0.0,0.0,0.0,0.0,0.0,0.0,0.0,0.0,0.0,0.0,0.0,0.0,0.0,0.0,0.0,0.0,-0.9498,-0.9477,-0.9701,-0.9836,-0.9955,-1.002,-1.0216,-1.0176,-0.9865,-1.0251,-1.0285,-0.9954,-1.0467,-1.0798,-1.0962,-1.0798,-1.0852,-1.1072,-1.0798,-1.0623,-1.0509,-1.0509,-1.0423,-1.0436,-1.1022,-1.1282,-1.1362,-1.1982,-1.211,-1.2001,-1.1782,-1.1509,-1.1236,-1.1345,-1.1126,-1.0852,-1.0962,-1.0304,-0.9478,-0.9037,-0.8429,-0.78,-0.7533,-0.7602,-0.76,-0.689,-0.652,-0.6284,-0.5957,-0.5916,-0.5916,-0.5916,-0.5916,-0.5916,-0.5916,-0.5916,-0.5896,-0.5827,-0.5818,-0.5818,-0.5818,-0.5818,-0.5782,-0.5786,-0.5302,-0.4687,-0.3884,-0.3391,-0.2839,-0.2038,-0.1482,-0.1111,-0.0988,-0.0432,-0.0123,0.0,0.0,0.0123,0.037,0.0803,0.1235,0.1666,0.2837,0.3887,0.0,0.0,0.0,0.0,0.0,0.0,-0.7024,-0.7296,-0.7655,0.0,0.0,0.0,0.0,0.0,0.0,0.0,0.0,0.0,0.0,0.0,0.0,0.0,0.0,0.0,0.0,-0.9575,-0.9575,-0.9575,-0.9434,-0.9456,-0.9673,-0.9856,-0.9967,-0.9931,-1.0197,-1.0096,-0.9685,-1.0128,-1.0195,-0.9992,-1.0371,-1.0841,-1.1291,-1.0916,-1.0907,-1.1291,-1.0852,-1.0645,-1.0535,-1.0514,-1.0432,-1.0435,-1.1177,-1.1345,-1.1248,-1.1954,-1.2055,-1.1837,-1.1837,-1.1618,-1.1291,-1.1345,-1.1126,-1.0852,-1.0907,-1.0414,-0.9651,-0.9092,-0.853,-0.8051,-0.7663,-0.7688,-0.7644,-0.6964,-0.6589,-0.6284,-0.5957,-0.6071,-0.6163,-0.592,-0.5892,-0.5904,-0.5867,-0.5892,-0.5884,-0.5794,-0.5782,-0.5782,-0.5782,-0.5782,-0.5814,-0.5908,-0.5425,-0.4807,-0.3943,-0.3453,-0.2839,-0.2038,-0.1482,-0.1173,-0.0988,-0.0494,-0.0123,0.0,0.0,0.0247,0.0679,0.0926,0.1358,0.2157,0.2899,0.3887,0.0,0.0,0.0,0.0,-0.6854,0.0,-0.6792,-0.6542,-0.6387,0.0,0.0,0.0,0.0,0.0,0.0,0.0,0.0,0.0,0.0,0.0,0.0,0.0,0.0,0.0,-0.9673,-0.9624,-0.9624,-0.9575,-0.9583,-0.9663,-0.9857,-1.0054,-1.0063,-0.9865,-1.0181,-1.0084,-0.9486,-0.9983,-1.016,-1.0045,-1.0345,-1.0866,-1.1618,-1.1017,-1.1063,-1.1538,-1.0937,-1.0712,-1.0735,-1.0671,-1.0553,-1.0442,-1.1273,-1.1362,-1.1089,-1.1693,-1.1782,-1.1618,-1.1618,-1.1618,-1.1564,-1.1236,-1.1126,-1.1072,-1.0798,-1.0366,-0.9754,-0.9092,-0.8601,-0.8241,-0.8009,-0.7944,-0.7788,-0.7099,-0.6827,-0.6543,-0.6084,-0.6393,-0.6557,-0.6009,-0.5899,-0.5876,-0.5794,-0.5847,-0.5872,-0.5782,-0.5757,-0.5749,-0.5749,-0.5749,-0.579,-0.5892,-0.5533,-0.4981,-0.4004,-0.3638,-0.3024,-0.21,-0.1668,-0.1296,-0.0988,-0.0617,-0.0309,0.0,0.0062,0.037,0.0988,0.105,0.179,0.3022,0.3086,0.3764,0.0,0.0,0.0,0.0,-0.6321,0.0,-0.6437,-0.6287,-0.6242,0.0,0.0,0.0,0.0,0.0,0.0,0.0,0.0,0.0,0.0,0.0,0.0,0.0,0.0,0.0,-0.9871,-0.992,-0.9821,-0.9632,-0.9385,-0.9419,-0.9724,-0.969,-0.9682,-0.974,-1.0072,-1.0008,-0.9486,-1.006,-1.0396,-1.042,-1.0783,-1.1311,-1.1891,-1.1291,-1.1159,-1.1344,-1.0969,-1.0615,-1.0416,-1.0833,-1.0848,-1.0687,-1.1009,-1.108,-1.1037,-1.1531,-1.1618,-1.1618,-1.1618,-1.1618,-1.1564,-1.1518,-1.1291,-1.1072,-1.1017,-1.0798,-1.0304,-0.9196,-0.8502,-0.8009,-0.7688,-0.7541,-0.7453,-0.7317,-0.6879,-0.6503,-0.6648,-0.6696,-0.6657,-0.6455,-0.6277,-0.6039,-0.5842,-0.5794,-0.5778,-0.5684,-0.5606,-0.5561,-0.5561,-0.5561,-0.5622,-0.579,-0.5264,-0.4744,-0.4312,-0.3576,-0.2901,-0.2406,-0.1605,-0.105,-0.0988,-0.0432,-0.0062,0.0,0.0247,0.0617,0.0988,0.1542,0.2221,0.3022,0.3517,0.4133,0.0,0.0,0.0,-0.6187,0.0,0.0,0.0,-0.6187,-0.6287,0.0,0.0,0.0,0.0,0.0,0.0,0.0,0.0,0.0,0.0,0.0,0.0,0.0,0.0,0.0,-0.9969,-0.9624,-0.9476,-0.9575,-0.9484,-0.9496,-0.9808,-0.9816,-0.9816,-0.9816,-1.0096,-1.0116,-0.9689,-1.0212,-1.0551,-1.0695,-1.1056,-1.1422,-1.1782,-1.1291,-1.1196,-1.1291,-1.0971,-1.0758,-1.072,-1.1114,-1.1198,-1.1125,-1.1216,-1.1277,-1.137,-1.1567,-1.1648,-1.1618,-1.1618,-1.1618,-1.1618,-1.1618,-1.1345,-1.1072,-1.1072,-1.0641,-0.9871,-0.914,-0.8527,-0.7962,-0.7386,-0.7357,-0.7438,-0.7189,-0.7021,-0.6898,-0.6898,-0.7015,-0.6941,-0.6476,-0.6345,-0.6228,-0.594,-0.5802,-0.5684,-0.559,-0.5537,-0.5508,-0.5508,-0.5508,-0.5561,-0.5696,-0.5156,-0.4654,-0.4386,-0.35,-0.2837,-0.2529,-0.1729,-0.1173,-0.0988,-0.0494,-0.0185,0.0,0.0185,0.0494,0.0988,0.1481,0.2157,0.3022,0.3332,0.3948,0.0,0.0,0.0,0.0,0.0,-0.5972,0.0,0.0,0.0,0.0,0.0,0.0,0.0,0.0,0.0,0.0,0.0,0.0,0.0,0.0,0.0,0.0,0.0,0.0,0.0,-0.9223,-0.9091,-0.9624,-0.9592,-0.9665,-0.9876,-1.003,-1.0106,-0.9941,-1.0266,-1.029,-0.9989,-1.0481,-1.0816,-1.1022,-1.1291,-1.1531,-1.1728,-1.1365,-1.1244,-1.1283,-1.0983,-1.0923,-1.107,-1.1276,-1.142,-1.152,-1.1507,-1.1545,-1.1718,-1.1665,-1.1594,-1.1511,-1.1511,-1.1511,-1.1511,-1.1511,-1.1374,-1.1181,-1.1072,-1.0312,-0.943,-0.9092,-0.8607,-0.803,-0.738,-0.739,-0.7457,-0.7184,-0.7245,-0.7291,-0.7113,-0.7298,-0.7248,-0.6497,-0.635,-0.6284,-0.5965,-0.5743,-0.5536,-0.552,-0.5492,-0.5484,-0.5484,-0.5484,-0.5516,-0.5548,-0.5108,-0.4684,-0.4397,-0.3544,-0.2899,-0.259,-0.1914,-0.1358,-0.0988,-0.0617,-0.0247,0.0,0.0062,0.037,0.0988,0.1357,0.2036,0.3022,0.3086,0.3699,0.0,0.0,0.0,0.0,-0.619,0.0,0.0,0.0,-0.5391,-0.5586,0.0,0.0,0.0,0.0,0.0,0.0,0.0,0.0,0.0,0.0,0.0,0.0,0.0,0.0,0.0,-0.9051,-0.9259,-0.9912,-0.9624,-0.9584,-0.9868,-0.99,-1.0033,-1.018,-1.0331,-1.0358,-1.0318,-1.0812,-1.1185,-1.1538,-1.181,-1.2037,-1.2273,-1.1827,-1.153,-1.1374,-1.115,-1.1002,-1.0842,-1.1107,-1.1319,-1.1488,-1.141,-1.1517,-1.1665,-1.1451,-1.1354,-1.1318,-1.1318,-1.1318,-1.1318,-1.1318,-1.1432,-1.1455,-1.0907,-1.0257,-0.9706,-0.943,-0.8684,-0.802,-0.7921,-0.7682,-0.749,-0.7744,-0.7488,-0.7295,-0.754,-0.7471,-0.7298,-0.7184,-0.6699,-0.6149,-0.5667,-0.5516,-0.552,-0.5508,-0.5443,-0.5398,-0.5398,-0.5398,-0.5431,-0.5512,-0.5024,-0.4746,-0.4754,-0.3669,-0.296,-0.296,-0.2037,-0.1358,-0.0988,-0.037,-0.0062,0.0,0.0309,0.0617,0.0988,0.1358,0.2037,0.3022,0.3332,0.3825,0.0,0.0,0.0,0.0,0.0,0.0,-0.5761,0.0,-0.5436,0.0,0.0,0.0,0.0,0.0,0.0,0.0,-0.5176,0.0,0.0,0.0,0.0,0.0,0.0,0.0,0.0,0.0,0.0,0.0,-0.9155,-0.9363,-0.9616,-0.9822,-1.0071,-1.0297,-1.0439,-1.0435,-1.0335,-1.0937,-1.119,-1.119,-1.1738,-1.1946,-1.1783,-1.1701,-1.1535,-1.1235,-1.1152,-1.1047,-1.107,-1.1403,-1.1614,-1.1657,-1.1769,-1.1953,-1.2177,-1.1739,-1.1661,-1.1727,-1.1522,-1.1379,-1.1309,-1.1414,-1.1611,-1.1728,-1.1126,-1.0531,-0.9949,-0.937,-0.8755,-0.8113,-0.7659,-0.7621,-0.7689,-0.7627,-0.7591,-0.7598,-0.7714,-0.7568,-0.7363,-0.7122,-0.6791,-0.634,-0.5764,-0.5547,-0.5435,-0.5435,-0.5406,-0.5382,-0.5382,-0.5382,-0.5338,-0.5145,-0.4825,-0.4613,-0.445,-0.3497,-0.2934,-0.3022,-0.1852,-0.105,-0.0741,-0.0247,0.0,0.0,0.0123,0.0494,0.0988,0.1111,0.1729,0.2714,0.3086,0.3515,-0.7123,0.0,0.0,0.0,0.0,0.0,0.0,0.0,0.0,0.0,0.0,0.0,0.0,0.0,0.0,0.0,0.0,0.0,0.0,0.0,0.0,0.0,0.0,0.0,0.0,0.0,0.0,-0.838,-0.8629,-0.8908,-0.9322,-0.9647,-0.9968,-1.0265,-1.0433,-1.0467,-1.028,-1.0915,-1.1106,-1.0947,-1.1558,-1.171,-1.1415,-1.1572,-1.1493,-1.1217,-1.1153,-1.1191,-1.1325,-1.1586,-1.1737,-1.1859,-1.2011,-1.2264,-1.2565,-1.1983,-1.1879,-1.2002,-1.1773,-1.1621,-1.1532,-1.1457,-1.1782,-1.2001,-1.14,-1.0798,-1.0122,-0.9504,-0.8851,-0.8184,-0.76,-0.7659,-0.7805,-0.753,-0.762,-0.7741,-0.7627,-0.7502,-0.7336,-0.7023,-0.6827,-0.6548,-0.6098,-0.579,-0.5531,-0.5418,-0.5414,-0.5414,-0.5414,-0.5398,-0.527,-0.4931,-0.4719,-0.4508,-0.4229,-0.3403,-0.2847,-0.2697,-0.1656,-0.0857,-0.061,-0.0245,0.0,0.0,0.0,0.0309,0.0988,0.0988,0.1482,0.2344,0.2714,0.3207,0.0,0.0,0.0,-0.6536,0.0,0.0,0.0,0.0,-0.5047,0.0,0.0,0.0,0.0,0.0,0.0,0.0,0.0,0.0,0.0,0.0,0.0,0.0,0.0,0.0,0.0,0.0,0.0,-0.8318,-0.8095,-0.8282,-0.9088,-0.9314,-0.9591,-1.001,-1.0213,-1.0297,-1.0204,-1.0733,-1.1001,-1.1001,-1.1261,-1.1572,-1.177,-1.1573,-1.1479,-1.146,-1.1293,-1.1345,-1.156,-1.1535,-1.168,-1.1882,-1.1892,-1.2171,-1.2555,-1.1977,-1.1853,-1.1921,-1.1817,-1.1921,-1.1959,-1.1339,-1.1673,-1.2273,-1.1728,-1.0962,-1.0177,-1.0003,-0.9023,-0.8008,-0.8082,-0.7966,-0.7845,-0.7736,-0.7616,-0.7497,-0.7315,-0.7252,-0.7221,-0.7215,-0.6937,-0.6715,-0.6659,-0.6299,-0.5851,-0.5561,-0.5504,-0.5504,-0.5504,-0.5431,-0.527,-0.4931,-0.4719,-0.4508,-0.4229,-0.3403,-0.2654,-0.1992,-0.1328,-0.0959,-0.0886,-0.0299,0.0,0.0,0.0,0.0309,0.0988,0.0988,0.1358,0.2038,0.2344,0.2899,0.0,0.0,-0.7298,-0.6862,0.0,0.0,0.0,0.0,0.0,0.0,0.0,0.0,0.0,0.0,0.0,0.0,0.0,0.0,0.0,0.0,0.0,0.0,0.0,0.0,0.0,0.0,0.0,-0.7194,-0.7584,-0.8087,-0.8681,-0.9041,-0.9552,-1.0316,-1.0364,-1.0445,-1.0606,-1.089,-1.0961,-1.0808,-1.1189,-1.1386,-1.136,-1.1447,-1.1444,-1.1302,-1.1423,-1.1541,-1.1619,-1.2032,-1.2192,-1.2204,-1.2483,-1.2617,-1.2638,-1.2283,-1.2133,-1.2052,-1.1438,-1.1565,-1.1973,-1.1546,-1.1891,-1.2273,-1.1782,-1.1072,-1.0366,-0.9745,-0.8929,-0.8201,-0.7999,-0.7961,-0.7861,-0.7823,-0.7845,-0.7842,-0.7481,-0.7532,-0.7528,-0.7226,-0.7099,-0.6932,-0.6715,-0.6468,-0.6114,-0.5769,-0.5535,-0.5426,-0.5426,-0.5398,-0.521,-0.4704,-0.4605,-0.4393,-0.3998,-0.3317,-0.2682,-0.1932,-0.1327,-0.0959,-0.0885,-0.0299,0.0,0.0,0.0,0.0247,0.0679,0.0864,0.1235,0.1668,0.2037,0.2531,-0.7566,-0.7551,0.0,-0.7039,-0.6858,0.0,-0.6245,0.0,-0.5984,0.0,0.0,0.0,0.0,0.0,0.0,0.0,0.0,0.0,0.0,-0.4879,0.0,0.0,0.0,0.0,0.0,0.0,-0.6498,-0.6454,-0.7132,-0.7795,0.0,0.0,-0.9614,-1.0357,-1.0466,-1.056,-1.0659,-1.0884,-1.0907,-1.0756,-1.1134,-1.1277,-1.1157,-1.1406,-1.1479,-1.1345,-1.1541,-1.1736,-1.1913,-1.2405,-1.2516,-1.2465,-1.2874,-1.2895,-1.2675,-1.2374,-1.2274,-1.2151,-1.1362,-1.1557,-1.211,-1.1837,-1.2055,-1.2327,-1.2001,-1.1236,-1.0437,-0.9917,-0.9078,-0.8389,-0.8297,-0.8177,-0.8033,-0.7944,-0.7985,-0.7937,-0.7484,-0.7556,-0.764,-0.7282,-0.721,-0.7154,-0.6937,-0.6603,-0.6261,-0.5925,-0.5646,-0.5475,-0.5475,-0.5447,-0.5246,-0.4707,-0.4719,-0.4463,-0.3734,-0.3205,-0.2674,-0.1917,-0.1428,-0.106,-0.0927,-0.0412,-0.0119,0.0,0.0,0.0184,0.0494,0.0741,0.105,0.1482,0.1719,0.2143]}]]